[[{"header":{"parameterUnit":"m.s-1","parameterCategory":1,"la1":30.6,"la2":28.766,"lo1":-90.7593,"lo2":-88.6598,"dy":0.0162,"dx":0.0183,"nx":116,"ny":114,"refTime":"2023-05-17T12:00:00:Z","depth":0,"parameterNumber":2,"parameterNumberName":"U-component_of_WINDS"},"data":[0.0,0.0,0.0,0.0,0.0,0.0,0.0,0.0,0.0,0.0,0.0,0.0,0.0,0.0,0.0,0.0,0.0,0.0,0.0,0.0,0.0,0.0,0.0,0.0,0.0,0.0,0.0,0.0,0.0,0.0,0.0,0.0,0.0,0.0,0.0,0.0,0.0,0.0,0.0,0.0,0.0,0.0,0.0,0.0,0.0,0.0,0.0,0.0,0.0,0.0,0.0,0.0,0.0,0.0,0.0,0.0,0.0,0.0,0.0,0.0,0.0,0.0,0.0,0.0,0.0,0.0,0.0,0.0,0.0,0.0,0.0,0.0,0.0,0.0,0.0,0.0,0.0,0.0,0.0,0.0,0.0,0.0,0.0,0.0,0.0,0.0,0.0,0.0,0.0,0.0,0.0,0.0,0.0,0.0,0.0,0.0,0.0,0.0,0.0,0.0,0.0,0.0,0.0,0.0,0.0,0.0,0.0,0.0,0.0,0.0,0.0,0.0,0.0,0.0,0.0,0.0,0.0,0.0,0.0,0.0,0.0,0.0,0.0,0.0,0.0,0.0,0.0,0.0,0.0,0.0,0.0,0.0,0.0,0.0,0.0,0.0,0.0,0.0,0.0,0.0,0.0,0.0,0.0,0.0,0.0,0.0,0.0,0.0,0.0,0.0,0.0,0.0,0.0,0.0,0.0,0.0,0.0,0.0,0.0,0.0,0.0,0.0,0.0,0.0,0.0,0.0,0.0,0.0,0.0,0.0,0.0,0.0,0.0,0.0,0.0,0.0,0.0,0.0,0.0,0.0,0.0,0.0,0.0,0.0,0.0,0.0,0.0,0.0,0.0,0.0,0.0,0.0,0.0,0.0,0.0,0.0,0.0,0.0,0.0,0.0,0.0,0.0,0.0,0.0,0.0,0.0,0.0,0.0,0.0,0.0,0.0,0.0,0.0,0.0,0.0,0.0,0.0,0.0,0.0,0.0,0.0,0.0,0.0,0.0,0.0,0.0,0.0,0.0,0.0,0.0,0.0,0.0,0.0,0.0,0.0,0.0,0.0,0.0,0.0,0.0,0.0,0.0,0.0,0.0,0.0,0.0,0.0,0.0,0.0,0.0,0.0,0.0,0.0,0.0,0.0,0.0,0.0,0.0,0.0,0.0,0.0,0.0,0.0,0.0,0.0,0.0,0.0,0.0,0.0,0.0,0.0,0.0,0.0,0.0,0.0,0.0,0.0,0.0,0.0,0.0,0.0,0.0,0.0,0.0,0.0,0.0,0.0,0.0,0.0,0.0,0.0,0.0,0.0,0.0,0.0,0.0,0.0,0.0,0.0,0.0,0.0,0.0,0.0,0.0,0.0,0.0,0.0,0.0,0.0,0.0,0.0,0.0,0.0,0.0,0.0,0.0,0.0,0.0,0.0,0.0,0.0,0.0,0.0,0.0,0.0,0.0,0.0,0.0,0.0,0.0,0.0,0.0,0.0,0.0,0.0,0.0,0.0,0.0,0.0,0.0,0.0,0.0,0.0,0.0,0.0,0.0,0.0,0.0,0.0,0.0,0.0,0.0,0.0,0.0,0.0,0.0,0.0,0.0,0.0,0.0,0.0,0.0,0.0,0.0,0.0,0.0,0.0,0.0,0.0,0.0,0.0,0.0,0.0,0.0,0.0,0.0,0.0,0.0,0.0,0.0,0.0,0.0,0.0,0.0,0.0,0.0,0.0,0.0,0.0,0.0,0.0,0.0,0.0,0.0,0.0,0.0,0.0,0.0,0.0,0.0,0.0,0.0,0.0,0.0,0.0,0.0,0.0,0.0,0.0,0.0,0.0,0.0,0.0,0.0,0.0,0.0,0.0,0.0,0.0,0.0,0.0,0.0,0.0,0.0,0.0,0.0,0.0,0.0,0.0,0.0,0.0,0.0,0.0,0.0,0.0,0.0,0.0,0.0,0.0,0.0,0.0,0.0,0.0,0.0,0.0,0.0,0.0,0.0,0.0,0.0,0.0,0.0,0.0,0.0,0.0,0.0,0.0,0.0,0.0,0.0,0.0,0.0,0.0,0.0,0.0,0.0,0.0,0.0,0.0,0.0,0.0,0.0,0.0,0.0,0.0,0.0,0.0,0.0,0.0,0.0,0.0,0.0,0.0,0.0,0.0,0.0,0.0,0.0,0.0,0.0,0.0,0.0,0.0,0.0,0.0,0.0,0.0,0.0,0.0,0.0,0.0,0.0,0.0,0.0,0.0,0.0,0.0,0.0,0.0,0.0,0.0,0.0,0.0,0.0,0.0,0.0,0.0,0.0,0.0,0.0,0.0,0.0,0.0,0.0,0.0,0.0,0.0,0.0,0.0,0.0,0.0,0.0,0.0,0.0,0.0,0.0,0.0,0.0,0.0,0.0,0.0,0.0,0.0,0.0,0.0,0.0,0.0,0.0,0.0,0.0,0.0,0.0,0.0,0.0,0.0,0.0,0.0,0.0,0.0,0.0,0.0,0.0,0.0,0.0,0.0,0.0,0.0,0.0,0.0,0.0,0.0,0.0,0.0,0.0,0.0,0.0,0.0,0.0,0.0,0.0,0.0,0.0,0.0,0.0,0.0,0.0,0.0,0.0,0.0,0.0,0.0,0.0,0.0,0.0,0.0,0.0,0.0,0.0,0.0,0.0,0.0,0.0,0.0,0.0,0.0,0.0,0.0,0.0,0.0,0.0,0.0,0.0,0.0,0.0,0.0,0.0,0.0,0.0,0.0,0.0,0.0,0.0,0.0,0.0,0.0,0.0,0.0,0.0,0.0,0.0,0.0,0.0,0.0,0.0,0.0,0.0,0.0,0.0,0.0,0.0,0.0,0.0,0.0,0.0,0.0,0.0,0.0,0.0,0.0,0.0,0.0,0.0,0.0,0.0,0.0,0.0,0.0,0.0,0.0,0.0,0.0,0.0,0.0,0.0,0.0,0.0,0.0,0.0,0.0,0.0,0.0,0.0,0.0,0.0,0.0,0.0,0.0,0.0,0.0,0.0,0.0,0.0,0.0,0.0,0.0,0.0,0.0,0.0,0.0,0.0,0.0,0.0,0.0,0.0,0.0,0.0,0.0,0.0,0.0,0.0,0.0,0.0,0.0,0.0,0.0,0.0,0.0,0.0,0.0,0.0,0.0,0.0,0.0,0.0,0.0,0.0,0.0,0.0,0.0,0.0,0.0,0.0,0.0,0.0,0.0,0.0,0.0,0.0,0.0,0.0,0.0,0.0,0.0,0.0,0.0,0.0,0.0,0.0,0.0,0.0,0.0,0.0,0.0,0.0,0.0,0.0,0.0,0.0,0.0,0.0,0.0,0.0,0.0,0.0,0.0,0.0,0.0,0.0,0.0,0.0,0.0,0.0,0.0,0.0,0.0,0.0,0.0,0.0,0.0,0.0,0.0,0.0,0.0,0.0,0.0,0.0,0.0,0.0,0.0,0.0,0.0,0.0,0.0,0.0,0.0,0.0,0.0,0.0,0.0,0.0,0.0,0.0,0.0,0.0,0.0,0.0,0.0,0.0,0.0,0.0,0.0,0.0,0.0,0.0,0.0,0.0,0.0,0.0,0.0,0.0,0.0,0.0,0.0,0.0,0.0,0.0,0.0,0.0,0.0,0.0,0.0,0.0,0.0,0.0,0.0,0.0,0.0,0.0,0.0,0.0,0.0,0.0,0.0,0.0,0.0,0.0,0.0,0.0,0.0,0.0,0.0,0.0,0.0,0.0,0.0,0.0,0.0,0.0,0.0,0.0,0.0,0.0,0.0,0.0,0.0,0.0,0.0,0.0,0.0,0.0,0.0,0.0,0.0,0.0,0.0,0.0,0.0,0.0,0.0,0.0,0.0,0.0,0.0,0.0,0.0,0.0,0.0,0.0,0.0,0.0,0.0,0.0,0.0,0.0,0.0,0.0,0.0,0.0,0.0,0.0,0.0,0.0,0.0,0.0,0.0,0.0,0.0,0.0,0.0,0.0,0.0,0.0,0.0,0.0,0.0,0.0,0.0,0.0,0.0,0.0,0.0,0.0,0.0,0.0,0.0,0.0,0.0,0.0,0.0,0.0,0.0,0.0,0.0,0.0,0.0,0.0,0.0,0.0,0.0,0.0,0.0,0.0,0.0,0.0,0.0,0.0,0.0,0.0,0.0,0.0,0.0,0.0,0.0,0.0,0.0,0.0,0.0,0.0,0.0,0.0,0.0,0.0,0.0,0.0,0.0,0.0,0.0,0.0,0.0,0.0,0.0,0.0,0.0,0.0,0.0,0.0,0.0,0.0,0.0,0.0,0.0,0.0,0.0,0.0,0.0,0.0,0.0,0.0,0.0,0.0,0.0,0.0,0.0,0.0,0.0,0.0,0.0,0.0,0.0,0.0,0.0,0.0,0.0,0.0,0.0,0.0,0.0,0.0,0.0,0.0,0.0,0.0,0.0,0.0,0.0,0.0,0.0,0.0,0.0,0.0,0.0,0.0,0.0,0.0,0.0,0.0,0.0,0.0,0.0,0.0,0.0,0.0,0.0,0.0,0.0,0.0,0.0,0.0,0.0,0.0,0.0,0.0,0.0,0.0,0.0,0.0,0.0,0.0,0.0,0.0,0.0,0.0,0.0,0.0,0.0,0.0,0.0,0.0,0.0,0.0,0.0,0.0,0.0,0.0,0.0,0.0,0.0,0.0,0.0,0.0,0.0,0.0,0.0,0.0,0.0,0.0,0.0,0.0,0.0,0.0,0.0,0.0,0.0,0.0,0.0,0.0,0.0,0.0,0.0,0.0,0.0,0.0,0.0,0.0,0.0,0.0,0.0,0.0,0.0,0.0,0.0,0.0,0.0,0.0,0.0,0.0,0.0,0.0,0.0,0.0,0.0,0.0,0.0,0.0,0.0,0.0,0.0,0.0,0.0,0.0,0.0,0.0,0.0,0.0,0.0,0.0,0.0,0.0,0.0,0.0,0.0,0.0,0.0,0.0,0.0,0.0,0.0,0.0,0.0,0.0,0.0,0.0,0.0,0.0,0.0,0.0,0.0,0.0,0.0,0.0,0.0,0.0,0.0,0.0,0.0,0.0,0.0,0.0,0.0,0.0,0.0,0.0,0.0,0.0,0.0,0.0,0.0,0.0,0.0,0.0,0.0,0.0,0.0,0.0,0.0,0.0,0.0,0.0,0.0,0.0,0.0,0.0,0.0,0.0,0.0,0.0,0.0,0.0,0.0,0.0,0.0,0.0,0.0,0.0,0.0,0.0,0.0,0.0,0.0,0.0,0.0,0.0,0.0,0.0,0.0,0.0,0.0,0.0,0.0,0.0,0.0,0.0,0.0,0.0,0.0,0.0,0.0,0.0,0.0,0.0,0.0,0.0,0.0,0.0,0.0,0.0,0.0,0.0,0.0,0.0,0.0,0.0,0.0,0.0,0.0,0.0,0.0,0.0,0.0,0.0,0.0,0.0,0.0,0.0,0.0,0.0,0.0,0.0,0.0,0.0,0.0,0.0,0.0,0.0,0.0,0.0,0.0,0.0,0.0,0.0,0.0,0.0,0.0,0.0,0.0,0.0,0.0,0.0,0.0,0.0,0.0,0.0,0.0,0.0,0.0,0.0,0.0,0.0,0.0,0.0,0.0,0.0,0.0,0.0,0.0,0.0,0.0,0.0,0.0,0.0,0.0,0.0,0.0,0.0,0.0,0.0,0.0,0.0,0.0,0.0,0.0,0.0,0.0,0.0,0.0,0.0,0.0,0.0,0.0,0.0,0.0,0.0,0.0,0.0,0.0,0.0,0.0,0.0,0.0,0.0,0.0,0.0,0.0,0.0,0.0,0.0,0.0,0.0,0.0,0.0,0.0,0.0,0.0,0.0,0.0,0.0,0.0,0.0,0.0,0.0,0.0,0.0,0.0,0.0,0.0,0.0,0.0,0.0,0.0,0.0,0.0,0.0,0.0,0.0,0.0,0.0,0.0,0.0,0.0,0.0,0.0,0.0,0.0,0.0,0.0,0.0,0.0,0.0,0.0,0.0,0.0,0.0,0.0,0.0,0.0,0.0,0.0,0.0,0.0,0.0,0.0,0.0,0.0,0.0,0.0,0.0,0.0,0.0,0.0,0.0,1.9729,1.9519,0.0,0.0,0.0,0.0,0.0,0.0,0.0,0.0,0.0,0.0,0.0,0.0,0.0,0.0,0.0,0.0,0.0,0.0,0.0,0.0,0.0,0.0,0.0,0.0,0.0,0.0,0.0,0.0,0.0,0.0,0.0,0.0,0.0,0.0,0.0,0.0,0.0,0.0,0.0,0.0,0.0,0.0,0.0,0.0,0.0,0.0,0.0,0.0,0.0,0.0,0.0,0.0,0.0,0.0,0.0,0.0,0.0,0.0,0.0,0.0,0.0,0.0,0.0,0.0,0.0,0.0,0.0,0.0,0.0,0.0,0.0,0.0,0.0,0.0,0.0,0.0,0.0,0.0,0.0,0.0,0.0,0.0,0.0,0.0,0.0,0.0,0.0,0.0,0.0,0.0,0.0,0.0,0.0,0.0,0.0,0.0,0.0,0.0,0.0,0.0,0.0,0.0,0.0,0.0,0.0,0.0,0.0,0.0,0.0,0.0,0.0,0.0,0.0,0.0,2.1086,2.0568,0.0,0.0,0.0,0.0,0.0,0.0,0.0,0.0,0.0,0.0,0.0,0.0,0.0,0.0,0.0,0.0,0.0,0.0,0.0,0.0,0.0,0.0,0.0,0.0,0.0,0.0,0.0,0.0,0.0,0.0,0.0,0.0,0.0,0.0,0.0,0.0,0.0,0.0,0.0,0.0,0.0,0.0,0.0,0.0,0.0,0.0,0.0,0.0,0.0,0.0,0.0,0.0,0.0,0.0,0.0,0.0,0.0,0.0,0.0,0.0,0.0,0.0,0.0,0.0,0.0,0.0,0.0,0.0,0.0,0.0,0.0,0.0,0.0,0.0,0.0,0.0,0.0,0.0,0.0,0.0,0.0,0.0,0.0,0.0,0.0,0.0,0.0,0.0,0.0,0.0,0.0,0.0,0.0,0.0,0.0,0.0,0.0,0.0,0.0,0.0,0.0,0.0,0.0,0.0,0.0,0.0,0.0,0.0,2.423,2.4297,2.4297,2.4563,2.4663,2.4563,2.2748,2.1819,2.1513,2.0979,0.0,0.0,0.0,0.0,0.0,0.0,0.0,0.0,0.0,0.0,0.0,0.0,0.0,0.0,0.0,0.0,0.0,0.0,0.0,0.0,0.0,0.0,0.0,0.0,0.0,0.0,0.0,0.0,0.0,0.0,0.0,0.0,0.0,0.0,0.0,0.0,0.0,0.0,2.0693,2.0801,2.0801,2.0603,1.85,0.0,0.0,0.0,0.0,0.0,0.0,0.0,0.0,0.0,0.0,0.0,0.0,0.0,0.0,0.0,0.0,0.0,0.0,0.0,0.0,0.0,0.0,0.0,0.0,0.0,0.0,0.0,0.0,0.0,0.0,0.0,0.0,0.0,0.0,0.0,0.0,0.0,0.0,0.0,0.0,0.0,0.0,0.0,1.9445,1.9671,0.0,0.0,0.0,0.0,0.0,0.0,0.0,0.0,0.0,0.0,0.0,0.0,0.0,2.3589,2.3621,2.372,2.3769,2.3769,2.4408,2.472,2.4769,2.5999,2.652,2.6541,2.6372,0.0,2.3773,2.3672,0.0,0.0,0.0,0.0,0.0,0.0,0.0,0.0,0.0,0.0,0.0,0.0,0.0,0.0,0.0,0.0,0.0,0.0,0.0,0.0,0.0,0.0,0.0,0.0,0.0,0.0,0.0,0.0,0.0,0.0,0.0,0.0,0.0,0.0,0.0,0.0,2.0497,2.0981,2.1303,2.1263,2.1225,2.1189,2.0095,1.9649,1.9686,1.886,0.0,0.0,0.0,0.0,0.0,0.0,0.0,0.0,0.0,0.0,0.0,0.0,0.0,0.0,0.0,0.0,0.0,0.0,0.0,0.0,0.0,0.0,0.0,0.0,0.0,0.0,0.0,0.0,0.0,0.0,0.0,0.0,0.0,0.0,0.0,0.0,0.0,0.0,0.0,2.0331,2.105,2.105,2.1728,2.2228,0.0,0.0,0.0,0.0,0.0,0.0,0.0,0.0,0.0,2.4985,2.536,2.5717,2.611,2.6126,2.6126,2.6126,2.6454,2.658,2.6613,2.7234,2.7512,2.7512,2.7591,2.7125,2.628,2.5645,2.518,2.4828,0.0,0.0,0.0,0.0,2.4193,2.4193,0.0,0.0,0.0,0.0,0.0,0.0,0.0,0.0,0.0,0.0,0.0,0.0,0.0,0.0,0.0,1.7251,0.0,0.0,0.0,0.0,0.0,0.0,0.0,0.0,0.0,0.0,0.0,0.0,2.1785,2.2001,2.2177,2.2314,2.2382,2.2382,2.2299,2.1896,2.1209,2.0562,1.997,0.0,0.0,0.0,0.0,0.0,0.0,0.0,0.0,0.0,0.0,0.0,0.0,0.0,0.0,0.0,0.0,0.0,0.0,0.0,0.0,0.0,0.0,0.0,0.0,0.0,0.0,0.0,0.0,0.0,0.0,0.0,0.0,0.0,0.0,0.0,0.0,0.0,0.0,2.1595,2.2512,2.2512,2.3416,2.4083,0.0,0.0,0.0,0.0,0.0,0.0,2.48,2.5304,2.586,2.6384,2.6885,2.7408,2.7931,2.7931,2.7931,2.7931,2.8127,2.8208,2.8225,2.8404,2.8502,2.8486,2.8486,2.8527,2.8412,2.7217,2.6438,2.6011,2.6011,2.5678,2.5179,2.5179,2.5179,2.5179,0.0,0.0,0.0,0.0,0.0,0.0,0.0,0.0,0.0,0.0,0.0,0.0,0.0,0.0,1.8089,1.8139,1.8779,1.9188,0.0,0.0,0.0,0.0,0.0,0.0,0.0,0.0,0.0,2.2332,2.3101,2.383,2.4534,2.5247,2.5569,2.5569,2.5486,2.3857,2.1108,2.1054,2.1019,2.0983,0.0,0.0,0.0,0.0,0.0,0.0,0.0,0.0,0.0,0.0,0.0,0.0,0.0,0.0,0.0,0.0,0.0,0.0,0.0,0.0,0.0,0.0,0.0,0.0,0.0,0.0,0.0,0.0,0.0,0.0,0.0,0.0,0.0,0.0,0.0,0.0,0.0,0.0,0.0,2.3884,2.3852,0.0,0.0,0.0,0.0,2.6711,2.7365,2.7797,2.7781,2.783,2.7856,2.7802,2.7834,2.7826,2.7705,2.7705,2.7705,2.7705,2.8443,2.8767,2.8799,2.9497,2.9805,2.9805,2.9876,2.9903,2.9805,2.8461,2.7879,2.7846,2.7846,2.783,2.7797,2.7797,2.7797,2.7797,0.0,0.0,0.0,0.0,0.0,0.0,0.0,0.0,0.0,0.0,0.0,0.0,0.0,1.7868,1.8397,1.8871,1.9627,2.0036,1.9949,0.0,0.0,0.0,0.0,0.0,0.0,0.0,2.3871,2.4593,2.4879,2.514,2.5344,2.5593,2.5717,2.5666,2.5657,2.5037,2.3927,2.2934,2.2508,2.242,2.1448,2.088,0.0,0.0,0.0,0.0,0.0,0.0,0.0,0.0,0.0,0.0,0.0,0.0,0.0,0.0,0.0,0.0,0.0,0.0,0.0,0.0,0.0,0.0,0.0,0.0,0.0,0.0,0.0,0.0,0.0,0.0,0.0,0.0,0.0,0.0,0.0,0.0,0.0,2.5234,2.5987,0.0,2.6869,2.7093,2.7333,2.7548,2.7793,2.7883,2.7826,2.8705,2.9166,2.8995,2.9899,3.0354,3.0202,3.0202,3.0202,3.0202,3.0475,3.0587,3.0603,3.086,3.0972,3.1019,3.1019,3.1003,3.1017,3.0593,2.9778,2.8715,2.8715,2.842,2.801,2.801,2.801,2.801,0.0,0.0,0.0,0.0,0.0,0.0,0.0,0.0,0.0,0.0,0.0,1.6781,1.8061,1.8411,1.8867,1.963,2.0146,2.0496,2.0698,0.0,0.0,0.0,0.0,0.0,0.0,2.4891,2.5343,2.5768,2.6035,2.6152,2.6091,2.6357,2.6579,2.6772,2.6498,2.6515,2.6629,2.5076,2.429,2.3978,2.2953,2.2251,2.1773,0.0,0.0,0.0,0.0,0.0,0.0,0.0,0.0,0.0,0.0,0.0,0.0,0.0,0.0,0.0,0.0,0.0,0.0,0.0,0.0,0.0,0.0,0.0,0.0,0.0,0.0,0.0,0.0,0.0,0.0,0.0,0.0,0.0,0.0,2.5721,2.6602,2.6602,2.7414,2.8143,2.8617,2.8666,2.8811,2.9189,2.9237,2.9135,2.9033,2.9935,3.039,3.0282,3.1213,3.1678,3.1582,3.1582,3.1582,3.1582,3.1582,3.1582,3.1582,3.1582,3.1582,3.1582,3.1582,3.1582,3.1582,3.1678,3.1032,2.9946,3.0033,2.9783,2.9358,2.9358,2.9358,2.9358,0.0,0.0,0.0,0.0,0.0,0.0,0.0,0.0,0.0,0.0,1.6613,1.7398,1.8139,1.8875,1.9622,2.0418,2.0405,2.068,2.1479,2.2235,0.0,0.0,0.0,0.0,2.5911,2.5879,2.5821,2.5816,2.6579,2.6943,2.6924,2.7685,2.8446,2.9089,2.8323,2.8382,2.8934,2.7379,2.6317,2.5747,2.5641,2.4703,2.336,0.0,0.0,0.0,0.0,0.0,0.0,0.0,0.0,0.0,0.0,0.0,0.0,0.0,0.0,0.0,0.0,0.0,0.0,0.0,0.0,0.0,0.0,0.0,0.0,0.0,0.0,0.0,0.0,0.0,0.0,0.0,0.0,0.0,2.5963,2.7175,2.8076,2.8076,2.8037,2.8542,2.9908,2.9967,3.0461,3.1709,3.1774,3.1726,3.1582,3.1598,3.1614,3.1614,3.1646,3.1662,3.1646,3.1646,3.1646,3.1646,3.1646,3.1646,3.1646,3.1646,3.1646,3.1646,3.1646,3.1646,3.1646,3.1662,3.1646,3.1694,3.1886,3.2012,3.2012,3.2012,3.2012,3.1965,0.0,0.0,0.0,0.0,0.0,0.0,0.0,0.0,0.0,0.0,1.6929,1.7549,1.8923,1.9198,1.9593,2.0349,2.088,2.1497,2.2253,0.0,0.0,0.0,0.0,0.0,2.6623,2.6614,2.7112,2.8163,2.8404,2.8753,2.9276,2.9488,2.9669,2.9818,2.9593,2.9611,2.9755,2.9218,2.8903,2.8531,2.6342,2.5209,2.484,0.0,0.0,0.0,0.0,0.0,0.0,0.0,0.0,0.0,0.0,0.0,0.0,0.0,0.0,0.0,0.0,0.0,0.0,0.0,0.0,0.0,0.0,0.0,0.0,0.0,0.0,0.0,0.0,0.0,0.0,0.0,2.8095,2.8419,2.746,2.8534,2.9404,2.9404,3.0198,3.09,3.1288,3.1196,3.1262,3.1646,3.163,3.163,3.1582,3.2045,3.2267,3.2167,3.2727,3.293,3.2843,3.2843,3.2843,3.2843,3.2843,3.2843,3.2843,3.2843,3.2843,3.2843,3.2843,3.2843,3.2843,3.293,3.2981,3.2886,3.203,3.1726,3.1726,3.1726,3.1726,3.1726,0.0,0.0,0.0,0.0,0.0,0.0,0.0,0.0,0.0,0.0,1.7034,1.7609,1.9206,1.9591,2.0074,2.0806,2.1552,2.231,2.3043,0.0,0.0,0.0,0.0,2.6614,2.7405,2.767,2.8216,2.9077,2.9395,2.977,3.0152,3.0152,3.0296,3.0497,3.0164,3.0149,3.0414,3.0031,2.9859,2.9702,2.7967,2.6865,2.6289,2.6231,2.583,2.5132,2.418,2.3796,2.3578,2.2289,0.0,0.0,0.0,0.0,0.0,0.0,0.0,0.0,0.0,0.0,0.0,0.0,0.0,0.0,0.0,0.0,0.0,0.0,0.0,0.0,0.0,0.0,0.0,0.0,2.9178,2.9661,2.9479,3.0158,3.0674,3.0629,3.1276,3.1839,3.2128,3.2046,3.2125,3.2378,3.241,3.236,3.231,3.2946,3.3312,3.3208,3.3905,3.4286,3.4178,3.3878,3.3719,3.3719,3.3435,3.3309,3.3309,3.3309,3.3309,3.3309,3.3309,3.3467,3.3704,3.381,3.4,3.4197,0.0,0.0,0.0,0.0,3.2444,3.241,0.0,0.0,0.0,0.0,0.0,0.0,0.0,0.0,0.0,0.0,0.0,1.7596,1.9124,1.9963,2.0697,2.1443,2.2239,2.303,0.0,0.0,0.0,2.6942,2.7023,2.7396,2.8177,2.8765,2.9147,2.9251,2.9955,3.0311,3.0337,3.0319,3.0655,3.1183,3.0484,3.0487,3.1011,3.0299,3.0021,3.0021,3.0021,2.9117,2.7761,2.773,2.6827,2.5542,2.5398,2.5224,2.4976,2.4116,0.0,0.0,0.0,0.0,0.0,0.0,0.0,0.0,0.0,0.0,0.0,0.0,0.0,0.0,0.0,0.0,0.0,0.0,0.0,0.0,0.0,0.0,0.0,0.0,2.9836,3.0272,3.1518,3.1935,3.2015,3.1758,3.1773,3.2093,3.2764,3.2828,3.3064,3.3693,3.3741,3.3636,3.353,3.4099,0.0,0.0,0.0,3.5394,3.5394,3.4747,3.4415,3.4415,3.3814,3.3546,3.3546,3.3546,3.3546,3.3546,3.3546,3.3878,3.4415,3.4415,3.4794,3.5324,3.4271,3.3882,3.3882,3.3802,3.3718,3.3562,0.0,0.0,0.0,0.0,0.0,0.0,0.0,0.0,0.0,1.6818,1.7014,1.7582,1.913,1.9965,2.0697,2.1443,2.22,2.3181,0.0,0.0,2.5989,2.6872,2.753,2.8184,2.8817,2.8946,2.9603,3.0788,3.0898,3.1217,3.1777,3.176,3.1795,3.1882,3.1725,3.1742,3.1846,3.1602,3.1497,3.1497,3.1424,3.0595,2.9325,2.9259,2.8655,2.7757,2.6992,2.631,2.5661,2.4816,2.4368,2.416,2.3947,0.0,0.0,0.0,0.0,0.0,0.0,0.0,0.0,0.0,0.0,0.0,0.0,0.0,0.0,0.0,0.0,0.0,0.0,0.0,0.0,3.0974,3.1678,3.2077,3.2215,3.3232,3.3571,3.2524,3.2857,3.3375,3.4075,3.4,3.4248,3.4991,3.5039,3.5039,3.4984,3.511,3.5189,3.5189,3.5315,3.5394,3.5394,3.5252,3.5189,3.5173,3.5047,0.0,3.4984,3.4984,3.4984,3.4984,3.4984,3.5063,3.5189,3.5189,3.5268,3.5363,3.515,3.5094,3.5015,3.4428,3.4153,3.4074,0.0,0.0,0.0,0.0,0.0,0.0,0.0,0.0,0.0,0.0,1.6995,1.7569,1.9102,1.9948,2.0698,2.1442,2.2522,0.0,0.0,2.5604,2.6276,2.7459,2.7802,2.8299,2.8986,2.9361,3.0071,3.1145,3.1497,3.1812,3.2144,3.2108,3.2073,3.1984,3.1984,3.2001,3.1929,3.1802,3.1765,3.1765,3.1688,3.1242,3.0592,3.0195,2.9541,2.8733,2.791,2.7331,2.6819,2.5567,2.5099,2.4968,2.4503,2.4322,2.4227,0.0,0.0,0.0,0.0,0.0,0.0,0.0,0.0,0.0,0.0,0.0,0.0,0.0,0.0,2.9323,0.0,0.0,3.0815,3.1819,3.2517,3.3038,3.3319,3.4286,3.4571,3.3598,3.4054,3.4587,3.4936,3.4897,3.4984,3.5363,3.5394,3.5394,3.5394,3.567,3.5802,3.5802,3.609,3.6205,3.6205,3.5844,3.5655,3.5655,3.531,3.5153,3.5153,3.5153,3.5153,3.5153,3.5153,3.5341,3.5687,3.6064,3.6205,3.6205,3.6205,3.5896,3.5347,3.4841,3.4699,3.4652,0.0,0.0,0.0,0.0,0.0,0.0,0.0,0.0,0.0,0.0,1.6995,1.7569,1.9036,1.9913,2.0753,0.0,0.0,0.0,0.0,2.5786,2.6419,2.8,2.7975,2.8329,2.9198,2.9755,3.048,3.1305,3.1882,3.2108,3.2073,3.2037,3.1984,3.1875,3.1858,3.1802,3.1746,3.1634,3.1596,3.1596,3.15,3.1479,3.1393,3.0854,3.0135,2.9365,2.8732,2.8355,2.7946,2.6505,2.5949,2.5748,2.4895,2.4663,2.468,2.463,2.4611,0.0,0.0,0.0,0.0,0.0,0.0,0.0,0.0,0.0,2.9319,2.9806,3.0304,3.0911,3.1597,3.1771,3.199,3.2688,3.3298,3.3893,3.4431,3.5142,3.5379,3.4778,3.511,3.5442,3.5584,3.5584,3.5647,3.5717,3.5733,3.5733,3.5733,3.6095,3.635,3.635,3.6779,3.7015,3.7015,3.6422,3.6141,3.6126,3.558,3.5315,3.5315,3.5315,3.5315,3.5315,3.5315,3.5627,3.6172,3.6765,3.7015,3.7015,3.7015,3.6491,3.566,3.5373,3.5253,3.5237,0.0,0.0,0.0,0.0,0.0,0.0,0.0,0.0,0.0,0.0,0.0,0.0,0.0,0.0,0.0,0.0,0.0,0.0,2.5693,2.5743,2.6375,2.7943,2.7946,2.8564,2.9948,2.9954,3.0623,3.2092,3.1985,3.193,3.193,3.1856,3.1837,3.18,3.1691,3.1617,3.1617,3.1538,3.1517,3.1517,3.1517,3.1423,3.1295,3.1249,3.0827,3.0233,3.004,2.9454,2.8668,2.7769,2.736,2.7119,2.6314,2.6424,2.6846,2.6788,0.0,2.7535,2.745,2.7365,2.7508,2.8297,2.8902,2.9438,0.0,0.0,3.1294,3.1342,3.1342,3.1499,3.2199,3.2748,3.3293,3.401,3.4668,3.5189,3.5252,3.5868,3.6279,3.62,3.571,3.5631,3.6248,3.6311,3.6506,3.6971,3.7018,3.6974,3.6841,3.6843,3.689,3.689,3.6968,3.7015,3.7015,3.6921,3.689,3.689,3.6812,3.6781,3.6781,3.6781,3.6781,3.6781,3.6781,3.6828,3.689,3.6984,3.7015,3.7015,3.7015,3.6921,3.6763,3.6048,3.5814,3.572,0.0,0.0,0.0,0.0,0.0,0.0,0.0,0.0,0.0,0.0,0.0,0.0,0.0,0.0,0.0,0.0,0.0,0.0,2.5038,2.5435,2.6127,2.7187,2.7578,2.8456,2.9954,2.9939,3.0591,3.202,3.193,3.1875,3.1856,3.1746,3.1654,3.1671,3.1596,3.1538,3.1538,3.1445,3.1368,3.1368,3.1346,3.1269,3.1117,3.1117,3.0948,3.0644,3.0188,2.9724,0.0,0.0,2.8081,2.7919,2.7528,2.7531,2.7646,2.7601,2.7735,0.0,2.8725,2.8807,2.8994,0.0,3.0526,3.0767,3.0991,3.1564,3.2074,3.204,3.2558,3.3192,3.3425,3.4074,3.4604,0.0,3.5537,3.5938,3.588,3.6463,3.6845,3.6742,3.6491,3.6487,3.6814,3.6786,3.6867,3.7089,3.7105,3.7044,3.6999,3.6877,3.68,3.68,3.6739,3.6693,3.6693,3.6693,3.6693,3.6693,3.6693,3.6693,3.6693,3.6693,3.6693,3.6693,3.6693,3.6693,3.6693,3.6693,3.6693,3.6693,3.6693,3.6693,3.6646,3.6459,3.635,3.6304,0.0,0.0,0.0,0.0,0.0,0.0,0.0,0.0,0.0,0.0,0.0,0.0,0.0,0.0,0.0,0.0,0.0,0.0,0.0,2.5232,2.5915,2.6682,2.7326,2.8272,2.9557,2.956,3.0211,3.16,3.1564,3.1649,3.1746,3.1671,3.1579,3.1559,3.1483,3.1462,3.1423,3.1312,3.1274,3.1235,3.1173,3.1072,3.0975,3.0975,3.0912,3.0804,3.0331,3.009,0.0,0.0,2.8655,2.852,2.8227,2.8197,2.8241,2.8192,2.8387,2.8887,2.9862,3.0138,0.0,3.155,3.182,3.1867,3.2133,3.2593,3.297,3.314,3.3909,3.4589,3.4589,3.5189,3.5679,3.5622,3.619,3.6589,3.6428,3.6852,3.7089,3.6999,3.711,3.7203,3.7355,3.7154,3.6999,3.6938,3.6938,3.6877,3.6877,3.6739,3.6662,3.6662,3.6554,3.6492,3.6492,3.6492,3.6492,3.6492,3.6492,3.6492,3.6492,3.6492,3.6492,3.6492,3.6492,3.6492,3.6492,3.6492,3.6492,3.6492,3.6492,3.6492,3.6492,3.66,3.6662,3.66,0.0,0.0,0.0,0.0,0.0,0.0,0.0,0.0,0.0,0.0,0.0,0.0,0.0,0.0,0.0,0.0,0.0,0.0,0.0,2.5232,2.5915,2.6682,2.7286,2.7984,2.8819,2.8647,2.9296,3.082,3.0784,3.1039,3.1617,3.1617,3.1559,3.1517,3.1351,3.1295,3.1295,3.1213,3.1151,3.1015,3.1015,3.0975,3.0912,3.0912,3.0831,3.0733,3.0838,0.0,0.0,2.9672,2.9336,2.9116,2.8279,2.8404,0.0,2.8867,2.9685,3.0762,3.1374,0.0,3.1515,3.218,3.232,3.2633,3.3893,3.4209,3.4431,3.5142,3.5331,3.5363,3.5363,3.5932,3.6348,3.6173,3.6723,3.7118,3.6968,3.6999,3.6999,3.7015,3.7375,3.77,3.77,3.725,3.6938,3.6723,3.6723,3.6662,3.6492,3.6492,3.6492,3.6492,3.6492,3.6492,3.6492,3.6492,3.6492,3.6492,3.6492,3.6492,3.6492,3.6492,3.6492,3.6492,3.6492,3.6492,3.6492,3.6492,3.6492,3.6492,3.6492,3.6492,3.6492,3.6492,3.6492,3.6492,0.0,0.0,0.0,0.0,0.0,0.0,0.0,0.0,0.0,0.0,0.0,0.0,0.0,0.0,0.0,0.0,0.0,0.0,0.0,2.4145,2.5155,2.5825,2.6503,2.743,2.8624,2.8548,2.8985,2.992,3.0385,3.0692,3.0896,3.1227,3.1389,3.1351,3.1291,3.1213,3.1213,3.1095,3.1015,3.0975,3.0952,3.0871,3.079,3.079,3.0667,3.0501,0.0,0.0,0.0,3.0079,2.9871,2.9711,2.9407,2.9745,3.0295,3.0736,3.1035,3.1422,3.1962,0.0,3.2911,3.3541,3.4026,3.4462,3.492,3.5015,3.5094,3.5331,3.5758,3.6074,3.6074,3.651,3.6924,3.6849,3.7008,3.6984,3.68,3.7188,3.7405,3.7358,3.7882,0.0,3.8234,3.8098,3.7959,3.7895,3.788,3.788,3.7831,3.7831,3.7631,3.7169,3.7153,3.6953,3.6492,3.6492,3.6492,3.6492,3.6492,3.6492,3.6492,3.6492,3.6492,3.6492,3.6492,3.6492,3.6492,3.6492,3.6492,3.6492,3.6492,3.6492,3.6492,3.6492,3.6492,3.6492,0.0,0.0,0.0,0.0,0.0,0.0,0.0,0.0,0.0,0.0,0.0,0.0,0.0,0.0,0.0,0.0,0.0,0.0,0.0,0.0,2.466,2.498,2.5932,2.6859,2.7774,2.7962,2.8401,2.911,2.9506,2.9813,3.0035,3.035,3.0649,3.0845,3.084,3.0915,3.1112,3.1032,3.0975,3.0895,3.0871,3.0583,3.0251,3.0211,3.0104,0.0,0.0,0.0,0.0,3.0146,3.006,2.9973,2.9989,3.0344,3.0983,3.1758,3.2125,3.2426,3.2942,3.3604,3.4254,3.4627,3.5047,3.5458,3.5695,3.5758,3.5837,3.609,3.6427,3.6668,3.6668,3.6911,3.7089,3.7013,3.6968,3.6878,3.7002,3.7341,3.7712,3.7831,3.8462,3.8877,0.0,0.0,3.9031,3.8554,3.8508,3.8508,3.8508,3.8508,3.8308,3.7877,3.7861,3.7646,3.7215,3.6969,3.6738,3.6492,3.6492,3.6492,3.6492,3.6492,3.6492,3.6492,3.6492,3.6492,3.6492,3.6492,3.6492,3.6492,3.6492,3.6492,3.6492,3.6492,3.6492,3.6492,0.0,0.0,0.0,0.0,0.0,0.0,0.0,0.0,0.0,0.0,0.0,0.0,0.0,0.0,0.0,0.0,0.0,0.0,0.0,0.0,0.0,2.4304,2.5509,2.6208,2.6243,2.6909,2.7575,2.8282,2.8302,2.8579,2.9143,2.9123,2.944,3.004,3.0057,3.0352,3.0897,3.0874,3.0737,3.0575,3.0575,3.0078,2.931,2.9246,0.0,0.0,0.0,0.0,0.0,0.0,0.0,3.0038,2.9999,3.0367,3.1036,3.2153,3.2942,3.3641,3.4169,3.4857,3.5442,3.5442,3.5473,3.5663,3.6327,3.6485,3.6658,3.7338,3.7329,3.7194,0.0,0.0,3.6938,3.6723,3.6723,3.6894,3.74,3.7523,3.78,0.0,0.0,0.0,0.0,0.0,0.0,3.8708,3.8616,3.8616,3.8616,3.8616,3.86,3.8554,3.8554,3.8539,3.8508,3.7877,3.7215,3.6538,3.6538,3.6522,3.6492,3.6492,3.6492,3.6492,3.6492,3.6492,3.6492,3.6492,3.6492,3.6492,3.6492,3.6492,3.6492,3.6492,3.6492,3.6492,0.0,0.0,0.0,0.0,0.0,0.0,0.0,0.0,0.0,0.0,0.0,0.0,0.0,0.0,0.0,0.0,0.0,0.0,0.0,0.0,0.0,0.0,0.0,0.0,0.0,0.0,0.0,0.0,2.767,2.8237,2.8408,2.8812,2.9113,2.9279,2.9188,2.9215,2.9345,2.9192,2.9115,2.9076,0.0,2.8787,2.8487,0.0,0.0,0.0,0.0,0.0,0.0,0.0,0.0,0.0,0.0,3.1614,3.2137,3.2978,3.3673,3.4121,3.4241,3.5205,3.6169,3.6169,3.6564,3.699,3.7164,3.7212,3.7259,3.7449,3.7329,3.7194,0.0,0.0,0.0,3.6723,3.6616,0.0,3.74,3.7938,0.0,3.9185,0.0,4.0278,4.0278,4.0432,0.0,4.0047,4.0016,4.0016,4.0016,4.0016,3.9785,3.9277,3.9262,3.9016,3.8508,3.8338,3.7923,3.7246,3.7246,3.6984,3.6492,3.6492,3.6492,3.6492,3.6492,3.6492,3.6492,3.6492,3.6492,3.6492,3.6492,3.6492,3.6492,3.6492,3.6414,3.6274,0.0,0.0,0.0,0.0,0.0,0.0,0.0,0.0,0.0,0.0,0.0,0.0,0.0,0.0,0.0,0.0,0.0,0.0,0.0,0.0,0.0,0.0,0.0,0.0,0.0,0.0,0.0,0.0,0.0,0.0,2.7128,2.7742,2.8146,2.8467,2.8395,2.8508,2.8753,2.8641,0.0,0.0,0.0,0.0,0.0,0.0,0.0,0.0,0.0,0.0,0.0,0.0,0.0,3.0826,3.1438,3.1996,3.2593,3.3593,0.0,3.4841,3.5142,3.6042,3.688,3.688,3.718,3.748,3.748,3.7243,3.7006,3.6947,3.6519,0.0,3.6513,3.6335,0.0,0.0,0.0,0.0,3.78,3.8262,3.8877,0.0,4.0293,0.0,4.0524,4.0524,4.0524,4.0524,4.0524,4.0524,4.0524,4.0524,4.0355,3.997,3.9955,3.9631,3.897,3.8954,3.8616,3.7938,3.7938,3.7584,3.6938,3.6938,3.6769,3.6492,3.6492,3.6492,3.6492,3.6492,3.6492,3.6492,3.6492,3.6492,3.6492,3.6414,3.6457,3.6639,0.0,0.0,0.0,0.0,0.0,0.0,0.0,0.0,0.0,0.0,0.0,0.0,0.0,0.0,0.0,0.0,0.0,0.0,0.0,0.0,0.0,0.0,0.0,0.0,0.0,0.0,0.0,0.0,0.0,0.0,0.0,0.0,0.0,0.0,0.0,0.0,0.0,0.0,0.0,0.0,0.0,0.0,0.0,0.0,0.0,0.0,0.0,0.0,0.0,0.0,3.0103,3.0908,3.1261,3.1895,3.2732,3.3963,3.481,3.5552,3.6232,3.6943,3.748,3.748,3.748,3.7449,3.737,3.6864,3.6332,3.6106,0.0,3.5023,3.5453,3.5535,3.5676,3.6261,0.0,3.6969,3.8323,3.8508,3.9016,4.037,4.0524,4.0524,4.0524,4.0524,4.0524,4.0524,4.0524,4.0524,4.0524,4.0524,4.0524,4.0524,4.0524,4.0247,3.9662,3.9647,3.9323,3.8646,3.8646,3.8292,3.7631,3.7631,3.7323,3.6769,3.6769,3.6769,3.6769,3.6769,3.6769,3.6769,3.6769,3.6753,3.669,3.6534,3.6774,3.7212,0.0,0.0,0.0,0.0,0.0,0.0,0.0,0.0,0.0,0.0,1.6938,1.7481,0.0,0.0,0.0,0.0,0.0,0.0,0.0,0.0,0.0,0.0,0.0,0.0,0.0,0.0,0.0,0.0,0.0,0.0,0.0,0.0,0.0,0.0,0.0,0.0,0.0,0.0,0.0,0.0,0.0,0.0,0.0,0.0,0.0,0.0,0.0,0.0,0.0,0.0,2.987,3.1422,3.1421,3.2178,3.3277,3.4051,3.481,3.5552,3.6232,3.6943,3.748,3.748,3.748,3.7322,3.6738,3.6516,0.0,0.0,3.5117,3.4883,3.4891,3.5226,3.5522,3.563,0.0,0.0,0.0,0.0,3.9016,0.0,0.0,4.0524,4.0524,4.0524,0.0,4.0524,4.0524,4.0524,4.0524,4.0524,4.0524,4.0524,4.0524,4.0478,4.0355,4.0355,4.0016,3.9339,3.9339,3.8985,3.8338,3.8338,3.8262,3.8154,3.8154,3.8154,3.8154,3.8154,3.8154,3.8154,3.8154,3.8073,3.7927,3.7862,3.7755,3.7594,0.0,0.0,0.0,0.0,0.0,0.0,0.0,1.5475,1.6232,1.6916,1.7338,1.8001,1.9073,1.917,0.0,0.0,0.0,0.0,0.0,0.0,0.0,0.0,0.0,0.0,0.0,0.0,2.3283,2.3219,0.0,0.0,0.0,2.4802,2.5096,2.5033,0.0,0.0,0.0,0.0,0.0,0.0,0.0,0.0,0.0,0.0,0.0,0.0,0.0,0.0,0.0,0.0,2.9582,3.107,3.1244,3.1969,3.2961,3.3988,3.481,3.5552,3.6232,3.6943,3.7385,3.7022,3.6927,3.6738,3.6042,0.0,0.0,0.0,3.417,3.3902,3.4017,0.0,0.0,0.0,0.0,0.0,0.0,0.0,0.0,0.0,0.0,4.0524,0.0,4.0524,4.0524,4.0524,4.0524,4.0524,4.0524,4.0524,4.0524,4.0524,4.0524,4.0524,4.0524,4.0524,4.037,4.0047,4.0047,3.9693,3.9031,3.9031,3.8846,3.8508,3.8508,3.8508,3.8508,3.8508,3.8508,3.8508,3.8508,3.8361,3.8213,3.8111,3.8137,3.8219,0.0,0.0,0.0,0.0,0.0,0.0,0.0,1.5635,1.6448,1.696,1.7876,1.8669,1.9159,1.92,1.9119,0.0,0.0,0.0,0.0,0.0,0.0,0.0,0.0,0.0,0.0,0.0,0.0,2.2712,2.3244,0.0,0.0,0.0,0.0,0.0,2.4438,2.4382,0.0,0.0,0.0,0.0,0.0,2.4265,0.0,0.0,0.0,0.0,0.0,0.0,0.0,0.0,2.9022,3.0176,3.0814,3.1636,3.2586,3.3893,3.4699,3.5315,3.6011,3.6611,3.6896,3.6342,3.62,3.6026,3.5315,3.4715,0.0,0.0,3.3271,3.2944,3.3147,0.0,0.0,0.0,3.5399,3.5953,0.0,0.0,0.0,0.0,0.0,0.0,4.0524,4.0524,4.0524,4.0524,4.0524,4.0524,4.0524,4.0524,4.0524,4.0524,4.0524,4.0524,4.0524,4.0524,4.0524,4.0524,4.0524,4.0247,3.9739,3.9739,3.9447,3.8939,3.8939,3.8939,3.8939,3.8939,3.8939,3.8954,3.8888,3.8739,3.8589,3.8417,3.8545,3.8843,0.0,0.0,0.0,0.0,0.0,0.0,0.0,1.6143,1.7093,1.7096,1.8434,1.9361,1.9289,1.9248,1.9135,0.0,0.0,0.0,0.0,0.0,0.0,0.0,0.0,0.0,0.0,0.0,0.0,2.279,2.2781,0.0,0.0,0.0,0.0,0.0,0.0,2.4478,2.437,2.4242,0.0,0.0,0.0,0.0,0.0,0.0,0.0,0.0,0.0,0.0,0.0,0.0,0.0,2.8802,3.0068,3.1306,3.2586,3.3893,0.0,0.0,3.5284,3.5537,3.5568,3.5505,3.5489,3.53,3.4557,0.0,0.0,3.317,3.2944,3.2804,3.253,0.0,0.0,0.0,0.0,3.5953,0.0,0.0,0.0,0.0,0.0,0.0,4.0524,4.0524,4.0524,4.0524,4.0524,4.0524,4.0524,4.0524,4.0524,4.0524,4.0524,4.0524,4.0524,4.0524,4.0524,4.0524,4.0524,4.0493,4.0432,4.0432,4.0401,4.0339,4.0339,4.0339,4.0339,4.0339,4.0339,4.027,4.0147,4.0024,3.9813,3.9586,3.9489,3.932,0.0,0.0,0.0,0.0,0.0,0.0,1.4896,1.6199,1.7186,1.7108,1.8508,1.9453,1.9305,1.9248,1.917,0.0,0.0,0.0,0.0,0.0,0.0,0.0,0.0,0.0,0.0,0.0,2.2919,2.2816,2.2764,0.0,0.0,0.0,0.0,0.0,0.0,2.319,2.3089,0.0,0.0,0.0,0.0,0.0,0.0,0.0,0.0,0.0,0.0,0.0,0.0,0.0,0.0,0.0,2.9478,3.0371,0.0,0.0,3.3656,3.4352,3.4652,3.5047,3.5284,3.4841,3.4731,3.4557,3.3862,0.0,3.3571,3.3105,3.2951,3.2843,3.2578,3.2669,0.0,0.0,0.0,0.0,3.6707,0.0,0.0,3.8877,3.9878,0.0,0.0,4.0524,4.0524,4.0524,4.0524,4.0524,4.0524,4.0524,4.0524,4.0524,4.0524,4.0524,4.0524,4.0524,4.0524,4.0524,4.0524,4.0524,4.0524,4.0524,4.0524,4.0524,4.0524,4.0524,4.0524,4.0524,4.0455,4.0401,4.0347,4.0121,3.9839,3.9768,3.9553,3.9424,0.0,0.0,0.0,0.0,0.0,1.4971,1.5226,1.6359,1.7272,1.7467,1.867,1.9468,1.9372,1.9264,1.9186,1.9137,0.0,0.0,0.0,0.0,0.0,0.0,0.0,0.0,0.0,0.0,0.0,2.2868,2.2816,2.2764,0.0,0.0,2.2542,2.2432,0.0,0.0,0.0,0.0,0.0,0.0,0.0,0.0,0.0,0.0,0.0,0.0,0.0,0.0,0.0,0.0,0.0,0.0,0.0,0.0,0.0,0.0,3.2787,3.3688,3.3688,3.4225,3.4652,3.413,3.3988,3.3814,0.0,0.0,3.2877,3.2531,3.2551,3.2516,3.2354,3.2384,3.2782,3.3967,0.0,3.4876,3.603,3.7523,3.8508,0.0,0.0,4.0524,4.0524,4.0524,4.0524,4.0524,4.0524,4.0524,4.0524,4.0524,4.0524,4.0524,4.0524,4.0524,4.0524,4.0524,4.0524,4.0524,4.0524,4.0524,4.0524,4.0524,4.0524,4.0524,4.0524,4.0524,4.0524,4.0524,4.0401,4.0277,4.0207,3.998,3.9681,3.9625,3.9553,3.9424,0.0,0.0,0.0,0.0,0.0,0.0,0.0,1.6726,1.7489,1.828,1.905,1.9501,1.9501,1.9314,1.9202,1.9202,0.0,0.0,0.0,0.0,0.0,0.0,0.0,0.0,0.0,0.0,0.0,2.2995,2.2868,2.2816,2.279,2.2659,2.2552,2.2487,0.0,0.0,0.0,0.0,0.0,0.0,0.0,0.0,0.0,0.0,0.0,0.0,0.0,0.0,0.0,0.0,0.0,0.0,0.0,0.0,0.0,0.0,3.1729,3.2349,3.2349,3.2803,3.3324,3.3309,3.3309,3.3135,0.0,0.0,3.2092,3.1196,3.142,3.1784,3.1641,3.206,3.2613,3.3306,3.3998,0.0,3.5399,3.723,0.0,0.0,0.0,4.0524,4.0524,4.0524,4.0524,4.0524,4.0524,4.0524,4.0524,4.0524,4.0524,4.0524,4.0524,4.0524,4.0524,4.0524,4.0524,4.0524,4.0524,4.0524,4.0524,4.0524,4.0524,4.0524,4.0524,4.0524,4.0524,4.0524,4.0401,4.0277,4.0066,3.9854,3.9696,3.9496,3.9424,3.9424,0.0,0.0,0.0,0.0,0.0,0.0,0.0,1.6726,1.7489,1.828,1.905,1.9501,1.9501,1.9363,1.9251,1.92,0.0,0.0,0.0,0.0,0.0,0.0,0.0,0.0,0.0,0.0,0.0,0.0,0.0,2.2825,2.2816,2.2712,2.2632,2.2569,2.2515,2.2432,0.0,0.0,0.0,0.0,0.0,0.0,0.0,0.0,0.0,0.0,0.0,0.0,0.0,0.0,0.0,0.0,0.0,0.0,0.0,0.0,0.0,0.0,3.1555,3.1713,3.1871,3.1871,3.1871,3.1823,3.1602,0.0,3.1492,3.1205,3.1542,3.1925,3.1768,3.2168,3.2739,3.329,3.3998,3.4706,0.0,0.0,0.0,3.8508,3.9708,4.0524,4.0524,4.0524,4.0524,4.0524,4.0524,4.0524,4.0524,4.0524,4.0524,4.0524,4.0524,4.0524,4.0524,4.0524,4.0524,4.0524,4.0524,4.0524,4.0524,4.0524,4.0524,4.0524,4.0524,4.0524,4.0524,4.0524,4.0331,4.0066,3.9996,3.9783,3.9481,3.9409,3.9424,3.9424,0.0,0.0,0.0,0.0,0.0,0.0,0.0,1.6932,1.7601,1.874,1.9249,1.9497,1.9501,1.9375,1.9264,1.9219,0.0,0.0,0.0,0.0,0.0,0.0,0.0,0.0,0.0,0.0,0.0,0.0,0.0,0.0,0.0,2.2764,2.2685,2.2605,2.2569,0.0,0.0,0.0,0.0,0.0,0.0,0.0,2.1847,0.0,0.0,0.0,0.0,0.0,0.0,0.0,0.0,0.0,0.0,0.0,0.0,0.0,2.9132,3.0196,0.0,3.1018,3.1223,3.1223,3.1223,0.0,0.0,0.0,3.0749,3.048,3.1042,3.1585,3.1446,3.2066,3.281,3.329,3.3998,3.4706,0.0,0.0,0.0,3.9216,4.0016,4.0524,4.0524,4.0524,4.0524,4.0524,4.0524,4.0524,4.0524,4.0524,4.0524,4.0524,4.0524,4.0524,4.0524,4.0524,4.0524,4.0524,4.0524,4.0524,4.0524,4.0524,4.0524,4.0524,4.0524,4.0524,0.0,4.047,4.0277,3.9996,3.9925,3.9711,3.9424,3.9424,3.9424,3.9424,0.0,0.0,0.0,0.0,0.0,0.0,0.0,0.0,1.7819,1.9481,1.9587,1.9522,1.9497,1.9387,1.9277,1.92,0.0,0.0,0.0,0.0,0.0,0.0,0.0,0.0,0.0,0.0,0.0,2.3193,2.307,2.297,2.2919,0.0,2.2738,2.2605,2.2605,0.0,0.0,0.0,0.0,0.0,0.0,0.0,0.0,0.0,0.0,0.0,0.0,0.0,0.0,0.0,0.0,0.0,0.0,0.0,0.0,0.0,0.0,0.0,0.0,3.0543,0.0,0.0,0.0,0.0,0.0,0.0,0.0,0.0,3.0146,3.0989,3.09,3.1818,3.281,3.3347,3.4014,3.4706,0.0,3.723,0.0,0.0,4.0524,4.0524,4.0524,4.0524,4.0524,4.0524,4.0524,4.0524,4.0524,4.0524,4.0524,4.0524,4.0524,4.0524,4.0524,4.0524,4.0524,4.0524,4.0524,4.0524,4.0524,4.0524,4.0524,4.0524,4.0524,4.0524,4.0455,4.0347,4.0207,3.9996,3.9768,3.9553,3.9424,3.9424,3.9424,3.9424,0.0,0.0,0.0,0.0,0.0,0.0,0.0,0.0,0.0,0.0,1.9638,1.9555,1.9516,1.9438,1.936,0.0,0.0,0.0,0.0,0.0,0.0,0.0,0.0,0.0,0.0,0.0,0.0,2.3193,2.307,2.2995,2.2952,2.2868,0.0,0.0,0.0,0.0,0.0,0.0,0.0,0.0,0.0,0.0,0.0,0.0,0.0,0.0,2.2456,2.2769,0.0,0.0,0.0,0.0,0.0,0.0,0.0,0.0,2.7256,2.7753,2.8465,0.0,2.9564,2.9564,2.9564,2.9533,0.0,0.0,0.0,0.0,0.0,3.1281,3.1632,3.2357,3.3006,3.3547,3.4129,3.4706,3.5383,0.0,0.0,4.037,4.0524,4.0524,4.0524,4.0524,4.0524,4.0524,4.0524,4.0524,4.0524,4.0524,4.0524,4.0524,4.0524,4.0524,4.0524,4.0524,4.0524,4.0524,4.0524,4.0524,4.0524,4.0524,4.0524,4.0524,4.0524,4.0524,4.0455,4.0347,4.0207,3.9996,3.9768,3.9553,3.9424,3.9424,3.9424,3.9424,0.0,0.0,0.0,0.0,0.0,0.0,0.0,0.0,0.0,0.0,0.0,0.0,0.0,0.0,0.0,0.0,0.0,0.0,0.0,0.0,0.0,0.0,0.0,0.0,0.0,0.0,0.0,0.0,0.0,2.307,0.0,0.0,0.0,0.0,0.0,0.0,0.0,0.0,0.0,0.0,2.2044,0.0,0.0,0.0,0.0,0.0,2.2092,2.2343,0.0,2.2931,2.3481,2.4078,0.0,0.0,0.0,0.0,2.6728,2.7176,2.7969,2.8392,2.8726,2.8996,2.9075,2.9075,0.0,0.0,0.0,0.0,0.0,0.0,3.1887,3.2504,3.317,3.4038,3.4345,0.0,0.0,0.0,3.9016,4.037,4.0524,4.0524,4.0524,4.0524,4.0524,4.0524,4.0524,4.0524,4.0524,4.0524,4.0524,4.0524,4.0524,4.0524,4.0524,4.0524,4.0524,4.0524,4.0524,4.0524,4.0524,4.0524,4.0524,4.0524,4.0524,4.0524,4.0455,4.0347,4.0207,3.9996,3.9768,3.9553,3.9424,3.9424,3.9424,3.9424,0.0,0.0,0.0,0.0,0.0,0.0,0.0,0.0,0.0,0.0,0.0,0.0,0.0,0.0,0.0,0.0,0.0,0.0,0.0,0.0,0.0,0.0,0.0,0.0,0.0,0.0,0.0,0.0,0.0,0.0,0.0,0.0,2.2944,0.0,0.0,0.0,0.0,0.0,0.0,0.0,2.2089,0.0,0.0,0.0,0.0,0.0,0.0,0.0,0.0,2.2361,2.2801,2.3464,2.4162,0.0,0.0,0.0,0.0,0.0,2.7758,2.8009,2.817,2.8932,2.9075,2.9075,0.0,0.0,0.0,0.0,0.0,0.0,0.0,0.0,0.0,0.0,0.0,0.0,3.8154,3.8508,3.9016,4.037,4.0524,4.0524,4.0524,4.0524,4.0524,4.0524,4.0524,4.0524,4.0524,4.0524,4.0524,4.0524,4.0524,4.0524,4.0524,4.0524,4.0524,4.0524,4.0524,4.0524,4.0524,4.0524,4.0524,4.0524,4.0524,4.0524,4.0455,4.0347,4.0207,3.9996,3.9768,3.9553,3.9424,3.9424,3.9424,3.9424,0.0,0.0,0.0,0.0,0.0,0.0,0.0,0.0,0.0,0.0,0.0,0.0,0.0,0.0,0.0,0.0,0.0,0.0,0.0,0.0,0.0,0.0,0.0,0.0,0.0,0.0,0.0,0.0,0.0,0.0,2.3168,2.3052,2.2944,2.279,0.0,0.0,0.0,0.0,0.0,0.0,2.2197,0.0,0.0,0.0,0.0,0.0,0.0,0.0,0.0,2.1611,2.2037,2.2769,2.3432,0.0,0.0,0.0,0.0,0.0,2.7182,2.7423,2.764,2.8805,2.9075,2.9075,0.0,0.0,0.0,0.0,0.0,0.0,0.0,3.345,3.402,0.0,0.0,3.6722,3.8292,3.8508,3.9016,4.037,4.0524,4.0524,4.0524,4.0524,4.0524,4.0524,4.0524,4.0524,4.0524,4.0524,4.0524,4.0524,4.0524,4.0524,4.0524,4.0524,4.0524,4.0524,4.0524,4.0524,4.0524,4.0524,4.0524,4.0524,4.0524,4.0524,4.0455,4.0347,4.0207,3.9996,3.9768,3.9553,3.9424,3.9424,3.9424,3.9424,0.0,0.0,0.0,0.0,0.0,0.0,0.0,0.0,0.0,0.0,0.0,0.0,0.0,0.0,0.0,0.0,0.0,0.0,0.0,0.0,0.0,0.0,0.0,0.0,0.0,0.0,0.0,0.0,0.0,2.3241,2.3193,2.3045,2.2902,2.2868,0.0,0.0,0.0,0.0,0.0,0.0,0.0,0.0,0.0,0.0,0.0,0.0,0.0,0.0,0.0,0.0,2.1693,2.202,2.2686,0.0,0.0,0.0,0.0,0.0,2.7089,2.739,2.7599,2.891,2.9167,0.0,0.0,0.0,0.0,0.0,0.0,0.0,0.0,0.0,3.4213,3.5066,0.0,3.7384,3.8369,3.8831,3.9416,4.0416,4.0524,4.0524,4.0524,4.0524,4.0524,4.0524,4.0524,4.0524,4.0524,4.0524,4.0524,4.0524,4.0524,4.0524,4.0524,4.0524,4.0524,4.0524,4.0524,4.0524,4.0524,4.0524,4.0524,4.0524,4.0524,4.0524,4.0539,4.047,4.0331,4.0137,3.9925,3.9768,3.9553,3.9424,3.9424,3.9424,0.0,0.0,0.0,0.0,0.0,0.0,0.0,0.0,0.0,0.0,0.0,0.0,0.0,0.0,0.0,0.0,0.0,0.0,0.0,0.0,2.1879,2.2654,2.3412,0.0,0.0,0.0,2.3539,2.3407,2.336,2.3289,2.3193,2.302,2.2919,2.2876,0.0,0.0,0.0,0.0,0.0,0.0,0.0,0.0,0.0,0.0,0.0,0.0,0.0,0.0,0.0,0.0,0.0,0.0,0.0,0.0,0.0,2.4288,2.5017,2.5885,2.717,2.7432,2.77,2.9,0.0,0.0,0.0,0.0,0.0,0.0,0.0,0.0,0.0,3.4312,0.0,3.5582,3.6722,3.7738,3.8415,3.9093,3.977,4.0447,4.0524,4.0524,4.0524,4.0524,4.0524,4.0524,4.0524,4.0524,4.0524,4.0524,4.0524,4.0524,4.0524,4.0524,4.0524,4.0524,4.0524,4.0524,4.0524,4.0524,4.0524,4.0524,4.0524,4.0524,4.0524,4.0524,4.0524,4.0524,4.0401,4.0277,4.0137,3.9925,3.9696,3.9481,3.9424,3.9424,0.0,0.0,0.0,0.0,0.0,0.0,0.0,0.0,0.0,0.0,0.0,0.0,0.0,0.0,0.0,0.0,0.0,0.0,0.0,0.0,2.1917,2.2677,2.3417,0.0,0.0,2.3629,2.3562,2.3494,2.3424,2.3313,2.3193,2.307,2.297,2.2893,0.0,0.0,0.0,0.0,0.0,0.0,0.0,0.0,0.0,0.0,0.0,0.0,0.0,0.0,0.0,0.0,0.0,0.0,0.0,0.0,2.3643,2.4288,2.5017,2.5885,2.717,2.7432,2.77,2.9,0.0,0.0,0.0,0.0,0.0,0.0,0.0,0.0,0.0,3.508,3.5898,3.6353,3.703,3.7738,3.8415,3.9093,3.977,4.0447,4.0524,4.0524,4.0524,4.0524,4.0524,4.0524,4.0524,4.0524,4.0524,4.0524,4.0524,4.0524,4.0524,4.0524,4.0524,4.0524,4.0524,4.0524,4.0524,4.0524,4.0524,4.0524,4.0524,4.0524,4.0524,4.0524,4.0524,4.0524,4.0401,4.0277,4.0277,4.0051,3.9696,3.9481,3.9424,3.9424,0.0,0.0,0.0,0.0,0.0,0.0,0.0,0.0,0.0,0.0,0.0,0.0,0.0,0.0,0.0,0.0,0.0,0.0,0.0,0.0,2.1189,2.1915,2.2692,2.3319,2.3743,2.3696,2.3607,2.3494,2.3383,2.3289,2.3193,2.3052,0.0,0.0,0.0,0.0,0.0,0.0,0.0,0.0,0.0,0.0,0.0,0.0,0.0,0.0,0.0,0.0,0.0,0.0,2.1664,2.1638,2.1791,2.2589,2.3562,2.3821,2.4693,2.5885,2.7252,2.7515,2.7838,2.9617,0.0,0.0,0.0,0.0,0.0,0.0,0.0,0.0,0.0,0.0,3.6691,3.7062,3.7692,3.8369,3.9046,3.9724,4.0247,4.0493,4.0524,4.0524,4.0524,4.0524,4.0524,4.0524,4.0524,4.0524,4.0524,4.0524,4.0524,4.0524,4.0524,4.0524,4.0662,4.0662,4.0746,4.0898,4.0608,4.0524,4.0524,4.0524,4.0524,4.0524,4.0524,4.0524,4.0524,4.0524,4.0455,4.0401,4.0331,4.0051,3.9681,3.961,3.9481,3.9424,0.0,0.0,0.0,0.0,0.0,0.0,0.0,0.0,0.0,0.0,0.0,0.0,0.0,0.0,0.0,0.0,0.0,0.0,0.0,0.0,2.0733,2.1498,2.2276,2.305,2.3786,2.3721,2.3634,2.3539,2.3378,2.3265,2.3241,0.0,0.0,0.0,0.0,0.0,0.0,0.0,0.0,0.0,2.2349,2.2254,0.0,0.0,0.0,0.0,0.0,0.0,0.0,0.0,2.1664,2.1589,2.1495,2.2248,2.3221,2.3448,2.4321,2.5616,2.7251,2.7557,2.7902,0.0,0.0,0.0,0.0,0.0,0.0,0.0,3.4652,0.0,0.0,0.0,0.0,3.7463,3.8061,3.8739,3.9431,4.0108,4.0524,4.0524,4.0524,4.0524,4.0524,4.0524,4.0524,4.0524,4.0524,4.0524,4.0524,4.0524,4.0524,4.0593,4.0393,4.0353,4.0541,4.0324,4.0298,4.0446,4.0163,4.0245,4.0677,4.0593,4.0593,4.0593,4.0524,4.0524,4.0524,4.0524,4.0524,4.0455,4.0331,4.0121,3.991,3.9768,3.9625,3.9496,0.0,0.0,0.0,0.0,0.0,0.0,0.0,0.0,0.0,0.0,0.0,0.0,0.0,0.0,0.0,0.0,0.0,0.0,0.0,1.9981,2.0751,2.1553,0.0,2.3032,2.3768,2.3721,2.3674,2.3585,2.3383,2.3289,2.3289,2.3168,0.0,0.0,0.0,0.0,0.0,0.0,0.0,0.0,2.2349,2.2254,2.2185,0.0,0.0,0.0,0.0,0.0,0.0,0.0,2.1724,2.1589,2.1589,2.1955,2.2539,2.3302,2.3948,2.4952,2.7122,2.7557,2.7918,0.0,0.0,0.0,0.0,0.0,0.0,0.0,0.0,3.6526,3.6951,3.7015,3.711,3.7463,3.8077,3.8754,3.9431,4.0108,4.0524,4.0524,4.0524,4.0524,4.0524,4.0524,4.0524,4.0524,4.0524,4.0524,4.0524,4.0524,4.0578,4.0768,4.0148,3.9874,4.001,3.9339,3.9011,3.8996,3.8996,3.9729,4.1086,4.0851,4.0768,4.0783,4.0578,4.0524,4.0524,4.0524,4.0524,4.0455,4.0331,4.0277,4.0277,3.9824,3.9681,3.9696,0.0,0.0,0.0,0.0,0.0,0.0,0.0,0.0,0.0,0.0,0.0,0.0,0.0,0.0,0.0,0.0,0.0,0.0,0.0,0.0,1.9913,2.0715,0.0,0.0,0.0,2.3473,2.3634,2.3539,2.3378,2.3289,0.0,0.0,0.0,2.2893,0.0,0.0,0.0,0.0,0.0,0.0,2.2349,2.2282,2.2254,0.0,0.0,0.0,0.0,0.0,0.0,0.0,0.0,0.0,2.1589,2.1955,2.2539,2.3302,2.3948,2.4952,2.7122,2.7557,0.0,0.0,0.0,0.0,0.0,0.0,0.0,0.0,3.6516,3.7109,3.7029,3.7015,3.7266,3.8095,3.8385,3.8908,4.0062,4.0401,4.0524,4.0524,4.0524,4.0524,4.0524,4.0524,4.0524,4.0524,4.0524,4.0324,3.9847,3.9899,3.9833,3.942,3.9318,3.9323,3.9532,3.9328,3.9282,3.9377,3.9377,3.9471,3.9635,3.9554,3.9554,3.9586,4.0002,4.0086,4.0013,4.0339,4.0524,4.0539,4.047,4.0401,4.0277,4.0207,3.991,3.9681,0.0,0.0,0.0,0.0,0.0,0.0,0.0,0.0,0.0,0.0,0.0,0.0,0.0,0.0,0.0,0.0,0.0,0.0,0.0,0.0,1.9549,2.0368,2.0789,2.1531,2.2592,2.2998,2.3267,2.3471,2.336,0.0,0.0,0.0,0.0,2.2893,0.0,2.2842,0.0,0.0,2.2515,2.2487,2.2349,2.2282,2.2254,0.0,0.0,0.0,0.0,0.0,0.0,0.0,0.0,0.0,2.1589,0.0,2.2167,2.3221,2.3805,2.4612,2.7041,0.0,0.0,0.0,0.0,0.0,0.0,0.0,0.0,0.0,3.7121,3.7285,3.7076,3.6938,3.7173,3.8003,3.8338,3.8893,3.997,4.0355,4.0524,4.0524,4.0524,4.0432,4.0155,4.0124,4.0016,3.9754,3.9724,3.9554,3.9221,3.9354,3.9299,3.9009,3.8825,3.8795,3.8952,3.8747,3.8605,3.8697,3.8697,3.8574,3.8404,3.8905,3.9091,3.9107,3.9448,3.9726,3.9905,4.0158,4.0415,4.0593,4.0593,4.0524,4.0401,4.0347,4.0121,3.991,0.0,0.0,0.0,0.0,0.0,0.0,0.0,0.0,0.0,0.0,0.0,0.0,0.0,0.0,0.0,0.0,0.0,0.0,0.0,0.0,1.953,2.0259,2.0281,2.095,2.2345,2.2413,2.2704,2.3277,2.3301,0.0,0.0,0.0,2.3003,2.2893,0.0,2.2816,2.2685,2.2552,2.2487,2.2487,2.2366,2.2254,2.2185,2.2044,0.0,0.0,0.0,0.0,0.0,0.0,0.0,0.0,2.1589,2.145,2.16,2.3091,2.3513,2.4129,2.6944,0.0,0.0,0.0,0.0,0.0,3.4778,3.5394,3.5789,3.7196,0.0,3.7134,3.6999,3.6862,3.6879,3.7384,3.8015,3.8646,3.9323,3.9955,4.0339,4.0339,4.0339,4.0108,3.9493,3.9431,3.917,3.8554,3.8508,3.8558,3.8722,3.8722,3.8869,3.9125,3.8466,3.8197,3.8428,3.7796,3.748,3.748,3.748,3.748,3.7528,3.8606,3.9157,3.9219,3.8982,3.9292,3.9947,3.9994,4.0266,4.0706,4.0768,4.073,4.0524,4.0401,4.0347,4.0261,0.0,0.0,0.0,0.0,0.0,0.0,0.0,0.0,0.0,0.0,0.0,0.0,0.0,0.0,0.0,0.0,0.0,0.0,0.0,0.0,1.9275,1.9439,1.9956,2.0642,2.1538,2.2108,2.2418,2.2465,2.3017,0.0,0.0,0.0,0.0,2.2893,0.0,2.2738,2.2623,2.2525,2.246,2.2405,2.2338,2.2254,2.2185,2.2044,2.1969,0.0,0.0,0.0,0.0,0.0,0.0,0.0,2.1589,2.145,2.16,2.3091,2.3513,2.4129,0.0,2.7557,0.0,0.0,0.0,0.0,3.4999,3.5394,3.5789,3.7196,3.7329,3.7134,3.6999,3.6862,3.6879,3.7384,3.7631,3.7954,3.8631,3.8846,3.8939,3.8939,3.8939,3.8893,3.8739,3.8723,3.8662,3.8523,3.8654,3.8487,3.7994,3.8216,3.8137,3.7665,3.7644,3.7701,3.7701,3.7559,3.748,3.748,3.748,3.748,3.7496,3.778,3.8162,3.8683,3.845,3.878,3.9501,3.9888,4.0053,4.024,4.0816,4.0882,4.073,4.073,4.0539,4.0277,0.0,0.0,0.0,0.0,0.0,0.0,0.0,0.0,0.0,0.0,0.0,0.0,0.0,0.0,0.0,0.0,0.0,0.0,0.0,0.0,0.0,0.0,1.9433,1.9939,2.0711,2.1064,2.1554,0.0,0.0,0.0,0.0,0.0,0.0,2.2893,0.0,2.2738,2.2596,2.2542,2.246,2.2377,2.2282,2.218,2.2106,2.1986,2.1911,2.184,2.1811,0.0,0.0,0.0,0.0,0.0,0.0,0.0,2.16,2.3091,2.3513,2.4029,0.0,0.0,0.0,0.0,0.0,0.0,3.4557,3.5142,3.5695,3.6636,3.699,3.7029,3.6862,3.6739,3.6724,3.6953,3.7292,3.7631,3.7984,3.8308,3.8508,3.8508,3.8508,3.8385,3.8061,3.8031,3.7892,3.7697,3.7745,3.7701,3.7437,3.7606,3.7631,3.7345,3.7464,3.748,3.748,3.748,3.7539,3.7599,3.7599,3.7658,3.77,3.7539,3.767,3.8017,3.7941,3.8275,3.8968,3.9172,3.9642,4.0203,4.0579,4.079,4.095,4.095,4.0746,4.0539,0.0,0.0,0.0,0.0,0.0,0.0,0.0,0.0,0.0,0.0,0.0,0.0,0.0,0.0,0.0,0.0,0.0,0.0,0.0,0.0,0.0,0.0,1.8966,1.9219,1.9865,1.9951,2.0548,0.0,0.0,0.0,0.0,0.0,0.0,2.2893,0.0,2.2685,2.2579,2.2515,2.2432,2.2366,2.2254,2.2106,2.1982,2.1928,2.1869,2.1797,2.1797,2.1797,2.1797,2.1708,0.0,0.0,0.0,0.0,2.16,2.3091,2.3513,2.3948,0.0,0.0,0.0,0.0,3.1744,0.0,3.3972,3.4762,3.5386,3.6032,3.6576,3.6938,3.6723,3.66,3.6492,3.6492,3.6969,3.7323,3.7323,3.78,3.8154,3.8154,3.8154,3.7938,3.7384,3.7323,3.7155,3.6693,3.6769,3.6892,3.7194,3.7254,3.7329,3.748,3.748,3.7539,3.7539,3.7539,3.7599,3.7759,3.7759,3.7817,3.7876,3.7642,3.7599,3.7599,3.7599,3.7856,3.8394,3.8521,3.9109,4.0022,4.0273,4.0598,4.1013,4.1055,4.1018,4.0867,0.0,0.0,0.0,0.0,0.0,0.0,0.0,0.0,0.0,0.0,0.0,0.0,0.0,0.0,0.0,0.0,0.0,0.0,1.9316,0.0,0.0,1.9019,1.8948,1.895,1.9058,1.9626,1.9972,0.0,0.0,0.0,0.0,0.0,0.0,2.2816,0.0,0.0,2.2515,2.2432,2.2377,2.231,2.2242,2.2106,2.1982,2.1928,2.1869,0.0,0.0,2.1797,2.1797,2.1708,2.1664,0.0,0.0,0.0,2.16,2.3091,2.3513,2.3948,0.0,0.0,0.0,0.0,3.1744,3.2665,0.0,0.0,3.4603,3.5716,3.6516,3.6938,3.6723,3.66,3.6492,3.6492,3.6569,3.663,3.663,3.6707,3.6769,3.6769,3.6769,3.6722,3.663,3.6739,3.6755,3.6723,3.6952,3.7134,3.7194,3.7389,3.748,3.748,3.748,3.7539,3.7642,3.7642,3.7759,3.7876,3.7876,3.7876,3.7876,3.7876,3.7876,3.7876,3.7876,3.7924,3.8009,3.8464,3.8753,3.9039,4.0103,4.0511,4.0507,4.1037,4.1221,4.1034,0.0,0.0,0.0,0.0,0.0,0.0,0.0,0.0,0.0,0.0,0.0,0.0,0.0,0.0,0.0,1.9424,1.9344,1.9264,1.9182,1.9101,1.9035,1.8984,1.8931,1.8878,1.8843,1.9108,0.0,0.0,0.0,0.0,0.0,2.2546,2.2842,0.0,0.0,0.0,0.0,0.0,2.2338,2.2225,2.2135,2.2015,2.194,0.0,0.0,0.0,0.0,0.0,0.0,2.1664,2.1573,2.1464,2.1371,0.0,0.0,0.0,2.3104,0.0,2.6262,0.0,0.0,0.0,3.116,3.1934,3.2809,3.3574,3.4203,3.4602,3.5229,3.5885,3.6461,3.6554,3.6492,3.6492,3.6492,3.6492,3.6492,3.6492,3.6492,3.6492,3.6492,3.6554,3.66,3.6662,3.6785,3.6952,3.7134,3.7254,3.7329,3.7464,3.748,3.748,3.7583,3.7642,3.77,3.7759,3.7876,3.8049,3.8164,3.8164,3.8164,3.8164,3.8107,3.7876,3.7876,3.7876,3.7892,3.8136,3.8487,3.8918,3.9495,4.0087,4.0609,4.0909,4.1075,4.1205,0.0,0.0,0.0,0.0,0.0,0.0,0.0,0.0,0.0,0.0,0.0,0.0,0.0,0.0,0.0,0.0,1.9332,1.9232,1.9115,1.9052,1.8984,1.8984,1.8932,1.8861,1.8788,1.8697,0.0,0.0,0.0,0.0,2.1485,2.2175,2.2591,0.0,2.2649,0.0,0.0,0.0,0.0,0.0,0.0,2.194,0.0,0.0,0.0,0.0,0.0,0.0,0.0,0.0,0.0,2.1386,2.1309,2.1309,0.0,0.0,0.0,0.0,0.0,0.0,2.7557,2.9437,3.0433,3.1126,0.0,0.0,3.3552,3.365,3.4074,3.4728,3.5814,3.6122,3.6245,3.6245,3.6384,3.6492,3.6492,3.6492,3.6492,3.6492,3.6492,3.6554,3.6662,3.6723,3.6907,3.7194,3.7081,3.7062,3.7212,3.7038,3.7001,3.7001,3.7277,3.7488,3.7562,3.7838,3.8107,3.8221,3.8408,3.8448,3.8448,3.8504,3.8391,3.8148,3.8049,3.8049,3.8049,3.7992,3.8296,3.8809,3.8926,3.9681,4.0594,4.0785,4.1149,4.1472,0.0,0.0,0.0,0.0,0.0,0.0,0.0,0.0,0.0,0.0,0.0,0.0,0.0,1.9453,1.9375,1.9316,1.9301,1.9232,1.9115,1.9052,1.8984,1.8913,1.8896,0.0,1.8715,0.0,0.0,0.0,0.0,0.0,2.0581,2.1322,2.2014,2.2623,2.2542,2.246,2.2394,0.0,0.0,0.0,0.0,0.0,0.0,0.0,0.0,0.0,0.0,0.0,0.0,0.0,0.0,0.0,0.0,0.0,2.1455,0.0,0.0,0.0,0.0,2.6677,0.0,2.8791,2.9706,0.0,0.0,3.1972,3.2251,3.3448,3.3558,3.369,3.4445,3.5106,3.5537,3.5537,3.6076,3.6492,3.6492,3.6492,3.6492,3.6492,3.6492,3.6554,3.6662,3.6862,3.7044,3.7194,3.6715,3.6427,3.6485,3.5853,3.5561,3.5713,3.6333,3.6781,3.711,3.7939,3.8391,3.8391,3.852,3.8576,3.856,3.8711,3.875,3.875,3.8488,3.8391,3.8335,3.8237,3.8196,3.8293,3.8793,3.9438,4.0142,4.0846,4.1422,4.1833,0.0,0.0,0.0,0.0,0.0,0.0,0.0,0.0,0.0,0.0,0.0,0.0,0.0,1.9684,1.9326,1.9298,1.9216,1.9134,1.9034,1.8966,1.8913,1.8896,1.8825,1.8715,1.8641,0.0,0.0,0.0,0.0,1.9807,2.0459,2.1179,2.1876,2.246,2.2432,2.2405,2.2338,2.2225,0.0,0.0,0.0,0.0,0.0,0.0,0.0,0.0,0.0,0.0,0.0,0.0,0.0,0.0,0.0,0.0,0.0,0.0,0.0,0.0,0.0,0.0,0.0,2.811,2.8933,2.9596,3.0407,3.0818,3.1275,3.2044,3.2175,3.2321,3.3013,3.4075,3.4845,3.4845,3.5045,3.5199,3.5199,3.5199,3.5199,3.5199,3.5303,3.5422,3.5525,3.5701,3.5817,3.6006,3.59,3.5758,3.5758,3.5633,3.5546,3.5602,3.5991,3.6564,3.7213,3.7605,3.8089,3.8504,3.8655,3.8711,3.8711,3.8805,3.8805,3.8805,3.8711,3.8655,3.8655,3.8583,3.8544,3.848,3.8683,3.9027,3.9558,4.028,4.094,4.1422,0.0,0.0,0.0,0.0,0.0,0.0,0.0,0.0,0.0,0.0,0.0,0.0,0.0,0.0,2.0085,2.0038,1.968,1.9449,1.9416,1.9093,1.8896,1.8878,1.877,1.8659,1.8565,0.0,0.0,0.0,0.0,0.0,0.0,2.0727,2.1395,2.2021,2.222,2.231,0.0,0.0,0.0,2.3031,0.0,0.0,2.3918,0.0,0.0,0.0,0.0,0.0,0.0,0.0,0.0,0.0,0.0,0.0,0.0,0.0,0.0,0.0,2.5385,0.0,0.0,0.0,2.7944,2.8716,2.9261,2.9847,3.0412,3.0973,3.1059,3.1197,3.1643,3.249,3.3336,3.3998,3.4321,3.4475,3.4475,3.4475,3.4475,3.4475,3.4635,3.4736,3.4909,3.5008,3.5178,3.5394,3.5157,3.5031,3.5086,3.4975,3.5068,3.54,3.5669,3.6168,3.7005,3.7134,3.7563,3.8297,3.8461,3.863,3.886,3.8931,3.8985,3.8985,3.8985,3.8914,3.8805,3.8805,3.875,3.8672,3.8672,3.8983,3.9541,4.0194,4.0784,4.1323,0.0,0.0,0.0,0.0,0.0,0.0,0.0,0.0,0.0,0.0,0.0,0.0,0.0,0.0,0.0,2.1516,2.0716,2.0228,2.0228,1.9417,1.8914,1.8823,1.8733,1.8622,1.8505,0.0,0.0,0.0,0.0,0.0,0.0,0.0,2.0484,0.0,2.1888,2.2185,2.2252,0.0,2.3015,2.3067,0.0,2.3968,2.3852,0.0,0.0,0.0,2.3683,2.3648,0.0,2.3562,0.0,0.0,0.0,0.0,0.0,0.0,0.0,0.0,0.0,0.0,0.0,0.0,0.0,2.795,2.8404,2.9053,2.9685,3.0228,3.0381,3.0397,3.0428,3.0428,3.1059,3.2998,3.3921,3.4442,3.4414,3.4414,3.4414,3.4414,3.4574,3.469,3.4847,3.4945,3.5131,3.5331,3.4668,3.4327,3.4451,3.3868,3.3962,3.4981,3.5256,3.5701,3.6365,3.6489,3.697,3.7707,3.7916,3.8364,3.9023,3.9202,3.9325,3.9325,3.9325,3.9148,3.8805,3.8805,3.8805,3.8805,3.8805,3.9231,3.9951,4.0498,4.1037,4.1552,0.0,0.0,0.0,0.0,0.0,0.0,0.0,0.0,0.0,0.0,0.0,0.0,0.0,0.0,2.146,2.1439,2.1164,2.0942,2.0863,2.0128,1.9643,1.9527,1.8902,1.8544,1.8505,0.0,0.0,0.0,0.0,0.0,0.0,0.0,0.0,0.0,2.1697,2.2274,2.2792,2.2962,0.0,0.0,2.4364,2.4905,0.0,0.0,0.0,0.0,0.0,2.5054,2.5054,0.0,2.464,2.4051,0.0,0.0,0.0,0.0,0.0,0.0,2.4958,0.0,0.0,0.0,0.0,0.0,2.696,2.7566,2.8198,2.8827,2.935,2.9843,3.0335,3.0428,3.0597,3.1166,3.1813,3.2413,3.2906,3.2967,3.3039,3.3095,3.3293,3.3458,3.3552,3.3716,3.3808,3.3878,3.3794,3.3736,3.3789,3.3806,3.3995,3.4493,3.4559,3.5002,3.5822,3.5923,3.6666,3.7916,3.8179,3.8681,3.9379,3.9537,3.9573,3.9573,3.9573,3.952,3.9451,3.9255,3.9094,3.8969,3.8969,3.9029,3.9198,3.9862,4.0466,4.1005,0.0,0.0,0.0,0.0,0.0,0.0,0.0,0.0,0.0,0.0,0.0,0.0,0.0,0.0,0.0,2.2373,2.1985,2.1688,2.1604,2.0871,2.0362,2.022,1.9401,1.8918,0.0,0.0,0.0,0.0,0.0,0.0,0.0,0.0,0.0,0.0,0.0,0.0,0.0,0.0,0.0,0.0,2.5053,0.0,0.0,2.6173,2.6314,0.0,0.0,0.0,2.6364,2.6073,2.5416,0.0,0.0,0.0,0.0,0.0,0.0,0.0,0.0,0.0,0.0,0.0,0.0,0.0,2.5942,2.6502,2.7088,2.7488,2.8104,2.8704,2.9089,2.9396,2.9673,2.9966,3.032,3.0797,3.1474,3.1567,3.1636,3.1743,3.1902,3.2185,3.2625,3.2814,3.3045,3.3382,3.345,3.3555,3.3658,3.3899,3.4151,3.43,3.4399,3.4693,3.5235,3.5382,3.6075,3.725,3.7786,3.8421,3.9156,3.9543,3.9677,3.9677,3.9677,3.9677,3.9677,3.952,3.9415,3.9292,3.9292,3.9185,3.9176,3.9847,4.0402,4.1023,0.0,0.0,0.0,0.0,0.0,0.0,0.0,0.0,0.0,0.0,0.0,0.0,0.0,0.0,0.0,0.0,2.3084,2.2553,2.2531,2.1639,2.1053,2.0938,2.0127,1.9643,0.0,0.0,0.0,0.0,0.0,0.0,0.0,0.0,0.0,0.0,0.0,0.0,0.0,0.0,0.0,2.5069,2.5717,2.633,0.0,0.0,2.721,2.7664,2.7664,2.7598,2.7419,2.6776,2.6062,0.0,0.0,0.0,0.0,0.0,2.5005,0.0,0.0,0.0,0.0,0.0,2.4973,0.0,2.521,2.5749,2.6272,2.6272,2.6811,2.7272,2.7288,2.778,2.8381,2.8981,2.9073,2.9396,3.0289,3.0428,3.0479,3.0603,3.0756,3.1076,3.184,3.2088,3.2459,3.3216,3.3344,3.3531,3.3836,3.4118,3.43,3.4349,3.4594,3.4756,3.4739,3.4994,3.5471,3.622,3.7,3.7852,3.8673,3.931,3.9697,3.9781,3.9781,3.9781,3.9781,3.9781,3.9729,3.9677,3.9677,3.9642,3.9568,4.0076,4.0624,4.1198,2.4436,0.0,0.0,0.0,0.0,0.0,0.0,0.0,0.0,0.0,0.0,0.0,0.0,0.0,0.0,0.0,2.4635,2.4111,2.3996,2.2617,2.1768,2.1698,2.0796,2.0287,2.0211,0.0,0.0,0.0,0.0,0.0,0.0,0.0,0.0,0.0,0.0,0.0,0.0,0.0,0.0,2.5628,2.6341,0.0,2.6789,2.734,2.7551,2.7541,2.7541,2.7474,2.7374,2.7131,2.6595,2.5998,0.0,0.0,0.0,2.5005,0.0,0.0,0.0,0.0,0.0,0.0,2.455,0.0,2.4502,2.5025,2.5518,2.5518,2.6057,2.6549,2.658,2.6688,2.6826,2.6949,2.698,2.778,3.0104,3.0428,3.0464,3.0756,3.0791,3.0955,3.1347,3.1363,3.1526,3.1801,3.2526,3.3029,3.3324,3.3925,3.4399,3.4611,3.4804,3.4899,3.4994,3.5198,3.5613,3.6365,3.6625,3.7542,3.8956,3.9206,3.9678,4.032,4.032,4.032,4.032,4.032,4.007,3.9677,3.9677,3.9677,3.9694,3.9776,4.008,4.0591,2.4615,0.0,0.0,0.0,0.0,0.0,0.0,0.0,0.0,0.0,0.0,0.0,0.0,0.0,0.0,0.0,0.0,0.0,0.0,0.0,2.3045,2.2902,2.1707,2.1022,2.0948,2.0103,0.0,0.0,0.0,0.0,0.0,0.0,0.0,0.0,0.0,0.0,0.0,0.0,2.459,2.6134,2.6562,0.0,2.7163,2.7897,2.8297,2.849,2.849,2.8222,2.7806,2.7688,2.72,0.0,2.6562,2.6072,2.5487,0.0,2.5194,2.4902,0.0,0.0,0.0,2.4498,2.44,0.0,0.0,2.4564,2.481,2.481,2.5349,2.5826,2.5857,2.6149,2.638,2.638,2.638,2.6857,2.8227,2.8737,2.9084,2.9214,2.9607,3.0097,3.067,3.075,3.1006,3.1534,3.2176,3.2707,3.3192,3.3664,3.4216,3.4787,3.4947,3.5041,3.5198,3.5337,3.5614,3.603,3.6523,3.7424,3.8622,3.9078,3.9737,4.0485,4.0485,4.0485,4.0485,4.0485,4.032,4.007,4.0037,3.9986,3.9884,3.9833,4.0146,4.0667,2.4774,0.0,0.0,0.0,0.0,0.0,0.0,0.0,0.0,0.0,0.0,0.0,0.0,0.0,0.0,0.0,0.0,0.0,0.0,0.0,0.0,2.4123,2.2763,2.1962,2.1884,2.0833,2.0255,0.0,0.0,0.0,0.0,0.0,0.0,0.0,0.0,0.0,0.0,0.0,0.0,2.651,0.0,2.7179,2.7747,2.8512,2.905,2.9473,2.9428,2.9016,2.845,2.8345,2.7841,2.7288,2.7288,2.6799,0.0,0.0,0.0,0.0,0.0,0.0,0.0,0.0,2.4359,2.4302,0.0,0.0,0.0,2.4302,2.4733,2.5118,2.5118,2.5595,2.5995,2.5995,2.5995,2.5995,2.5995,2.67,2.73,2.75,2.8091,2.8794,2.9532,2.9863,3.0432,3.1339,3.1767,3.2232,3.2833,3.3346,3.3961,3.4714,3.5021,3.5245,3.5337,3.5475,3.5611,3.5684,3.6412,3.7183,3.8071,3.8841,3.9658,4.0408,4.0563,4.0631,4.0614,4.0631,4.0631,4.0583,4.0387,4.0288,4.0188,4.0054,4.0271,4.0752,2.5708,2.5523,0.0,0.0,0.0,0.0,0.0,0.0,0.0,0.0,0.0,0.0,0.0,0.0,0.0,0.0,0.0,0.0,2.727,0.0,0.0,0.0,2.3899,2.3323,2.3283,2.1824,2.0998,0.0,0.0,0.0,0.0,0.0,0.0,0.0,2.2165,0.0,0.0,0.0,2.5142,0.0,2.7121,2.7694,0.0,2.9118,2.9348,2.9305,2.9183,2.909,2.9011,2.9011,2.8553,2.7984,2.7984,2.7525,2.6803,2.6131,0.0,0.0,0.0,0.0,0.0,2.4359,2.4302,2.4302,2.4302,0.0,2.4302,2.4302,0.0,2.4425,2.4425,0.0,0.0,2.4548,2.4548,2.4548,2.4548,2.5346,2.6127,2.6736,2.698,2.7205,2.7446,2.822,2.9079,2.996,3.0758,3.1361,3.1665,3.3003,3.3885,3.4106,3.5002,3.5475,3.5577,3.5684,3.5817,3.5975,3.6061,3.6549,3.7435,3.8174,3.9038,3.9997,4.0735,4.1076,4.1117,4.1076,4.1047,4.1,4.0631,4.0485,4.0436,4.0288,4.0239,4.0358,2.6394,0.0,0.0,0.0,0.0,0.0,0.0,0.0,0.0,0.0,0.0,0.0,0.0,0.0,0.0,0.0,0.0,2.885,0.0,0.0,0.0,0.0,0.0,0.0,2.3451,2.268,2.2056,2.1518,2.1133,0.0,0.0,0.0,0.0,0.0,2.2167,0.0,2.346,0.0,2.5371,0.0,0.0,2.7917,2.8846,2.9239,2.9575,2.9784,2.9279,2.939,2.9674,2.9264,2.8932,2.8695,2.8695,2.8192,2.7504,2.7146,0.0,0.0,0.0,0.0,2.4359,2.4302,2.4302,2.4302,2.4302,2.4302,2.4302,2.4302,0.0,0.0,0.0,0.0,0.0,0.0,2.3394,2.3172,2.3196,2.36,2.4467,2.5967,2.6643,2.7083,2.7254,2.8046,2.8748,2.9312,3.0109,3.0871,3.1517,3.226,3.309,3.4164,3.4633,3.5199,3.5711,3.5861,3.6019,3.6174,3.6174,3.6672,3.762,3.8364,3.9188,4.0075,4.0822,4.118,4.1209,4.118,4.1152,4.1152,4.0977,4.0806,4.0583,4.0485,4.0387,4.0492,2.7682,0.0,0.0,0.0,0.0,0.0,0.0,0.0,0.0,0.0,0.0,0.0,3.1482,3.1333,0.0,0.0,3.0663,3.0283,0.0,0.0,2.7569,2.7215,2.5844,0.0,0.0,0.0,2.2962,2.2169,0.0,0.0,0.0,0.0,0.0,0.0,0.0,2.2971,2.3626,0.0,2.5783,2.7222,2.737,2.8247,2.9422,2.9499,2.9832,3.0133,2.9817,2.9911,3.0101,2.9595,2.9233,2.9075,2.9075,2.8652,2.8091,0.0,0.0,0.0,2.5571,2.5006,2.4533,2.4364,2.4302,2.4302,2.4302,2.4302,2.4302,2.4302,2.4302,0.0,0.0,0.0,2.324,2.3055,0.0,2.2308,2.2368,2.2534,2.3248,2.4951,2.5989,2.6703,2.7045,2.7692,2.8246,2.8706,2.9501,3.0293,3.1032,3.1616,3.2488,3.37,3.4329,3.495,3.5642,3.5916,3.6191,3.6402,3.6402,3.678,3.7537,3.8303,3.9068,3.9896,4.0627,4.1063,4.13,4.1255,4.1255,4.1255,4.1209,4.1041,4.0823,4.068,4.0631,4.0788,2.9958,2.8851,0.0,0.0,0.0,0.0,0.0,0.0,0.0,0.0,0.0,0.0,0.0,0.0,0.0,0.0,0.0,3.1677,3.1548,0.0,2.8676,2.7824,2.6977,2.6118,0.0,0.0,0.0,0.0,0.0,0.0,0.0,0.0,0.0,0.0,0.0,2.3626,2.4249,2.5576,2.6554,2.7254,2.7822,2.89,3.0148,3.0148,3.0164,3.0259,3.0923,3.0733,3.018,3.0148,2.958,2.8904,2.8904,2.8826,2.8639,2.786,2.7581,2.7209,2.5716,2.5302,2.5118,2.4471,2.4302,2.4302,2.4302,2.4302,2.4302,2.4302,2.4302,2.4102,2.3456,2.3302,2.3086,0.0,2.2301,0.0,0.0,2.2534,2.2905,2.377,2.4641,2.5465,2.627,2.651,2.7055,2.7954,2.8916,2.9506,2.9659,3.1335,3.2307,3.2341,3.4031,3.5008,3.5232,3.5939,3.6402,3.6702,3.6702,3.6702,3.6754,3.7502,3.831,3.9188,3.9992,4.0788,4.156,4.1471,4.138,4.138,4.1255,4.1192,4.1163,4.0965,4.0888,4.1047,0.0,0.0,0.0,0.0,0.0,0.0,0.0,3.3105,0.0,0.0,0.0,0.0,0.0,3.4373,3.4237,0.0,0.0,3.3088,3.2946,3.1392,0.0,0.0,0.0,2.7267,0.0,0.0,0.0,0.0,0.0,0.0,0.0,0.0,0.0,0.0,0.0,2.3962,0.0,0.0,0.0,0.0,2.821,2.9187,3.0084,3.018,3.07,3.1341,3.1152,3.1165,3.1095,3.0253,2.975,2.942,2.8967,2.8779,2.859,2.8357,2.7875,2.7334,2.6826,2.6026,2.5272,2.5025,2.4641,2.4302,2.4302,2.4302,2.4302,2.4302,2.4302,2.4102,2.3425,2.2932,2.2409,0.0,0.0,2.1069,0.0,2.1761,2.2295,2.2584,2.3745,2.4676,2.5067,2.6085,2.6945,2.7498,2.8698,2.9553,2.9921,3.0982,3.1862,3.2474,3.3722,3.4616,3.518,3.6121,3.6684,3.6908,3.6908,3.6965,3.714,3.7857,3.8672,3.9488,4.0281,4.1075,4.1858,4.1815,4.1815,4.1815,4.1754,4.1692,4.1542,4.1226,4.1088,4.1296,3.1608,0.0,0.0,0.0,0.0,0.0,0.0,0.0,0.0,0.0,3.5548,0.0,3.561,0.0,3.56,0.0,3.4802,3.4379,3.3956,3.2662,0.0,3.0912,2.9832,0.0,0.0,0.0,0.0,0.0,0.0,2.3565,0.0,0.0,0.0,0.0,0.0,2.427,2.4528,2.5901,2.673,0.0,2.8416,2.9437,3.03,3.0398,3.1039,3.1894,3.1737,3.1732,3.1649,3.0541,2.9962,2.9586,2.895,2.8636,2.8541,2.8541,2.8184,2.7703,2.7457,2.6565,2.5641,2.5379,2.481,2.4302,2.4302,2.4302,2.4302,2.4302,2.4302,2.4025,2.3102,2.2578,2.2031,0.0,0.0,2.0457,0.0,2.1156,2.1625,2.1674,2.2975,2.4064,2.4466,2.5452,2.6307,2.6882,2.8089,2.9042,2.9702,3.051,3.1355,3.2278,3.3227,3.4159,3.5022,3.5924,3.6606,3.7105,3.7105,3.7182,3.7314,3.781,3.8567,3.9633,4.0147,4.0996,4.2005,4.2005,4.2005,4.2005,4.2005,4.1945,4.1841,4.1453,4.1649,4.2119,0.0,0.0,0.0,0.0,3.3342,0.0,0.0,0.0,3.601,0.0,3.7184,3.7927,3.7681,3.8225,3.8229,3.7401,3.6461,3.5508,3.4658,3.3785,0.0,0.0,3.0651,2.9832,2.8349,0.0,0.0,0.0,0.0,0.0,0.0,0.0,0.0,0.0,2.4137,0.0,2.5148,2.6514,2.7146,2.7277,2.8448,2.9656,3.0791,3.0791,3.1192,3.1908,3.2647,3.246,3.1706,3.1041,3.027,2.9518,2.8805,2.8493,2.8411,2.8411,2.8411,2.8273,2.7626,2.6949,2.6257,2.5549,2.4856,2.4348,2.4317,2.4302,2.4302,2.4302,2.4302,2.3902,2.2578,2.2317,2.1892,0.0,0.0,2.0491,2.0693,2.0827,2.0958,2.1103,2.2356,2.3538,2.4321,2.4645,2.5201,2.6104,2.7121,2.8091,2.8977,2.9962,3.0898,3.1765,3.2654,3.3641,3.4688,3.5443,3.633,3.7297,3.7297,3.7334,3.7334,3.7334,3.8185,3.9615,3.9615,4.0559,4.2048,4.2048,4.2048,4.2048,4.2048,4.2005,4.1962,4.171,4.2433,4.3506,3.4818,3.4848,3.5137,0.0,3.5418,3.5226,0.0,0.0,0.0,0.0,3.8467,3.8512,3.8363,3.8401,3.83,3.7831,3.7505,0.0,0.0,0.0,0.0,3.3039,3.1874,3.0754,2.9707,2.8862,0.0,2.6531,0.0,0.0,2.4144,0.0,0.0,0.0,0.0,2.5132,2.5803,2.672,2.764,2.8433,2.8607,2.9477,3.0654,3.0567,3.1241,3.2261,3.2586,3.247,3.2075,3.0902,3.0356,3.0001,2.883,2.846,2.8411,2.8411,2.8411,2.8365,2.8196,2.7642,2.698,2.6287,2.558,2.4918,2.4425,2.4302,2.4302,2.4302,2.4302,2.404,2.3194,2.2701,2.209,2.1275,2.0836,2.0677,2.0811,2.0974,2.1087,2.123,2.1633,2.2232,2.3079,2.4296,2.5176,2.5581,2.696,2.8216,2.9229,3.0159,3.106,3.1984,3.2912,3.3808,3.4688,3.5592,3.6518,3.7503,3.7503,3.7594,3.7757,3.7757,3.8599,4.0068,4.0068,4.0981,4.2468,4.2468,4.2468,4.245,4.2405,4.224,4.2037,4.1823,4.2633,4.378,3.5684,0.0,0.0,3.8158,0.0,0.0,3.7945,3.793,0.0,3.8868,3.9111,0.0,3.9021,3.9127,3.9037,3.8506,3.828,0.0,3.6963,0.0,0.0,3.4209,3.2948,3.1729,3.0609,2.9821,0.0,2.7591,0.0,0.0,2.5182,0.0,0.0,0.0,0.0,2.5645,2.6072,2.7028,2.7978,2.8873,2.8995,2.9608,0.0,3.0735,3.149,3.2398,3.2523,3.2453,3.2198,3.0874,3.0428,3.0181,2.8827,2.8411,2.8411,2.8411,2.8411,2.8411,2.8411,2.7919,2.7226,2.6534,2.5826,2.5133,2.4456,2.4302,2.4302,2.4302,2.4302,2.4102,2.3504,2.2848,2.2117,2.1225,2.0913,2.0827,2.0893,2.1038,2.1183,2.1294,2.1433,2.1751,2.2271,2.3703,2.4846,2.5429,2.6674,2.7845,2.8921,2.9816,3.0716,3.169,3.2599,3.3671,3.496,3.5474,3.6399,3.7739,3.7739,3.7793,3.7899,3.7899,3.8582,3.9751,4.0074,4.0919,4.2106,4.2465,4.2609,4.2609,4.2548,4.2427,4.2264,4.2079,4.29,4.4032,3.6167,0.0,0.0,0.0,0.0,0.0,3.9684,3.9441,3.9216,3.9222,3.9675,3.9967,3.9911,4.0285,4.0188,3.9343,0.0,3.8606,3.7503,3.6705,3.5811,3.4824,3.3843,3.2736,3.1372,3.0453,2.9604,0.0,0.0,0.0,0.0,0.0,0.0,0.0,0.0,0.0,0.0,2.7507,2.8326,2.8809,2.9381,2.9913,3.0489,3.1136,3.1813,3.2398,3.2398,3.2398,3.2198,3.0874,3.0428,3.0181,2.8827,2.8411,2.8411,2.8411,2.8411,2.8411,2.8411,2.798,2.7365,2.6641,2.5949,2.5272,2.4594,2.4364,2.4302,2.4302,2.4302,2.4174,2.3723,2.2987,2.2098,2.1038,2.089,2.0893,2.0942,2.1103,0.0,2.1325,2.1556,0.0,2.1857,2.3102,2.4345,2.5374,2.6298,2.7262,2.8384,2.9325,3.0289,3.1225,3.2084,3.3452,3.5307,3.5325,3.6215,3.7934,3.7934,3.7934,3.7969,3.7969,3.8401,3.9211,3.995,4.0742,4.1553,4.2345,4.267,4.2649,4.2649,4.2588,4.2503,4.2494,4.3291,4.4306,3.9206,0.0,0.0,0.0,0.0,4.0587,4.1701,4.0659,4.0158,4.1315,4.1429,4.1542,4.192,4.1952,4.1591,4.071,4.0414,0.0,0.0,0.0,0.0,3.5362,3.4545,3.3681,3.2772,3.1304,3.0226,0.0,0.0,0.0,0.0,0.0,0.0,0.0,0.0,0.0,2.7617,2.8357,2.8638,2.8698,2.9234,2.9812,3.0489,3.1136,3.1813,3.2398,3.2398,3.2398,3.2198,3.0874,3.0428,3.0181,2.8827,2.8411,2.8411,2.8411,2.8411,2.8411,2.8411,2.8319,2.8057,2.738,2.6703,2.601,2.5302,2.4718,2.4302,2.4302,2.44,2.4426,2.4343,2.3429,2.2451,2.1874,2.1274,2.0974,2.1135,2.123,2.1356,2.1528,2.1694,2.1886,2.2106,2.2954,2.384,2.4628,2.5654,2.6902,2.8476,2.9505,3.0501,3.1501,3.2378,3.3651,3.5359,3.546,3.6332,3.8068,3.8068,3.8153,3.8303,3.8303,3.874,3.9558,4.0359,4.1159,4.1977,4.2759,4.3013,4.2862,4.2862,4.2747,4.2659,4.3306,4.4068,4.4686,0.0,0.0,0.0,0.0,0.0,4.2207,4.2766,4.2054,4.1702,4.2393,4.2278,4.2227,4.2392,4.2267,4.1971,4.1402,4.0871,4.0192,3.923,3.8397,3.7462,3.6515,3.5389,3.4378,3.3532,3.2402,3.1197,3.0062,2.9223,2.8402,2.766,2.73,2.7099,2.713,0.0,2.791,2.8465,2.8686,2.895,2.9162,2.9709,3.0335,3.0997,3.1659,3.2105,3.2398,3.2398,3.2398,3.2198,3.0874,3.0428,3.0181,2.8827,2.8411,2.8411,2.8411,2.8411,2.8411,2.8411,2.8411,2.8242,2.7565,2.6888,2.6195,2.5487,2.4852,2.44,2.44,2.4482,2.4455,2.4193,2.3739,2.3106,2.2181,2.1772,2.1552,2.1279,2.1309,2.1433,2.1694,2.1797,2.1974,2.2237,2.3068,2.3932,2.4697,2.5631,2.6727,2.8072,2.9479,3.0495,3.1057,3.2322,3.3827,3.5573,3.5656,3.653,3.8252,3.8252,3.8318,3.8382,3.8382,3.8838,3.9641,4.0461,4.1263,4.2066,4.2886,4.3123,4.305,4.305,4.2938,4.2838,4.365,4.4381,4.491,0.0,4.2083,0.0,0.0,4.3249,4.3527,4.3504,4.3253,4.31,4.31,4.291,4.2715,4.274,4.2631,4.2361,4.1949,4.1361,4.0696,4.0087,3.8909,3.7976,3.7454,3.6275,3.5114,3.4156,3.3382,3.2254,3.0847,3.0069,2.9309,2.8521,2.8,2.7683,2.7557,2.8079,2.8604,2.9093,2.9045,2.9306,2.9825,3.0402,3.0936,3.1459,3.2136,3.2398,3.2398,3.2398,3.2398,3.2198,3.0859,3.0412,3.0181,2.8876,2.8444,2.8444,2.8508,2.8508,2.8508,2.8508,2.8508,2.8369,2.7844,2.718,2.65,2.5775,2.5153,2.471,2.457,2.4605,2.4514,2.4139,2.4087,2.374,2.2662,2.2403,2.215,2.1633,2.1515,2.157,2.1751,2.1899,2.2061,2.2338,2.3254,2.416,2.5016,2.582,2.6731,2.7725,2.9479,3.0517,3.0682,3.2295,3.4014,3.581,3.5859,3.6752,3.8465,3.8496,3.8478,3.851,3.851,3.8967,3.9739,4.0544,4.1458,4.2443,4.3048,4.3322,4.3268,4.3268,4.3123,4.3084,4.4064,4.4668,4.5168,0.0,0.0,4.3821,4.364,4.3568,4.3669,4.4147,4.3992,4.3835,4.3835,4.3642,4.3664,4.408,4.3994,4.3571,4.2748,4.2344,4.1502,4.0041,3.9674,3.8853,3.7371,3.7083,3.6265,3.4949,3.3914,3.3077,3.2313,3.1464,3.067,2.999,2.9927,2.9548,2.8902,2.8965,2.9297,2.9715,2.973,2.9971,3.0381,3.1028,3.132,3.1459,3.2136,3.2398,3.2398,3.2398,3.2398,3.2182,3.1016,3.0516,3.0181,2.8958,2.8573,2.8636,2.8747,2.8747,2.8747,2.8747,2.8747,2.8732,2.8669,2.8109,2.7392,2.6707,2.6065,2.5394,2.4729,2.4686,2.4831,2.4934,2.4519,2.4111,2.4168,2.3183,2.241,2.2378,2.2028,2.1751,2.1797,2.2077,2.2321,2.246,2.3337,2.4299,2.5295,2.6093,2.6968,2.7933,2.9621,3.0682,3.0957,3.2531,3.4213,3.5945,3.6054,3.6936,3.8658,3.8732,3.8773,3.8833,3.8833,3.9305,4.0117,4.0911,4.2184,4.3627,4.3701,4.3652,4.3479,4.3479,4.3339,4.336,4.4872,4.5376,4.5486,4.4306,4.4604,4.4736,4.4384,4.4602,4.4852,4.4854,4.4694,4.4551,4.4443,4.419,4.4086,4.4179,4.4056,4.3764,4.3214,4.2624,4.1953,4.1112,4.018,3.9316,3.8488,3.7609,3.6757,3.5959,3.4749,3.3736,3.2986,3.2238,3.1492,3.0796,3.0796,3.0654,3.0385,3.0385,3.0431,3.0501,3.0501,3.0791,3.1238,3.1554,3.1911,3.233,3.261,3.2703,3.2703,3.2703,3.2703,3.2501,3.1171,3.0654,3.0335,2.9119,2.8732,2.8747,2.8794,2.8794,2.8794,2.8794,2.8794,2.8794,2.8794,2.8249,2.7531,2.6845,2.626,2.5613,2.4867,2.4846,2.4989,2.5107,2.4962,2.4794,2.4523,2.4081,2.3699,2.3457,2.2861,2.2535,2.2731,2.2907,2.3107,2.332,2.4629,2.5659,2.6141,2.6523,2.7136,2.8073,2.9833,3.0892,3.1003,3.2683,3.4418,3.6161,3.6237,3.7132,3.8822,3.8851,3.891,3.895,3.895,3.9653,4.0947,4.226,4.3208,4.3804,4.3804,4.3771,4.3686,4.3686,4.3566,4.3576,4.5169,4.5641,4.5685,4.4979,4.5235,4.5383,4.5087,4.5422,4.5615,4.5177,4.5086,4.4923,4.4648,4.4423,4.4212,4.4097,4.3998,4.378,4.3449,4.2851,4.2354,4.1824,4.0821,3.994,3.9194,3.8187,3.7351,3.6603,3.561,3.4659,3.3925,3.3214,3.2503,3.1823,3.1413,3.1223,3.1223,3.1223,3.1218,3.1291,3.1291,3.1596,3.2133,3.2133,3.2444,3.2897,3.2897,3.2897,3.2897,3.2897,3.2897,3.271,3.156,3.0963,3.0472,2.92,2.8826,2.8826,2.8873,2.8873,2.8873,2.8873,2.8873,2.8873,2.8873,2.8498,2.7934,2.7246,2.6659,2.6005,2.5075,2.4989,2.5107,2.5185,2.5355,2.5347,2.4924,2.4824,2.4705,2.4365,2.3782,2.3455,2.3684,2.3857,2.403,2.4261,2.5666,2.6588,2.68,2.7103,2.7665,2.8577,3.0134,3.1148,3.1447,3.2931,3.4587,3.638,3.6436,3.7332,3.8979,3.9026,3.9082,3.9129,3.9611,4.0558,4.1932,4.341,4.4011,4.3966,4.3934,4.3883,4.3851,4.3837,4.3719,4.3768,4.5369,4.5847,4.5878,4.6554,4.6235,4.5972,4.5803,4.5667,4.5459,4.5086,4.4978,4.4814,4.4367,4.4212,4.4097,4.4097,4.3998,4.378,4.3449,4.3235,4.2741,4.1857,4.1687,4.0857,3.9242,3.9076,3.8243,3.6619,3.6447,3.6058,3.5363,3.462,3.3925,3.3245,3.1871,3.1223,3.1223,3.1223,3.1486,3.1997,3.1997,3.2332,3.2897,3.2897,3.2897,3.2897,3.2897,3.2897,3.2897,3.2897,3.2897,3.2788,3.2196,3.1558,3.0738,2.936,2.8904,2.8904,2.9075,2.9091,2.9091,2.9091,2.9091,2.9091,2.9091,2.9075,2.8886,2.8237,2.7573,2.673,2.5354,2.5091,2.5185,2.5378,2.5524,2.5637,2.5701,2.533,2.5094,2.5094,2.4726,2.4458,2.4506,2.4761,2.504,2.5164,2.6048,2.67,2.697,2.7878,2.8756,2.9638,3.0505,3.1483,3.254,3.3366,3.4686,3.6562,3.666,3.753,3.9183,3.9328,3.9391,3.9447,4.1035,4.2212,4.3015,4.3911,4.4285,4.4285,4.4214,4.4104,4.4005,4.3929,4.3851,4.3974,4.5528,4.6011,4.6122,4.659,4.6253,4.5972,4.5821,4.5667,4.5459,4.5032,4.4978,4.4814,4.435,4.4196,4.4056,4.3939,4.3687,4.3432,4.3235,4.3068,4.2785,4.2372,4.1779,4.111,4.0537,3.9409,3.8511,3.7903,3.6911,3.6327,3.609,3.5394,3.4668,3.3957,3.3056,3.2629,3.2629,3.2629,3.2704,3.2909,3.2909,3.2998,3.315,3.315,3.315,3.315,3.315,3.315,3.315,3.315,3.315,3.3093,3.2435,3.2057,3.1631,3.0227,2.9454,2.9029,2.9075,2.9075,2.9075,2.9075,2.9075,2.9075,2.9075,2.9075,2.8902,2.8252,2.7237,2.6243,2.5408,2.5262,2.5339,2.5524,2.5621,2.5754,2.6007,2.5933,2.5926,2.6151,2.5662,2.5331,2.5548,2.5806,2.6028,2.6135,2.7081,2.7762,2.795,2.8801,2.9465,2.9745,3.0717,3.1675,3.2585,3.4127,3.5514,3.666,3.7329,3.8226,3.9343,3.9369,3.9764,4.0466,4.1562,4.2495,4.3258,4.4074,4.4373,4.4285,4.4304,4.4255,4.4177,4.4135,4.4376,4.4874,4.5848,4.6537,4.7058,4.659,4.6253,4.5871,4.5821,4.5632,4.5423,4.5032,4.4978,4.4814,4.431,4.4155,4.4039,4.3822,4.3509,4.3251,4.3113,4.2945,4.2821,4.2634,4.2009,4.153,4.1132,4.0082,3.9198,3.8523,3.7654,3.7085,3.6817,3.6121,3.541,3.4683,3.3988,3.3672,3.3656,3.3419,3.3309,3.3309,3.3309,3.3309,3.3309,3.3309,3.3309,3.3309,3.3309,3.3309,3.3309,3.3309,3.3309,3.3245,3.2803,3.2487,3.2174,3.1288,3.0306,2.9469,2.9154,2.9075,2.9075,2.9075,2.9075,2.9075,2.9075,2.9121,2.9039,2.8386,2.7413,2.6477,2.5878,2.5587,2.5508,2.5637,2.577,2.5954,2.6168,2.631,2.6452,2.6657,2.6401,2.6273,2.6492,2.6753,2.6959,2.7102,2.7796,2.8425,2.8873,2.9526,3.0199,3.0834,3.1524,3.2293,3.3179,3.4723,3.5944,3.6839,3.7723,3.8621,3.9521,3.984,4.0491,4.1418,4.2297,4.3095,4.3845,4.4371,4.4524,4.444,4.4401,4.4373,4.4373,4.4255,4.4699,4.5388,4.6108,4.6842,4.7587,4.6678,4.6242,4.589,4.5838,4.5581,4.5318,4.5032,4.4978,4.4759,4.4155,4.4097,4.3981,4.3628,4.3295,4.3113,4.3113,4.2945,4.2837,4.2634,4.2445,4.2028,4.1228,4.0896,4.0071,3.8681,3.857,3.8175,3.748,3.6769,3.609,3.5442,3.4715,3.4367,3.4336,3.3672,3.3372,3.3372,3.3324,3.3309,3.3309,3.3309,3.3309,3.3309,3.3309,3.3309,3.3309,3.3309,3.3309,3.3309,3.3309,3.2882,3.238,3.2333,3.1431,3.018,2.9422,2.9122,2.9075,2.9075,2.9121,2.9121,2.9121,2.9213,2.9175,2.8622,2.7966,2.7304,2.6655,2.6057,2.5702,2.5717,2.599,2.6203,2.6239,2.6486,2.6691,2.6725,2.7021,2.7213,2.7244,2.7522,2.7824,2.8067,2.8263,2.8802,2.9834,3.0148,3.0999,3.2612,3.2785,3.329,3.4277,3.5224,3.6184,3.7178,3.7986,3.8846,3.9712,4.0623,4.1453,4.2246,4.3139,4.3964,4.4693,4.4693,4.4712,4.4685,4.457,4.4496,4.4515,4.4373,4.4838,4.5686,4.6294,4.7051,4.7887,4.7634,4.7049,4.6517,4.5925,4.5581,4.5318,4.5032,4.4978,4.4759,4.4155,4.4097,4.3981,4.3628,4.3295,4.3113,4.3113,4.2805,4.2634,4.2634,4.2302,4.211,4.1869,4.1055,4.0499,4.0119,3.906,3.8175,3.748,3.6769,3.6342,3.6169,3.5458,3.5126,3.5094,3.4383,3.4051,3.402,3.3514,3.3309,3.3309,3.3309,3.3309,3.3309,3.3309,3.3309,3.3309,3.3309,3.3309,3.3309,3.3309,3.3198,3.2961,3.244,3.2095,3.1589,3.0291,2.9548,2.9075,2.9075,2.9167,2.9259,2.9259,2.9366,2.9281,2.8709,2.8447,2.8007,2.6967,2.6617,2.6455,2.6158,2.6132,2.6258,2.6538,2.6657,2.6791,2.7053,2.7149,2.7307,2.7552,2.7777,2.8227,2.9002,2.9305,2.9826,3.0808,3.1634,3.2324,3.29,3.3678,3.4456,3.5315,3.625,3.7192,3.8093,3.8945,3.9524,3.9867,4.0827,4.1746,4.2544,4.3418,4.4185,4.4846,4.4846,4.4796,4.4712,4.4659,4.4659,4.4632,4.4515,4.5358,4.6641,4.6657,4.7569,4.8754,4.7953,4.7397,4.6846,4.596,4.5632,4.5371,4.5032,4.4978,4.4759,4.4155,4.4097,4.3981,4.3628,4.3295,4.3113,4.3113,4.2805,4.2634,4.2634,4.2302,4.2109,4.2109,4.1436,4.0909,4.0609,3.9518,3.8476,3.748,3.7085,3.6911,3.6896,3.62,3.5868,3.5837,3.511,3.4604,3.4273,3.3909,3.3577,3.3309,3.3309,3.3309,3.3309,3.3309,3.3309,3.3309,3.3309,3.3309,3.3309,3.3346,3.3398,3.3335,3.3057,3.2724,3.231,3.1547,3.0561,2.9641,2.937,2.9321,2.9412,2.9457,2.9547,2.9556,2.927,2.899,2.8637,2.7988,2.7699,2.7372,2.6796,2.6828,2.6872,2.6725,2.6825,2.7108,2.7663,2.7875,2.8185,2.878,2.9048,2.9412,3.0022,3.0306,3.0844,3.1759,3.2465,3.3067,3.3622,3.4604,3.5346,3.5773,3.6697,3.7615,3.8531,3.9429,4.0119,4.0604,4.1504,4.2381,4.3219,4.4056,4.4661,4.4991,4.4991,4.4943,4.487,4.484,4.4796,4.4827,4.5092,4.5979,4.7118,4.7327,4.8191,4.923,4.813,4.7568,4.688,4.596,4.5667,4.5459,4.5032,4.4978,4.4814,4.4212,4.4097,4.3981,4.3687,4.3372,4.3113,4.3113,4.2805,4.2634,4.2634,4.2302,4.2109,4.2109,4.1785,4.1385,4.0751,3.9929,3.8886,3.7638,3.7528,3.748,3.7464,3.6864,3.6595,3.6548,3.5853,3.5205,3.4589,3.4383,3.3972,3.3451,3.334,3.3346,3.3346,3.3346,3.3346,3.3346,3.3346,3.3346,3.3398,3.3503,3.3555,3.3555,3.3642,3.3294,3.2832,3.2736,3.1773,3.0577,2.9856,2.9598,2.9563,2.9697,2.9742,2.977,2.9973,2.9577,2.9146,2.9165,2.8834,2.8345,2.769,2.7796,2.7791,2.7216,2.7363,2.7799,2.8537,2.8914,2.9378,3.0154,3.0505,3.0747,3.1092,3.1283,3.1803,3.2757,3.308,3.3641,3.4577,3.5465,3.6058,3.6324,3.7095,3.7976,3.8911,3.9849,4.0689,4.1433,4.2406,4.3226,4.3969,4.4789,4.5148,4.5148,4.5148,4.5125,4.5103,4.4967,4.4919,4.5014,4.5734,4.6512,4.7324,4.7964,4.8732,4.9384,4.8944,4.7955,4.688,4.596,4.5667,4.5459,4.5032,4.4978,4.4814,4.431,4.4155,4.4056,4.3898,4.3568,4.3312,4.3096,4.2945,4.2775,4.2634,4.2445,4.2318,4.2109,4.1947,4.1704,4.143,4.0166,3.9123,3.8349,3.7765,3.748,3.748,3.737,3.7322,3.7291,3.6579,3.62,3.6011,3.4794,3.4295,3.4276,3.3689,3.3555,3.3658,3.3658,3.3658,3.3658,3.3658,3.3658,3.3658,3.3658,3.3658,3.3642,3.3694,3.363,3.3473,3.2914,3.2626,3.2144,3.0813,3.0073,2.9697,2.983,2.9902,2.9973,2.9973,3.0021,2.9903,2.9468,2.9294,2.9154,2.8794,2.8769,2.8863,2.9042,2.911,2.9297,2.9764,2.9924,3.0132,3.0487,3.0722,3.1173,3.201,3.2263,3.2801,3.379,3.4059,3.4637,3.5593,3.5979,3.68,3.822,3.8393,3.895,3.9947,4.0826,4.138,4.159,4.3197,4.402,4.4193,4.4997,4.5361,4.5338,4.5297,4.5254,4.517,4.5103,4.508,4.5133,4.5886,4.667,4.7458,4.8108,4.8821,4.9415,4.9171,4.8144,4.7101,4.6062,4.5787,4.5615,4.53,4.5086,4.4869,4.4463,4.4253,4.4056,4.3898,4.3568,4.3372,4.3235,4.3007,4.2837,4.2775,4.2508,4.2381,4.2254,4.2012,4.1658,4.1067,4.0419,3.9582,3.8507,3.8191,3.7844,3.748,3.7583,3.7599,3.7583,3.7308,3.7001,3.6619,3.6007,3.5291,3.4627,3.4308,3.3994,3.3694,3.3694,3.3694,3.3694,3.3694,3.3694,3.3694,3.3797,3.3797,3.3797,3.3899,3.3899,3.3834,3.3596,3.2692,3.1612,3.0937,3.0319,2.9858,2.9946,3.0017,3.0103,3.0189,3.0274,3.0302,3.012,3.0256,3.0197,2.9681,2.9768,2.9831,2.9541,2.9676,3.0031,3.0615,3.0875,3.1253,3.1852,3.2115,3.2472,3.3058,3.3264,3.3592,3.4111,3.4815,3.5446,3.5932,3.6967,3.7944,3.8823,3.928,3.9776,4.029,4.1168,4.1837,4.2334,4.3598,4.4422,4.4863,4.5228,4.54,4.54,4.5361,4.5341,4.53,4.5235,4.5459,4.5935,4.6654,4.746,4.8289,4.8954,4.94,4.9655,4.8954,4.7961,4.7072,4.6178,4.5922,4.5718,4.5441,4.5177,4.4923,4.4631,4.4367,4.4155,4.3939,4.3687,4.3509,4.3388,4.3146,4.2961,4.2899,4.265,4.2508,4.2381,4.2141,4.1644,4.0959,4.0801,4.0103,3.8867,3.8708,3.828,3.7599,3.77,3.7759,3.7759,3.7876,3.763,3.7118,3.6958,3.6309,3.53,3.5177,3.4679,3.4053,3.4053,3.3941,3.3797,3.3797,3.3797,3.3797,3.3899,3.3949,3.3949,3.405,3.4101,3.4151,3.4151,3.287,3.1394,3.1053,3.0656,3.0272,3.0109,3.0146,3.0316,3.0401,3.0526,3.0651,3.0773,3.1032,3.106,3.0578,3.0773,3.0783,3.0249,3.0433,3.0873,3.1502,3.1849,3.2312,3.3093,3.3375,3.3577,3.3815,3.4157,3.442,3.4591,3.5627,3.6327,3.6604,3.7998,3.8937,3.9331,3.9927,4.0403,4.0718,4.1581,4.2443,4.3267,4.415,4.488,4.5475,4.5475,4.5475,4.5475,4.5457,4.5438,4.5438,4.536,4.5816,4.6617,4.7366,4.8176,4.9009,4.9701,4.9925,4.9871,4.8253,4.7227,4.6403,4.6204,4.5955,4.5718,4.5441,4.5283,4.5086,4.4831,4.4575,4.435,4.4097,4.3939,4.3763,4.3449,4.3388,4.3251,4.2899,4.2899,4.2713,4.2381,4.219,4.2029,4.1965,4.1389,4.0686,3.9856,3.9294,3.8579,3.7876,3.7876,3.7876,3.7876,3.7876,3.7844,3.7806,3.715,3.6926,3.6876,3.6184,3.5598,3.5104,3.5104,3.4683,3.405,3.405,3.405,3.405,3.4101,3.4101,3.4101,3.4101,3.4201,3.43,3.43,3.3762,3.291,3.1647,3.1254,3.1041,3.0369,3.0316,3.0468,3.0485,3.0692,3.0912,3.1112,3.119,3.1291,3.162,3.1714,3.1806,3.2127,3.223,3.2366,3.2713,3.2903,3.3093,3.3364,3.3587,3.3834,3.3972,3.4847,3.5485,3.5762,3.6647,3.7589,3.8452,3.8804,3.9425,4.0358,4.0392,4.0814,4.1681,4.2547,4.3461,4.4392,4.5202,4.5626,4.5684,4.5684,4.5684,4.5665,4.562,4.5586,4.5568,4.5457,4.5898,4.6761,4.7496,4.8273,4.9075,4.9809,5.0005,4.9898,4.8075,4.7186,4.6495,4.635,4.6105,4.5871,4.5667,4.5441,4.5283,4.5086,4.4742,4.4446,4.435,4.4097,4.3839,4.3704,4.3509,4.3328,4.3207,4.3068,4.2821,4.2445,4.2318,4.2254,4.2109,4.1853,4.1373,4.0654,3.995,3.9262,3.8574,3.8258,3.8107,3.8107,3.8164,3.8221,3.8205,3.7931,3.7616,3.718,3.689,3.6427,3.5833,3.5364,3.5007,3.4716,3.4262,3.4151,3.425,3.425,3.43,3.4349,3.4349,3.4399,3.4448,3.4546,3.4397,3.4018,3.3197,3.2243,3.1353,3.1116,3.0815,3.0651,3.0733,3.0912,3.1112,3.119,3.1385,3.1614,3.1763,3.1982,3.2214,3.2371,3.2574,3.2755,3.293,3.3165,3.3556,3.4251,3.4522,3.4942,3.5625,3.6137,3.6494,3.6678,3.7605,3.8359,3.8803,3.9522,4.0364,4.1293,4.1328,4.1497,4.1855,4.3258,4.416,4.4504,4.5314,4.57,4.57,4.57,4.57,4.57,4.5668,4.5651,4.569,4.6106,4.6781,4.7626,4.837,4.9168,4.9908,5.014,5.0182,5.0063,4.7778,4.7122,4.6637,4.6495,4.6253,4.6023,4.5871,4.5667,4.5389,4.5283,4.4961,4.4669,4.4502,4.4253,4.4039,4.3939,4.3704,4.3509,4.3449,4.3251,4.2929,4.2571,4.2508,4.2381,4.2238,4.2238,4.1964,4.1257,4.0534,3.9826,3.9167,3.856,3.8294,3.8294,3.8351,3.8391,3.8391,3.8448,3.8172,3.7718,3.7757,3.7351,3.6739,3.6218,3.5877,3.56,3.5112,3.4984,3.5002,3.4774,3.4791,3.4792,3.4562,3.4546,3.4594,3.4787,3.4851,3.4783,3.4472,3.3395,3.2309,3.2121,3.1616,3.1148,3.1328,3.1263,3.1252,3.1385,3.1614,3.1837,3.1946,3.2214,3.251,3.2876,3.3128,3.3426,3.3836,3.4087,3.4524,3.5245,3.5533,3.5943,3.6682,3.7162,3.7479,3.7656,3.8582,3.9222,3.939,4.0098,4.0924,4.1817,4.2165,4.2477,4.2781,4.3945,4.4679,4.4959,4.5486,4.5757,4.5757,4.5757,4.5757,4.5761,4.5727,4.5885,4.6179,4.6656,4.7526,4.8585,4.9067,4.9756,5.044,5.0393,5.0302,5.0212,4.7186,4.6888,4.6731,4.6637,4.6381,4.6154,4.6023,4.577,4.5563,4.5441,4.5283,4.5015,4.4558,4.4502,4.4406,4.4155,4.3998,4.3839,4.3628,4.3295,4.3052,4.2899,4.2696,4.2634,4.2634,4.2634,4.2278,4.1642,4.0853,4.0156,3.9476,3.8748,3.8408,3.8391,3.8391,3.8391,3.8391,3.8576,3.8616,3.8616,3.8766,3.8395,3.7789,3.7773,3.7331,3.6692,3.6692,3.6692,3.6577,3.584,3.5594,3.5463,3.4743,3.4594,3.4756,3.4994,3.5088,3.5135,3.5245,3.4755,3.4046,3.3309,3.2622,3.215,3.229,3.1777,3.1445,3.1726,3.1817,3.1927,3.2336,3.2423,3.2789,3.3921,3.416,3.4591,3.5657,3.5976,3.6153,3.6303,3.6564,3.6782,3.6907,3.7764,3.8418,3.8698,3.958,4.0215,4.0489,4.0523,4.0969,4.199,4.2873,4.375,4.4703,4.4641,4.5028,4.5905,4.5905,4.5905,4.5905,4.5905,4.5893,4.5893,4.5847,4.6308,4.7094,4.7044,4.7995,4.95,4.9432,4.9894,5.0606,5.0523,5.0416,5.0302,4.7187,4.6952,4.6795,4.6749,4.6542,4.6301,4.6154,4.6005,4.577,4.5563,4.5441,4.523,4.5015,4.4669,4.4446,4.4406,4.4155,4.3998,4.3822,4.3568,4.3372,4.3267,4.3068,4.2929,4.2929,4.2929,4.2876,4.2664,4.1961,4.1259,4.054,3.9805,3.9201,3.8711,3.8711,3.8711,3.8694,3.8694,3.8766,3.875,3.8805,3.8674,3.8444,3.7969,3.7642,3.738,3.6872,3.6744,3.6814,3.66,3.6569,3.6538,3.5909,3.5361,3.4994,3.5198,3.5245,3.5245,3.5383,3.5307,3.5026,3.4267,3.355,3.3093,3.3291,3.3322,3.3269,3.3404,3.3633,3.3876,3.4003,3.4252,3.4531,3.4898,3.5166,3.5462,3.5884,3.6102,3.6526,3.735,3.7594,3.7953,3.8664,3.9138,3.9488,3.9675,4.0118,4.0408,4.0489,4.1186,4.1969,4.2892,4.3802,4.4703,4.5606,4.5549,4.5641,4.5905,4.5905,4.5905,4.5905,4.5905,4.5905,4.5932,4.6519,4.6933,4.7248,4.843,4.9193,4.9679,5.0195,5.047,5.0606,5.0567,5.0504,5.0435,4.7249,4.707,4.6934,4.6888,4.6684,4.6495,4.6284,4.6154,4.6023,4.577,4.5615,4.5441,4.5283,4.4961,4.4742,4.4686,4.4406,4.4212,4.3998,4.3881,4.3747,4.3671,4.3552,4.3355,4.3113,4.3113,4.3113,4.3113,4.2425,4.1704,4.0967,4.0246,3.9509,3.8805,3.8805,3.8805,3.8805,3.886,3.886,3.8914,3.8985,3.8985,3.8936,3.8578,3.8414,3.8348,3.7903,3.7807,3.781,3.7564,3.7385,3.717,3.6819,3.6217,3.5616,3.5773,3.5602,3.5475,3.5566,3.5684,3.5681,3.5309,3.4585,3.404,3.4281,3.422,3.4172,3.431,3.4539,3.4761,3.4906,3.5154,3.5466,3.5906,3.6172,3.6534,3.7016,3.7261,3.7646,3.8329,3.857,3.8908,3.9543,3.9781,3.9996,4.0215,4.0718,4.1039,4.1094,4.2008,4.2925,4.3833,4.4424,4.5149,4.6037,4.5997,4.5986,4.5986,4.5986,4.5986,4.5986,4.6335,4.648,4.6504,4.7377,4.7927,4.8309,4.932,4.9945,5.0293,5.0684,5.0791,5.0718,5.0682,5.0625,5.0525,4.7363,4.7249,4.7178,4.7043,4.6888,4.6731,4.6477,4.6332,4.6186,4.6023,4.5821,4.5615,4.5441,4.5283,4.5177,4.5032,4.4742,4.4406,4.4155,4.4155,4.4155,4.4097,4.4097,4.3789,4.3235,4.3174,4.3174,4.3174,4.2534,4.1862,4.1123,4.0385,3.9647,3.8958,3.8892,3.886,3.886,3.8969,3.9023,3.9077,3.9272,3.9325,3.9325,3.9325,3.9325,3.9325,3.9325,3.9325,3.9279,3.8702,3.8104,3.7585,3.7634,3.7131,3.6558,3.6585,3.6219,3.5751,3.579,3.5932,3.6062,3.6259,3.5675,3.5111,3.5301,3.4806,3.448,3.4824,3.4935,3.5064,3.5437,3.5522,3.589,3.6946,3.7244,3.7656,3.8597,3.895,3.9129,3.921,3.9401,3.9599,3.9804,3.9892,4.0098,4.0492,4.1338,4.1909,4.2106,4.295,4.3814,4.4672,4.484,4.5298,4.6105,4.6113,4.6102,4.6093,4.6093,4.6132,4.623,4.7027,4.7417,4.7484,4.8358,4.914,4.9815,4.9892,5.0377,5.1101,5.0956,5.0906,5.089,5.0844,5.0738,5.0625,4.7468,4.7363,4.7232,4.7178,4.7043,4.6888,4.6731,4.659,4.6447,4.6186,4.6105,4.6005,4.5718,4.5494,4.5336,4.5336,4.5069,4.4742,4.4463,4.439,4.4293,4.4097,4.4097,4.4039,4.3923,4.3747,4.3628,4.3492,4.3343,4.2897,4.2154,4.1411,4.0701,4.0045,3.9466,3.9202,3.9218,3.9325,3.9379,3.9379,3.952,3.9625,3.9625,3.9625,3.9625,3.9625,3.9625,3.9625,3.9609,3.9441,3.8957,3.8355,3.8472,3.8098,3.7452,3.7,3.682,3.6655,3.6103,3.6088,3.6259,3.6301,3.6347,3.6383,3.64,3.6382,3.64,3.6478,3.6746,3.7005,3.7077,3.7307,3.76,3.795,3.8214,3.8499,3.8884,3.9073,3.9245,3.9427,3.9623,3.9781,3.9867,4.0119,4.0647,4.1437,4.1784,4.2273,4.2989,4.3884,4.4505,4.4762,4.5454,4.5939,4.6177,4.6174,4.6146,4.6093,4.6093,4.6463,4.7125,4.73,4.7767,4.8458,4.9314,4.978,4.9932,5.0569,5.0933,5.1102,5.1067,5.099,5.089,5.0874,5.0825,5.0738,4.7615,4.7511,4.7363,4.7356,4.7249,4.7116,4.6934,4.6842,4.6684,4.6447,4.6332,4.6253,4.6005,4.5786,4.558,4.5441,4.5283,4.5069,4.4742,4.4742,4.4686,4.4536,4.4536,4.4423,4.4293,4.4196,4.408,4.3864,4.3864,4.3481,4.2748,4.2349,4.1599,4.0567,4.0184,3.9818,3.9484,3.959,3.959,3.959,3.9677,3.9677,3.9677,3.9677,3.9677,3.9677,3.9677,3.9729,3.9798,3.9798,3.9631,3.9412,3.9479,3.9103,3.8567,3.8206,3.7712,3.7212,3.6818,3.6611,3.6485,3.6609,3.6771,3.6908,3.6829,3.6948,3.7087,3.7241,3.7466,3.7685,3.781,3.8068,3.8285,3.8469,3.8701,3.8892,3.9017,3.9219,3.9401,3.9575,3.9739,4.0063,4.061,4.09,4.1453,4.2399,4.296,4.3479,4.3986,4.4846,4.5356,4.5415,4.5899,4.6158,4.6201,4.6619,4.6801,4.678,4.678,4.7228,4.8086,4.8507,4.8919,4.9378,5.0246,5.0578,5.0549,5.0975,5.1147,5.1144,5.1108,5.1056,5.0981,5.0971,5.0909,5.0829,4.7717,4.7615,4.7511,4.7511,4.7407,4.7276,4.707,4.7025,4.6952,4.6684,4.6542,4.6447,4.6284,4.6137,4.5887,4.5529,4.5494,4.5389,4.514,4.5069,4.5086,4.5032,4.5032,4.4906,4.4558,4.4558,4.4406,4.4097,4.4097,4.3779,4.3176,4.3042,4.2339,4.1151,4.09,4.0447,3.9862,3.978,3.9729,3.9729,3.9781,3.9781,3.9781,3.9781,3.9781,3.9781,3.9781,3.9884,3.9986,3.9986,4.0138,4.0337,4.0337,4.0027,3.9593,3.9504,3.8717,3.7879,3.7802,3.7342,3.6957,3.7141,3.7154,3.7087,3.7087,3.7164,3.7261,3.7594,3.7703,3.7845,3.8101,3.8318,3.8496,3.8719,3.8892,3.9045,3.9137,3.9376,3.958,3.9717,4.0003,4.0591,4.1667,4.1923,4.2418,4.3361,4.4175,4.473,4.4986,4.5657,4.6056,4.6111,4.6317,4.6417,4.6424,4.7287,4.7811,4.7947,4.7947,4.8318,4.9054,4.9763,5.0153,5.0275,5.1,5.1267,5.122,5.122,5.1201,5.12,5.1147,5.1113,5.1095,5.1048,5.096,5.088,4.7717,4.7675,4.7615,4.7511,4.7468,4.7407,4.7276,4.7205,4.7133,4.6998,4.6842,4.6684,4.6542,4.6332,4.6087,4.5938,4.5803,4.5667,4.5546,4.5529,4.5441,4.5177,4.5177,4.5086,4.4923,4.4923,4.4648,4.4097,4.4097,4.4047,4.3946,4.3294,4.2875,4.2641,4.1368,4.0732,4.0598,4.0118,3.9901,3.9901,3.9986,4.0037,4.0037,4.0037,4.0037,4.007,4.0188,4.0288,4.0436,4.0436,4.0436,4.0485,4.0485,4.0514,4.0422,3.9812,3.9623,3.9465,3.8955,3.836,3.7912,3.7953,3.7736,3.7503,3.7503,3.754,3.7577,3.781,3.7967,3.8101,3.8318,3.8515,3.875,3.895,3.9017,3.9165,3.9427,3.9575,3.9717,3.9867,4.0706,4.1724,4.2783,4.2957,4.3395,4.4336,4.4638,4.5093,4.5802,4.6008,4.613,4.6189,4.6936,4.732,4.7312,4.8187,4.8996,4.9752,4.9747,4.9816,4.9931,5.0048,5.0511,5.1213,5.1349,5.1342,5.1292,5.1292,5.1248,5.1201,5.1201,5.115,5.1113,5.1095,5.1005,5.089,4.7801,4.7819,4.7759,4.7615,4.7615,4.7572,4.7407,4.7381,4.7294,4.7205,4.707,4.698,4.6842,4.659,4.6381,4.6235,4.6105,4.5955,4.5837,4.5752,4.5667,4.5563,4.5563,4.5441,4.5336,4.5336,4.5123,4.4686,4.4648,4.4592,4.4592,4.4253,4.3881,4.3457,4.2797,4.2035,4.1205,4.0985,4.0612,4.0238,4.0288,4.032,4.032,4.032,4.032,4.0337,4.0387,4.0436,4.0485,4.0485,4.0534,4.0631,4.068,4.084,4.0866,4.0626,4.0346,4.0123,3.9835,3.9381,3.8987,3.9124,3.8712,3.8329,3.851,3.8204,3.7915,3.8002,3.8186,3.8382,3.8546,3.8743,3.895,3.9045,3.9629,4.0087,4.0265,4.083,4.1275,4.1508,4.203,4.2768,4.3734,4.3921,4.4369,4.5311,4.544,4.5648,4.6084,4.6138,4.6403,4.6911,4.7301,4.7727,4.8226,4.9098,4.9731,5.0117,5.059,5.0824,5.0835,5.0825,5.104,5.1405,5.14,5.1388,5.1349,5.1323,5.1281,5.1267,5.1258,5.119,5.1093,5.1108,5.1056,5.1005]},{"header":{"parameterUnit":"m.s-1","parameterCategory":1,"la1":30.6,"la2":28.766,"lo1":-90.7593,"lo2":-88.6598,"dy":0.0162,"dx":0.0183,"nx":116,"ny":114,"refTime":"2023-05-17T12:00:00:Z","depth":0,"parameterNumber":3,"parameterNumberName":"V-component_of_WINDS"},"data":[0.0,0.0,0.0,0.0,0.0,0.0,0.0,0.0,0.0,0.0,0.0,0.0,0.0,0.0,0.0,0.0,0.0,0.0,0.0,0.0,0.0,0.0,0.0,0.0,0.0,0.0,0.0,0.0,0.0,0.0,0.0,0.0,0.0,0.0,0.0,0.0,0.0,0.0,0.0,0.0,0.0,0.0,0.0,0.0,0.0,0.0,0.0,0.0,0.0,0.0,0.0,0.0,0.0,0.0,0.0,0.0,0.0,0.0,0.0,0.0,0.0,0.0,0.0,0.0,0.0,0.0,0.0,0.0,0.0,0.0,0.0,0.0,0.0,0.0,0.0,0.0,0.0,0.0,0.0,0.0,0.0,0.0,0.0,0.0,0.0,0.0,0.0,0.0,0.0,0.0,0.0,0.0,0.0,0.0,0.0,0.0,0.0,0.0,0.0,0.0,0.0,0.0,0.0,0.0,0.0,0.0,0.0,0.0,0.0,0.0,0.0,0.0,0.0,0.0,0.0,0.0,0.0,0.0,0.0,0.0,0.0,0.0,0.0,0.0,0.0,0.0,0.0,0.0,0.0,0.0,0.0,0.0,0.0,0.0,0.0,0.0,0.0,0.0,0.0,0.0,0.0,0.0,0.0,0.0,0.0,0.0,0.0,0.0,0.0,0.0,0.0,0.0,0.0,0.0,0.0,0.0,0.0,0.0,0.0,0.0,0.0,0.0,0.0,0.0,0.0,0.0,0.0,0.0,0.0,0.0,0.0,0.0,0.0,0.0,0.0,0.0,0.0,0.0,0.0,0.0,0.0,0.0,0.0,0.0,0.0,0.0,0.0,0.0,0.0,0.0,0.0,0.0,0.0,0.0,0.0,0.0,0.0,0.0,0.0,0.0,0.0,0.0,0.0,0.0,0.0,0.0,0.0,0.0,0.0,0.0,0.0,0.0,0.0,0.0,0.0,0.0,0.0,0.0,0.0,0.0,0.0,0.0,0.0,0.0,0.0,0.0,0.0,0.0,0.0,0.0,0.0,0.0,0.0,0.0,0.0,0.0,0.0,0.0,0.0,0.0,0.0,0.0,0.0,0.0,0.0,0.0,0.0,0.0,0.0,0.0,0.0,0.0,0.0,0.0,0.0,0.0,0.0,0.0,0.0,0.0,0.0,0.0,0.0,0.0,0.0,0.0,0.0,0.0,0.0,0.0,0.0,0.0,0.0,0.0,0.0,0.0,0.0,0.0,0.0,0.0,0.0,0.0,0.0,0.0,0.0,0.0,0.0,0.0,0.0,0.0,0.0,0.0,0.0,0.0,0.0,0.0,0.0,0.0,0.0,0.0,0.0,0.0,0.0,0.0,0.0,0.0,0.0,0.0,0.0,0.0,0.0,0.0,0.0,0.0,0.0,0.0,0.0,0.0,0.0,0.0,0.0,0.0,0.0,0.0,0.0,0.0,0.0,0.0,0.0,0.0,0.0,0.0,0.0,0.0,0.0,0.0,0.0,0.0,0.0,0.0,0.0,0.0,0.0,0.0,0.0,0.0,0.0,0.0,0.0,0.0,0.0,0.0,0.0,0.0,0.0,0.0,0.0,0.0,0.0,0.0,0.0,0.0,0.0,0.0,0.0,0.0,0.0,0.0,0.0,0.0,0.0,0.0,0.0,0.0,0.0,0.0,0.0,0.0,0.0,0.0,0.0,0.0,0.0,0.0,0.0,0.0,0.0,0.0,0.0,0.0,0.0,0.0,0.0,0.0,0.0,0.0,0.0,0.0,0.0,0.0,0.0,0.0,0.0,0.0,0.0,0.0,0.0,0.0,0.0,0.0,0.0,0.0,0.0,0.0,0.0,0.0,0.0,0.0,0.0,0.0,0.0,0.0,0.0,0.0,0.0,0.0,0.0,0.0,0.0,0.0,0.0,0.0,0.0,0.0,0.0,0.0,0.0,0.0,0.0,0.0,0.0,0.0,0.0,0.0,0.0,0.0,0.0,0.0,0.0,0.0,0.0,0.0,0.0,0.0,0.0,0.0,0.0,0.0,0.0,0.0,0.0,0.0,0.0,0.0,0.0,0.0,0.0,0.0,0.0,0.0,0.0,0.0,0.0,0.0,0.0,0.0,0.0,0.0,0.0,0.0,0.0,0.0,0.0,0.0,0.0,0.0,0.0,0.0,0.0,0.0,0.0,0.0,0.0,0.0,0.0,0.0,0.0,0.0,0.0,0.0,0.0,0.0,0.0,0.0,0.0,0.0,0.0,0.0,0.0,0.0,0.0,0.0,0.0,0.0,0.0,0.0,0.0,0.0,0.0,0.0,0.0,0.0,0.0,0.0,0.0,0.0,0.0,0.0,0.0,0.0,0.0,0.0,0.0,0.0,0.0,0.0,0.0,0.0,0.0,0.0,0.0,0.0,0.0,0.0,0.0,0.0,0.0,0.0,0.0,0.0,0.0,0.0,0.0,0.0,0.0,0.0,0.0,0.0,0.0,0.0,0.0,0.0,0.0,0.0,0.0,0.0,0.0,0.0,0.0,0.0,0.0,0.0,0.0,0.0,0.0,0.0,0.0,0.0,0.0,0.0,0.0,0.0,0.0,0.0,0.0,0.0,0.0,0.0,0.0,0.0,0.0,0.0,0.0,0.0,0.0,0.0,0.0,0.0,0.0,0.0,0.0,0.0,0.0,0.0,0.0,0.0,0.0,0.0,0.0,0.0,0.0,0.0,0.0,0.0,0.0,0.0,0.0,0.0,0.0,0.0,0.0,0.0,0.0,0.0,0.0,0.0,0.0,0.0,0.0,0.0,0.0,0.0,0.0,0.0,0.0,0.0,0.0,0.0,0.0,0.0,0.0,0.0,0.0,0.0,0.0,0.0,0.0,0.0,0.0,0.0,0.0,0.0,0.0,0.0,0.0,0.0,0.0,0.0,0.0,0.0,0.0,0.0,0.0,0.0,0.0,0.0,0.0,0.0,0.0,0.0,0.0,0.0,0.0,0.0,0.0,0.0,0.0,0.0,0.0,0.0,0.0,0.0,0.0,0.0,0.0,0.0,0.0,0.0,0.0,0.0,0.0,0.0,0.0,0.0,0.0,0.0,0.0,0.0,0.0,0.0,0.0,0.0,0.0,0.0,0.0,0.0,0.0,0.0,0.0,0.0,0.0,0.0,0.0,0.0,0.0,0.0,0.0,0.0,0.0,0.0,0.0,0.0,0.0,0.0,0.0,0.0,0.0,0.0,0.0,0.0,0.0,0.0,0.0,0.0,0.0,0.0,0.0,0.0,0.0,0.0,0.0,0.0,0.0,0.0,0.0,0.0,0.0,0.0,0.0,0.0,0.0,0.0,0.0,0.0,0.0,0.0,0.0,0.0,0.0,0.0,0.0,0.0,0.0,0.0,0.0,0.0,0.0,0.0,0.0,0.0,0.0,0.0,0.0,0.0,0.0,0.0,0.0,0.0,0.0,0.0,0.0,0.0,0.0,0.0,0.0,0.0,0.0,0.0,0.0,0.0,0.0,0.0,0.0,0.0,0.0,0.0,0.0,0.0,0.0,0.0,0.0,0.0,0.0,0.0,0.0,0.0,0.0,0.0,0.0,0.0,0.0,0.0,0.0,0.0,0.0,0.0,0.0,0.0,0.0,0.0,0.0,0.0,0.0,0.0,0.0,0.0,0.0,0.0,0.0,0.0,0.0,0.0,0.0,0.0,0.0,0.0,0.0,0.0,0.0,0.0,0.0,0.0,0.0,0.0,0.0,0.0,0.0,0.0,0.0,0.0,0.0,0.0,0.0,0.0,0.0,0.0,0.0,0.0,0.0,0.0,0.0,0.0,0.0,0.0,0.0,0.0,0.0,0.0,0.0,0.0,0.0,0.0,0.0,0.0,0.0,0.0,0.0,0.0,0.0,0.0,0.0,0.0,0.0,0.0,0.0,0.0,0.0,0.0,0.0,0.0,0.0,0.0,0.0,0.0,0.0,0.0,0.0,0.0,0.0,0.0,0.0,0.0,0.0,0.0,0.0,0.0,0.0,0.0,0.0,0.0,0.0,0.0,0.0,0.0,0.0,0.0,0.0,0.0,0.0,0.0,0.0,0.0,0.0,0.0,0.0,0.0,0.0,0.0,0.0,0.0,0.0,0.0,0.0,0.0,0.0,0.0,0.0,0.0,0.0,0.0,0.0,0.0,0.0,0.0,0.0,0.0,0.0,0.0,0.0,0.0,0.0,0.0,0.0,0.0,0.0,0.0,0.0,0.0,0.0,0.0,0.0,0.0,0.0,0.0,0.0,0.0,0.0,0.0,0.0,0.0,0.0,0.0,0.0,0.0,0.0,0.0,0.0,0.0,0.0,0.0,0.0,0.0,0.0,0.0,0.0,0.0,0.0,0.0,0.0,0.0,0.0,0.0,0.0,0.0,0.0,0.0,0.0,0.0,0.0,0.0,0.0,0.0,0.0,0.0,0.0,0.0,0.0,0.0,0.0,0.0,0.0,0.0,0.0,0.0,0.0,0.0,0.0,0.0,0.0,0.0,0.0,0.0,0.0,0.0,0.0,0.0,0.0,0.0,0.0,0.0,0.0,0.0,0.0,0.0,0.0,0.0,0.0,0.0,0.0,0.0,0.0,0.0,0.0,0.0,0.0,0.0,0.0,0.0,0.0,0.0,0.0,0.0,0.0,0.0,0.0,0.0,0.0,0.0,0.0,0.0,0.0,0.0,0.0,0.0,0.0,0.0,0.0,0.0,0.0,0.0,0.0,0.0,0.0,0.0,0.0,0.0,0.0,0.0,0.0,0.0,0.0,0.0,0.0,0.0,0.0,0.0,0.0,0.0,0.0,0.0,0.0,0.0,0.0,0.0,0.0,0.0,0.0,0.0,0.0,0.0,0.0,0.0,0.0,0.0,0.0,0.0,0.0,0.0,0.0,0.0,0.0,0.0,0.0,0.0,0.0,0.0,0.0,0.0,0.0,0.0,0.0,0.0,0.0,0.0,0.0,0.0,0.0,0.0,0.0,0.0,0.0,0.0,0.0,0.0,0.0,0.0,0.0,0.0,0.0,0.0,0.0,0.0,0.0,0.0,0.0,0.0,0.0,0.0,0.0,0.0,0.0,0.0,0.0,0.0,0.0,0.0,0.0,0.0,0.0,0.0,0.0,0.0,0.0,0.0,0.0,0.0,0.0,0.0,0.0,0.0,0.0,0.0,0.0,0.0,0.0,0.0,0.0,0.0,0.0,0.0,0.0,0.0,0.0,0.0,0.0,0.0,0.0,0.0,0.0,0.0,0.0,0.0,0.0,0.0,0.0,0.0,0.0,0.0,0.0,0.0,0.0,0.0,0.0,0.0,0.0,0.0,0.0,0.0,0.0,0.0,0.0,0.0,0.0,0.0,0.0,0.0,0.0,0.0,0.0,0.0,0.0,0.0,0.0,0.0,0.0,0.0,0.0,0.0,0.0,0.0,0.0,0.0,0.0,0.0,0.0,0.0,0.0,0.0,0.0,0.0,0.0,0.0,0.0,0.0,0.0,0.0,0.0,0.0,0.0,0.0,0.0,0.0,0.0,0.0,0.0,0.0,0.0,0.0,0.0,0.0,0.0,0.0,0.0,0.0,0.0,0.0,0.0,0.0,0.0,0.0,0.0,0.0,0.0,0.0,0.0,0.0,0.0,0.0,0.0,0.0,0.0,0.0,0.0,0.0,0.0,0.0,0.0,0.0,0.0,0.0,0.0,0.0,0.0,0.0,0.0,0.0,0.0,0.0,0.0,0.0,0.0,0.0,0.0,0.0,0.0,0.0,0.0,0.0,0.0,0.0,0.0,0.0,0.0,0.0,0.0,0.0,0.0,0.0,0.0,0.0,0.0,0.0,0.0,0.0,0.0,0.0,0.0,0.0,0.0,0.0,0.0,0.0,0.0,0.0,0.0,0.0,0.0,0.0,0.0,0.0,0.0,0.0,0.0,0.0,0.0,0.0,0.0,0.0,0.0,0.0,0.0,0.0,0.0,0.0,0.0,0.0,0.0,0.0,0.0,0.0,0.0,0.0,0.0,0.0,0.0,0.0,0.0,0.0,0.0,0.0,0.0,0.0,0.0,0.0,0.0,0.0,0.0,0.0,0.0,0.0,1.1219,1.0875,0.0,0.0,0.0,0.0,0.0,0.0,0.0,0.0,0.0,0.0,0.0,0.0,0.0,0.0,0.0,0.0,0.0,0.0,0.0,0.0,0.0,0.0,0.0,0.0,0.0,0.0,0.0,0.0,0.0,0.0,0.0,0.0,0.0,0.0,0.0,0.0,0.0,0.0,0.0,0.0,0.0,0.0,0.0,0.0,0.0,0.0,0.0,0.0,0.0,0.0,0.0,0.0,0.0,0.0,0.0,0.0,0.0,0.0,0.0,0.0,0.0,0.0,0.0,0.0,0.0,0.0,0.0,0.0,0.0,0.0,0.0,0.0,0.0,0.0,0.0,0.0,0.0,0.0,0.0,0.0,0.0,0.0,0.0,0.0,0.0,0.0,0.0,0.0,0.0,0.0,0.0,0.0,0.0,0.0,0.0,0.0,0.0,0.0,0.0,0.0,0.0,0.0,0.0,0.0,0.0,0.0,0.0,0.0,0.0,0.0,0.0,0.0,0.0,0.0,1.2421,1.1875,0.0,0.0,0.0,0.0,0.0,0.0,0.0,0.0,0.0,0.0,0.0,0.0,0.0,0.0,0.0,0.0,0.0,0.0,0.0,0.0,0.0,0.0,0.0,0.0,0.0,0.0,0.0,0.0,0.0,0.0,0.0,0.0,0.0,0.0,0.0,0.0,0.0,0.0,0.0,0.0,0.0,0.0,0.0,0.0,0.0,0.0,0.0,0.0,0.0,0.0,0.0,0.0,0.0,0.0,0.0,0.0,0.0,0.0,0.0,0.0,0.0,0.0,0.0,0.0,0.0,0.0,0.0,0.0,0.0,0.0,0.0,0.0,0.0,0.0,0.0,0.0,0.0,0.0,0.0,0.0,0.0,0.0,0.0,0.0,0.0,0.0,0.0,0.0,0.0,0.0,0.0,0.0,0.0,0.0,0.0,0.0,0.0,0.0,0.0,0.0,0.0,0.0,0.0,0.0,0.0,0.0,0.0,0.0,1.4848,1.4889,1.4889,1.5052,1.5114,1.5052,1.394,1.3175,1.2735,1.2296,0.0,0.0,0.0,0.0,0.0,0.0,0.0,0.0,0.0,0.0,0.0,0.0,0.0,0.0,0.0,0.0,0.0,0.0,0.0,0.0,0.0,0.0,0.0,0.0,0.0,0.0,0.0,0.0,0.0,0.0,0.0,0.0,0.0,0.0,0.0,0.0,0.0,0.0,0.8784,0.883,0.883,0.8746,0.7853,0.0,0.0,0.0,0.0,0.0,0.0,0.0,0.0,0.0,0.0,0.0,0.0,0.0,0.0,0.0,0.0,0.0,0.0,0.0,0.0,0.0,0.0,0.0,0.0,0.0,0.0,0.0,0.0,0.0,0.0,0.0,0.0,0.0,0.0,0.0,0.0,0.0,0.0,0.0,0.0,0.0,0.0,0.0,1.1741,1.182,0.0,0.0,0.0,0.0,0.0,0.0,0.0,0.0,0.0,0.0,0.0,0.0,0.0,1.5028,1.5194,1.5257,1.5289,1.5289,1.5775,1.5977,1.6009,1.6804,1.7222,1.7154,1.6801,0.0,1.4284,1.4224,0.0,0.0,0.0,0.0,0.0,0.0,0.0,0.0,0.0,0.0,0.0,0.0,0.0,0.0,0.0,0.0,0.0,0.0,0.0,0.0,0.0,0.0,0.0,0.0,0.0,0.0,0.0,0.0,0.0,0.0,0.0,0.0,0.0,0.0,0.0,0.0,0.8595,0.8906,0.9097,0.919,0.9229,0.9213,0.879,0.8543,0.8407,0.8103,0.0,0.0,0.0,0.0,0.0,0.0,0.0,0.0,0.0,0.0,0.0,0.0,0.0,0.0,0.0,0.0,0.0,0.0,0.0,0.0,0.0,0.0,0.0,0.0,0.0,0.0,0.0,0.0,0.0,0.0,0.0,0.0,0.0,0.0,0.0,0.0,0.0,0.0,0.0,1.2277,1.2711,1.2711,1.325,1.3555,0.0,0.0,0.0,0.0,0.0,0.0,0.0,0.0,0.0,1.6071,1.639,1.6701,1.6956,1.6967,1.6967,1.6967,1.7179,1.7344,1.7365,1.7771,1.7952,1.7952,1.7832,1.7364,1.6582,1.5792,1.5279,1.4992,0.0,0.0,0.0,0.0,1.4609,1.4609,0.0,0.0,0.0,0.0,0.0,0.0,0.0,0.0,0.0,0.0,0.0,0.0,0.0,0.0,0.0,0.6109,0.0,0.0,0.0,0.0,0.0,0.0,0.0,0.0,0.0,0.0,0.0,0.0,0.936,0.9452,0.9585,0.976,0.9848,0.9848,0.9987,0.9692,0.9167,0.8941,0.8735,0.0,0.0,0.0,0.0,0.0,0.0,0.0,0.0,0.0,0.0,0.0,0.0,0.0,0.0,0.0,0.0,0.0,0.0,0.0,0.0,0.0,0.0,0.0,0.0,0.0,0.0,0.0,0.0,0.0,0.0,0.0,0.0,0.0,0.0,0.0,0.0,0.0,0.0,1.3168,1.3728,1.3728,1.442,1.4976,0.0,0.0,0.0,0.0,0.0,0.0,1.6105,1.6511,1.6874,1.7216,1.7627,1.7969,1.8312,1.8312,1.8312,1.8312,1.8441,1.8494,1.8505,1.8623,1.8687,1.8676,1.8676,1.8614,1.8539,1.7256,1.644,1.6017,1.6017,1.5813,1.5505,1.5505,1.5505,1.5505,0.0,0.0,0.0,0.0,0.0,0.0,0.0,0.0,0.0,0.0,0.0,0.0,0.0,0.0,0.6317,0.6468,0.6881,0.7126,0.0,0.0,0.0,0.0,0.0,0.0,0.0,0.0,0.0,0.9768,1.0105,1.0486,1.0923,1.1241,1.1384,1.1384,1.1615,1.0809,0.9398,0.9374,0.9358,0.9342,0.0,0.0,0.0,0.0,0.0,0.0,0.0,0.0,0.0,0.0,0.0,0.0,0.0,0.0,0.0,0.0,0.0,0.0,0.0,0.0,0.0,0.0,0.0,0.0,0.0,0.0,0.0,0.0,0.0,0.0,0.0,0.0,0.0,0.0,0.0,0.0,0.0,0.0,0.0,1.4925,1.505,0.0,0.0,0.0,0.0,1.7429,1.7856,1.8052,1.8041,1.8073,1.8176,1.8401,1.8423,1.8505,1.8687,1.8687,1.8687,1.8687,1.9095,1.9312,1.9334,1.9802,2.0009,2.0009,1.9868,1.9792,1.9727,1.8571,1.8105,1.8084,1.8084,1.8073,1.8052,1.8052,1.8052,1.8052,0.0,0.0,0.0,0.0,0.0,0.0,0.0,0.0,0.0,0.0,0.0,0.0,0.0,0.624,0.656,0.6915,0.729,0.7591,0.7708,0.0,0.0,0.0,0.0,0.0,0.0,0.0,1.0441,1.0885,1.1012,1.1193,1.155,1.1663,1.172,1.1832,1.1896,1.1609,1.1031,1.0573,1.0377,1.0336,0.9831,0.9571,0.0,0.0,0.0,0.0,0.0,0.0,0.0,0.0,0.0,0.0,0.0,0.0,0.0,0.0,0.0,0.0,0.0,0.0,0.0,0.0,0.0,0.0,0.0,0.0,0.0,0.0,0.0,0.0,0.0,0.0,0.0,0.0,0.0,0.0,0.0,0.0,0.0,1.6153,1.6715,0.0,1.7366,1.7594,1.7835,1.8147,1.8309,1.8455,1.8505,1.9089,1.9488,1.9742,2.0358,2.0765,2.0952,2.0952,2.0952,2.0952,2.1141,2.1219,2.123,2.1408,2.1486,2.1419,2.1419,2.1407,2.1318,2.083,1.9803,1.8647,1.8647,1.8456,1.819,1.819,1.819,1.819,0.0,0.0,0.0,0.0,0.0,0.0,0.0,0.0,0.0,0.0,0.0,0.5615,0.6219,0.652,0.6867,0.7339,0.7632,0.7919,0.8153,0.0,0.0,0.0,0.0,0.0,0.0,1.0888,1.1217,1.1608,1.1728,1.1849,1.2028,1.2151,1.2323,1.2555,1.2497,1.2505,1.263,1.1894,1.1456,1.1245,1.0764,1.0376,1.0153,0.0,0.0,0.0,0.0,0.0,0.0,0.0,0.0,0.0,0.0,0.0,0.0,0.0,0.0,0.0,0.0,0.0,0.0,0.0,0.0,0.0,0.0,0.0,0.0,0.0,0.0,0.0,0.0,0.0,0.0,0.0,0.0,0.0,0.0,1.6623,1.7275,1.7275,1.7888,1.8451,1.8762,1.8794,1.907,1.9595,1.9628,1.9745,1.986,2.0478,2.0886,2.1007,2.1653,2.2079,2.2217,2.2217,2.2217,2.2217,2.2217,2.2217,2.2217,2.2217,2.2217,2.2217,2.2217,2.2217,2.2217,2.2079,2.1228,2.0009,1.9878,1.9619,1.934,1.934,1.934,1.934,0.0,0.0,0.0,0.0,0.0,0.0,0.0,0.0,0.0,0.0,0.5438,0.5863,0.629,0.673,0.719,0.7685,0.7884,0.8146,0.8515,0.9096,0.0,0.0,0.0,0.0,1.1334,1.1455,1.1632,1.1833,1.2183,1.2421,1.2555,1.291,1.3265,1.3642,1.3434,1.3538,1.3878,1.328,1.2694,1.2074,1.2025,1.1585,1.0955,0.0,0.0,0.0,0.0,0.0,0.0,0.0,0.0,0.0,0.0,0.0,0.0,0.0,0.0,0.0,0.0,0.0,0.0,0.0,0.0,0.0,0.0,0.0,0.0,0.0,0.0,0.0,0.0,0.0,0.0,0.0,0.0,0.0,1.686,1.7648,1.8233,1.8233,1.847,1.8981,1.989,2.0118,2.0643,2.1793,2.194,2.2009,2.2217,2.2228,2.2239,2.2239,2.2262,2.2273,2.2262,2.2262,2.2262,2.2262,2.2262,2.2262,2.2262,2.2262,2.2262,2.2262,2.2262,2.2262,2.2262,2.2273,2.2262,2.2192,2.1812,2.1592,2.1592,2.1592,2.1592,2.1662,0.0,0.0,0.0,0.0,0.0,0.0,0.0,0.0,0.0,0.0,0.5664,0.6085,0.6654,0.6987,0.7326,0.7811,0.8172,0.8576,0.9104,0.0,0.0,0.0,0.0,0.0,1.1993,1.2059,1.2427,1.3133,1.317,1.3484,1.3886,1.3986,1.4151,1.4382,1.4354,1.4362,1.4512,1.4409,1.4253,1.3993,1.2777,1.2159,1.1981,0.0,0.0,0.0,0.0,0.0,0.0,0.0,0.0,0.0,0.0,0.0,0.0,0.0,0.0,0.0,0.0,0.0,0.0,0.0,0.0,0.0,0.0,0.0,0.0,0.0,0.0,0.0,0.0,0.0,0.0,0.0,1.8772,1.8989,1.8175,1.8887,1.9554,1.9554,2.0369,2.1039,2.1303,2.1541,2.1788,2.2056,2.2148,2.2148,2.2217,2.2542,2.2804,2.2945,2.3236,2.3489,2.3644,2.3644,2.3644,2.3644,2.3644,2.3644,2.3644,2.3644,2.3644,2.3644,2.3644,2.3644,2.3644,2.3489,2.3417,2.3349,2.2428,2.2009,2.2009,2.2009,2.2009,2.2009,0.0,0.0,0.0,0.0,0.0,0.0,0.0,0.0,0.0,0.0,0.5782,0.6149,0.6848,0.7276,0.7656,0.8091,0.8544,0.9014,0.9545,0.0,0.0,0.0,0.0,1.2059,1.2489,1.2756,1.3157,1.3713,1.3863,1.412,1.4544,1.4544,1.4695,1.504,1.4875,1.495,1.5164,1.5055,1.505,1.4971,1.3944,1.3395,1.3107,1.3222,1.3019,1.2668,1.2387,1.2322,1.2274,1.1789,0.0,0.0,0.0,0.0,0.0,0.0,0.0,0.0,0.0,0.0,0.0,0.0,0.0,0.0,0.0,0.0,0.0,0.0,0.0,0.0,0.0,0.0,0.0,0.0,1.996,2.0291,2.0072,2.0534,2.0885,2.0952,2.1596,2.2087,2.2288,2.2439,2.2599,2.2883,2.2905,2.2976,2.3047,2.35,2.3761,2.3906,2.4408,2.4682,2.4832,2.4613,2.4499,2.4499,2.4292,2.42,2.42,2.42,2.42,2.42,2.42,2.4315,2.4487,2.434,2.4477,2.4505,0.0,0.0,0.0,0.0,2.2823,2.2905,0.0,0.0,0.0,0.0,0.0,0.0,0.0,0.0,0.0,0.0,0.0,0.6188,0.6961,0.7563,0.8049,0.8447,0.8929,0.9422,0.0,0.0,0.0,1.1996,1.2244,1.2557,1.2915,1.3413,1.3747,1.403,1.4368,1.462,1.4878,1.487,1.5117,1.5547,1.5199,1.5367,1.5801,1.5521,1.5379,1.5379,1.5379,1.4916,1.4221,1.4282,1.3817,1.3155,1.3221,1.3341,1.335,1.3094,0.0,0.0,0.0,0.0,0.0,0.0,0.0,0.0,0.0,0.0,0.0,0.0,0.0,0.0,0.0,0.0,0.0,0.0,0.0,0.0,0.0,0.0,0.0,0.0,2.0794,2.1295,2.2172,2.2257,2.221,2.2237,2.2351,2.2576,2.3048,2.3093,2.3368,2.4033,2.4067,2.4214,2.4361,2.4774,0.0,0.0,0.0,2.5716,2.5716,2.5245,2.5004,2.5004,2.4568,2.4372,2.4372,2.4372,2.4372,2.4372,2.4372,2.4613,2.5004,2.5004,2.5279,2.5547,2.4333,2.3835,2.3835,2.3779,2.383,2.405,0.0,0.0,0.0,0.0,0.0,0.0,0.0,0.0,0.0,0.575,0.59,0.6226,0.7058,0.7614,0.8049,0.8447,0.9026,0.9721,0.0,0.0,1.1639,1.2246,1.2546,1.2993,1.3668,1.3807,1.4199,1.4933,1.5154,1.5479,1.5843,1.5922,1.6026,1.6157,1.6078,1.6086,1.6227,1.6276,1.6309,1.6309,1.6533,1.5927,1.5023,1.515,1.4917,1.4526,1.4427,1.4211,1.3933,1.3685,1.3647,1.3739,1.3756,0.0,0.0,0.0,0.0,0.0,0.0,0.0,0.0,0.0,0.0,0.0,0.0,0.0,0.0,0.0,0.0,0.0,0.0,0.0,0.0,2.1688,2.2181,2.2565,2.2979,2.3704,2.3835,2.288,2.3221,2.3806,2.4306,2.4477,2.4768,2.5306,2.5341,2.5341,2.5417,2.5509,2.5566,2.5566,2.5658,2.5716,2.5716,2.5612,2.5566,2.5555,2.5463,0.0,2.5417,2.5417,2.5417,2.5417,2.5417,2.5474,2.5566,2.5566,2.5624,2.5693,2.5421,2.5264,2.5207,2.4785,2.47,2.4642,0.0,0.0,0.0,0.0,0.0,0.0,0.0,0.0,0.0,0.0,0.5893,0.6265,0.7189,0.7657,0.8101,0.8555,0.9271,0.0,0.0,1.14,1.1906,1.2514,1.289,1.3347,1.3903,1.4162,1.4667,1.5359,1.5618,1.5948,1.6202,1.6272,1.6342,1.6473,1.6473,1.6482,1.6621,1.6821,1.689,1.689,1.7116,1.6875,1.6352,1.614,1.5873,1.552,1.5233,1.5072,1.4866,1.4465,1.4418,1.4488,1.4433,1.447,1.4629,0.0,0.0,0.0,0.0,0.0,0.0,0.0,0.0,0.0,0.0,0.0,0.0,0.0,0.0,2.0437,0.0,0.0,2.1778,2.2592,2.3194,2.3674,2.3986,2.4682,2.4888,2.3965,2.4403,2.4899,2.515,2.5238,2.5417,2.5693,2.5716,2.5716,2.5716,2.6035,2.6251,2.6251,2.6584,2.679,2.679,2.6523,2.6384,2.6384,2.6128,2.6012,2.6012,2.6012,2.6012,2.6012,2.6012,2.6151,2.6407,2.6686,2.679,2.679,2.679,2.632,2.5681,2.5546,2.5442,2.5408,0.0,0.0,0.0,0.0,0.0,0.0,0.0,0.0,0.0,0.0,0.5893,0.6265,0.7307,0.7694,0.8175,0.0,0.0,0.0,0.0,1.1616,1.211,1.2834,1.3119,1.3512,1.4005,1.4512,1.5031,1.5608,1.5983,1.6272,1.6342,1.6412,1.6473,1.6682,1.6673,1.6821,1.6968,1.7176,1.7245,1.7245,1.7461,1.7539,1.7491,1.7015,1.6619,1.6277,1.6008,1.5961,1.5892,1.5303,1.5209,1.5243,1.4958,1.5039,1.5273,1.539,1.5604,0.0,0.0,0.0,0.0,0.0,0.0,0.0,0.0,0.0,2.0339,2.0871,2.1318,2.1745,2.2331,2.2558,2.2924,2.3424,2.4082,2.4625,2.5015,2.5532,2.5704,2.5268,2.5509,2.575,2.5853,2.5853,2.5899,2.6069,2.6081,2.6081,2.6081,2.6709,2.7021,2.7021,2.7589,2.7893,2.7893,2.7446,2.7234,2.7223,2.6811,2.6611,2.6611,2.6611,2.6611,2.6611,2.6611,2.6847,2.7258,2.7705,2.7893,2.7893,2.7893,2.7125,2.6147,2.6174,2.6205,2.6193,0.0,0.0,0.0,0.0,0.0,0.0,0.0,0.0,0.0,0.0,0.0,0.0,0.0,0.0,0.0,0.0,0.0,0.0,1.1439,1.1664,1.2159,1.2956,1.318,1.3701,1.4607,1.4772,1.5268,1.6,1.6385,1.6533,1.6533,1.676,1.6839,1.6908,1.7028,1.7166,1.7166,1.7392,1.747,1.747,1.747,1.7598,1.7706,1.759,1.7264,1.6845,1.691,1.6834,1.6635,1.6276,1.6277,1.6375,1.6046,1.6352,1.6857,1.6984,0.0,1.7882,1.8083,1.8458,1.8906,1.9448,2.005,2.0613,0.0,0.0,2.1912,2.2048,2.215,2.2468,2.2967,2.3575,2.4189,2.4597,2.5187,2.5566,2.5612,2.606,2.6358,2.6301,2.5945,2.5888,2.6335,2.6381,2.6645,2.7232,2.7267,2.7359,2.7636,2.7763,2.7799,2.7799,2.7857,2.7893,2.7893,2.7822,2.7799,2.7799,2.774,2.7716,2.7716,2.7716,2.7716,2.7716,2.7716,2.7752,2.7799,2.7869,2.7893,2.7893,2.7893,2.7822,2.7577,2.7164,2.6988,2.6917,0.0,0.0,0.0,0.0,0.0,0.0,0.0,0.0,0.0,0.0,0.0,0.0,0.0,0.0,0.0,0.0,0.0,0.0,1.1279,1.1726,1.2183,1.2822,1.3228,1.3879,1.4772,1.4846,1.5419,1.6403,1.6533,1.6682,1.676,1.6968,1.7097,1.7107,1.7245,1.7392,1.7392,1.752,1.7657,1.7657,1.7735,1.7872,1.8056,1.8056,1.7958,1.7782,1.7517,1.7421,0.0,0.0,1.7124,1.7277,1.7202,1.7455,1.7782,1.7924,1.8184,0.0,1.9375,1.9706,2.002,0.0,2.1375,2.1643,2.1902,2.2411,2.2773,2.2854,2.3438,2.3895,2.4173,2.4642,2.5142,0.0,2.5819,2.623,2.6309,2.6736,2.714,2.7312,2.7125,2.6999,2.7117,2.722,2.7405,2.7696,2.7708,2.7788,2.7881,2.8042,2.8111,2.8111,2.8191,2.8283,2.8283,2.8283,2.8283,2.8283,2.8283,2.8283,2.8283,2.8283,2.8283,2.8283,2.8283,2.8283,2.8283,2.8283,2.8283,2.8283,2.8283,2.8283,2.8247,2.785,2.7767,2.7731,0.0,0.0,0.0,0.0,0.0,0.0,0.0,0.0,0.0,0.0,0.0,0.0,0.0,0.0,0.0,0.0,0.0,0.0,0.0,1.1699,1.2222,1.2655,1.3254,1.3942,1.4737,1.4819,1.5393,1.645,1.6519,1.6651,1.6968,1.7107,1.7235,1.7314,1.7451,1.7529,1.7598,1.7716,1.7784,1.7852,1.7998,1.8212,1.8337,1.8337,1.8482,1.8509,1.8045,1.7991,0.0,0.0,1.7905,1.8082,1.807,1.8224,1.8516,1.866,1.8967,1.9484,2.062,2.0907,0.0,2.2194,2.2488,2.2626,2.3026,2.3356,2.3735,2.3967,2.4636,2.513,2.513,2.5566,2.5922,2.6,2.6414,2.6828,2.7079,2.7393,2.7696,2.7881,2.8091,2.8162,2.7894,2.787,2.7881,2.7962,2.7962,2.8042,2.8042,2.8191,2.8259,2.8259,2.8431,2.851,2.851,2.851,2.851,2.851,2.851,2.851,2.851,2.851,2.851,2.851,2.851,2.851,2.851,2.851,2.851,2.851,2.851,2.851,2.851,2.8339,2.8259,2.8339,0.0,0.0,0.0,0.0,0.0,0.0,0.0,0.0,0.0,0.0,0.0,0.0,0.0,0.0,0.0,0.0,0.0,0.0,0.0,1.1699,1.2222,1.2655,1.3382,1.3952,1.429,1.4675,1.525,1.6044,1.6196,1.6591,1.7166,1.7166,1.7314,1.747,1.7647,1.7706,1.7706,1.793,1.8076,1.8269,1.8269,1.8337,1.8482,1.8482,1.8617,1.8741,1.8529,0.0,0.0,1.8451,1.851,1.8638,1.8277,1.8623,0.0,1.9198,2.0117,2.1241,2.1968,0.0,2.248,2.306,2.3267,2.3601,2.4625,2.4855,2.5015,2.5532,2.567,2.5693,2.5693,2.6106,2.653,2.6767,2.7174,2.7592,2.7857,2.7881,2.7881,2.7893,2.8549,2.8928,2.8928,2.8326,2.7962,2.8179,2.8179,2.8259,2.851,2.851,2.851,2.851,2.851,2.851,2.851,2.851,2.851,2.851,2.851,2.851,2.851,2.851,2.851,2.851,2.851,2.851,2.851,2.851,2.851,2.851,2.851,2.851,2.851,2.851,2.851,2.851,0.0,0.0,0.0,0.0,0.0,0.0,0.0,0.0,0.0,0.0,0.0,0.0,0.0,0.0,0.0,0.0,0.0,0.0,0.0,1.1259,1.1864,1.2456,1.307,1.3751,1.4506,1.4782,1.5169,1.5825,1.6241,1.6578,1.6775,1.7309,1.7579,1.7647,1.7794,1.793,1.793,1.8134,1.8269,1.8337,1.8414,1.8549,1.8684,1.8684,1.8885,1.9152,0.0,0.0,0.0,1.9162,1.9306,1.9479,1.9372,1.9782,2.0435,2.0829,2.143,2.2002,2.2693,0.0,2.3583,2.4146,2.4608,2.5038,2.5371,2.544,2.5497,2.567,2.598,2.6209,2.6209,2.6771,2.7198,2.7267,2.751,2.7869,2.8111,2.8407,2.8702,2.8796,2.9331,0.0,2.9738,2.9499,2.9391,2.9474,2.9462,2.9462,2.9556,2.9556,2.94,2.9039,2.9027,2.8871,2.851,2.851,2.851,2.851,2.851,2.851,2.851,2.851,2.851,2.851,2.851,2.851,2.851,2.851,2.851,2.851,2.851,2.851,2.851,2.851,2.851,2.851,0.0,0.0,0.0,0.0,0.0,0.0,0.0,0.0,0.0,0.0,0.0,0.0,0.0,0.0,0.0,0.0,0.0,0.0,0.0,0.0,1.1631,1.2184,1.2859,1.3538,1.4152,1.4556,1.5022,1.5478,1.5937,1.6272,1.6478,1.6997,1.7341,1.7629,1.7716,1.7939,1.8144,1.8279,1.8337,1.8472,1.8549,1.8649,1.8629,1.8695,1.8903,0.0,0.0,0.0,0.0,1.9671,1.9802,1.9933,1.9944,2.0467,2.1195,2.2134,2.2599,2.2917,2.3606,2.4192,2.4659,2.5043,2.5463,2.5761,2.5934,2.598,2.6037,2.6221,2.6587,2.6886,2.6886,2.7313,2.7696,2.7765,2.7857,2.817,2.8521,2.8913,2.92,2.9556,3.005,3.0374,0.0,0.0,3.0494,3.0122,3.0086,3.0086,3.0086,3.0086,2.9929,2.9593,2.9581,2.9412,2.9076,2.8883,2.8703,2.851,2.851,2.851,2.851,2.851,2.851,2.851,2.851,2.851,2.851,2.851,2.851,2.851,2.851,2.851,2.851,2.851,2.851,2.851,0.0,0.0,0.0,0.0,0.0,0.0,0.0,0.0,0.0,0.0,0.0,0.0,0.0,0.0,0.0,0.0,0.0,0.0,0.0,0.0,0.0,1.1788,1.2788,1.3354,1.3371,1.4083,1.4662,1.5038,1.5207,1.5598,1.6154,1.631,1.6741,1.7344,1.7353,1.7701,1.82,1.8277,1.8469,1.8736,1.8736,1.8613,1.8404,1.8542,0.0,0.0,0.0,0.0,0.0,0.0,0.0,1.9976,2.014,2.0676,2.1531,2.2829,2.3606,2.4107,2.4711,2.5325,2.575,2.575,2.5773,2.5911,2.6393,2.6508,2.6634,2.7128,2.7371,2.7522,0.0,0.0,2.7962,2.8179,2.8179,2.8438,2.922,2.9316,2.9532,0.0,0.0,0.0,0.0,0.0,0.0,3.0242,3.017,3.017,3.017,3.017,3.0158,3.0122,3.0122,3.011,3.0086,2.9593,2.9076,2.8546,2.8546,2.8534,2.851,2.851,2.851,2.851,2.851,2.851,2.851,2.851,2.851,2.851,2.851,2.851,2.851,2.851,2.851,2.851,0.0,0.0,0.0,0.0,0.0,0.0,0.0,0.0,0.0,0.0,0.0,0.0,0.0,0.0,0.0,0.0,0.0,0.0,0.0,0.0,0.0,0.0,0.0,0.0,0.0,0.0,0.0,0.0,1.5102,1.5572,1.5747,1.6384,1.6724,1.6904,1.7022,1.7209,1.7372,1.7627,1.7754,1.7818,0.0,1.7988,1.8061,0.0,0.0,0.0,0.0,0.0,0.0,0.0,0.0,0.0,0.0,2.2034,2.2818,2.3523,2.413,2.4677,2.4877,2.5578,2.6278,2.6278,2.6565,2.6875,2.7001,2.7036,2.707,2.7208,2.7371,2.7522,0.0,0.0,0.0,2.8179,2.8351,0.0,2.922,2.9641,0.0,3.0615,0.0,3.1468,3.1468,3.1589,0.0,3.1288,3.1264,3.1264,3.1264,3.1264,3.1084,3.0687,3.0675,3.0482,3.0086,2.9953,2.9629,2.91,2.91,2.8895,2.851,2.851,2.851,2.851,2.851,2.851,2.851,2.851,2.851,2.851,2.851,2.851,2.851,2.851,2.8578,2.8724,0.0,0.0,0.0,0.0,0.0,0.0,0.0,0.0,0.0,0.0,0.0,0.0,0.0,0.0,0.0,0.0,0.0,0.0,0.0,0.0,0.0,0.0,0.0,0.0,0.0,0.0,0.0,0.0,0.0,0.0,1.5115,1.5776,1.625,1.6436,1.656,1.6792,1.7106,1.7294,0.0,0.0,0.0,0.0,0.0,0.0,0.0,0.0,0.0,0.0,0.0,0.0,0.0,2.1285,2.1911,2.2612,2.3356,2.4073,0.0,2.5314,2.5532,2.6186,2.6795,2.6795,2.7013,2.7231,2.7231,2.7059,2.6887,2.6967,2.7023,0.0,2.739,2.7755,0.0,0.0,0.0,0.0,2.9532,2.9893,3.0374,0.0,3.148,0.0,3.1661,3.1661,3.1661,3.1661,3.1661,3.1661,3.1661,3.1661,3.1529,3.1228,3.1216,3.0963,3.0446,3.0434,3.017,2.9641,2.9641,2.9364,2.8859,2.8859,2.8727,2.851,2.851,2.851,2.851,2.851,2.851,2.851,2.851,2.851,2.851,2.8578,2.887,2.9144,0.0,0.0,0.0,0.0,0.0,0.0,0.0,0.0,0.0,0.0,0.0,0.0,0.0,0.0,0.0,0.0,0.0,0.0,0.0,0.0,0.0,0.0,0.0,0.0,0.0,0.0,0.0,0.0,0.0,0.0,0.0,0.0,0.0,0.0,0.0,0.0,0.0,0.0,0.0,0.0,0.0,0.0,0.0,0.0,0.0,0.0,0.0,0.0,0.0,0.0,2.0786,2.1442,2.2196,2.2855,2.3564,2.4562,2.5291,2.583,2.6324,2.6841,2.7231,2.7231,2.7231,2.7208,2.7151,2.6783,2.6518,2.6595,0.0,2.6512,2.7204,2.7514,2.7873,2.833,0.0,2.8883,2.9941,3.0086,3.0482,3.1541,3.1661,3.1661,3.1661,3.1661,3.1661,3.1661,3.1661,3.1661,3.1661,3.1661,3.1661,3.1661,3.1661,3.1444,3.0987,3.0975,3.0723,3.0194,3.0194,2.9917,2.94,2.94,2.916,2.8727,2.8727,2.8727,2.8727,2.8727,2.8727,2.8727,2.8727,2.8715,2.8795,2.893,2.9382,2.9866,0.0,0.0,0.0,0.0,0.0,0.0,0.0,0.0,0.0,0.0,0.5998,0.6449,0.0,0.0,0.0,0.0,0.0,0.0,0.0,0.0,0.0,0.0,0.0,0.0,0.0,0.0,0.0,0.0,0.0,0.0,0.0,0.0,0.0,0.0,0.0,0.0,0.0,0.0,0.0,0.0,0.0,0.0,0.0,0.0,0.0,0.0,0.0,0.0,0.0,0.0,2.0915,2.2104,2.2309,2.3165,2.4177,2.474,2.5291,2.583,2.6324,2.6841,2.7231,2.7231,2.7231,2.7116,2.6691,2.6531,0.0,0.0,2.6223,2.6406,2.6652,2.7275,2.7753,2.7837,0.0,0.0,0.0,0.0,3.0482,0.0,0.0,3.1661,3.1661,3.1661,0.0,3.1661,3.1661,3.1661,3.1661,3.1661,3.1661,3.1661,3.1661,3.1625,3.1529,3.1529,3.1264,3.0735,3.0735,3.0458,2.9953,2.9953,2.9893,2.9809,2.9809,2.9809,2.9809,2.9809,2.9809,2.9809,2.9809,2.988,3.0034,3.0117,3.0437,3.0852,0.0,0.0,0.0,0.0,0.0,0.0,0.0,0.4694,0.5157,0.5825,0.6097,0.6507,0.7321,0.7503,0.0,0.0,0.0,0.0,0.0,0.0,0.0,0.0,0.0,0.0,0.0,0.0,1.225,1.2411,0.0,0.0,0.0,1.4032,1.4344,1.4453,0.0,0.0,0.0,0.0,0.0,0.0,0.0,0.0,0.0,0.0,0.0,0.0,0.0,0.0,0.0,0.0,2.0714,2.1857,2.2389,2.312,2.3948,2.4694,2.5291,2.583,2.6324,2.6841,2.7162,2.6898,2.6829,2.6691,2.6186,0.0,0.0,0.0,2.5632,2.5663,2.622,0.0,0.0,0.0,0.0,0.0,0.0,0.0,0.0,0.0,0.0,3.1661,0.0,3.1661,3.1661,3.1661,3.1661,3.1661,3.1661,3.1661,3.1661,3.1661,3.1661,3.1661,3.1661,3.1661,3.1541,3.1288,3.1288,3.1011,3.0494,3.0494,3.035,3.0086,3.0086,3.0086,3.0086,3.0086,3.0086,3.0086,3.0086,3.0241,3.0396,3.0587,3.1021,3.1506,0.0,0.0,0.0,0.0,0.0,0.0,0.0,0.4706,0.5186,0.5757,0.6155,0.6611,0.7259,0.737,0.7579,0.0,0.0,0.0,0.0,0.0,0.0,0.0,0.0,0.0,0.0,0.0,0.0,1.2076,1.2489,0.0,0.0,0.0,0.0,0.0,1.4038,1.4291,0.0,0.0,0.0,0.0,0.0,1.531,0.0,0.0,0.0,0.0,0.0,0.0,0.0,0.0,2.0322,2.1228,2.2183,2.288,2.3567,2.4625,2.521,2.5658,2.6163,2.66,2.6806,2.6404,2.6301,2.6175,2.5658,2.5222,0.0,0.0,2.5072,2.5051,2.5781,0.0,0.0,0.0,2.7657,2.8089,0.0,0.0,0.0,0.0,0.0,0.0,3.1661,3.1661,3.1661,3.1661,3.1661,3.1661,3.1661,3.1661,3.1661,3.1661,3.1661,3.1661,3.1661,3.1661,3.1661,3.1661,3.1661,3.1444,3.1048,3.1048,3.0819,3.0422,3.0422,3.0422,3.0422,3.0422,3.0422,3.0434,3.0519,3.0676,3.0833,3.1109,3.1633,3.2162,0.0,0.0,0.0,0.0,0.0,0.0,0.0,0.4782,0.5348,0.5596,0.6213,0.6761,0.7021,0.7245,0.7538,0.0,0.0,0.0,0.0,0.0,0.0,0.0,0.0,0.0,0.0,0.0,0.0,1.1927,1.2113,0.0,0.0,0.0,0.0,0.0,0.0,1.4204,1.4427,1.4566,0.0,0.0,0.0,0.0,0.0,0.0,0.0,0.0,0.0,0.0,0.0,0.0,0.0,2.0261,2.1447,2.2537,2.3567,2.4625,0.0,0.0,2.5635,2.5819,2.5842,2.5796,2.5784,2.5647,2.5107,0.0,0.0,2.4882,2.4825,2.4945,2.5301,0.0,0.0,0.0,0.0,2.8089,0.0,0.0,0.0,0.0,0.0,0.0,3.1661,3.1661,3.1661,3.1661,3.1661,3.1661,3.1661,3.1661,3.1661,3.1661,3.1661,3.1661,3.1661,3.1661,3.1661,3.1661,3.1661,3.1637,3.1589,3.1589,3.1565,3.1517,3.1517,3.1517,3.1517,3.1517,3.1517,3.1604,3.1792,3.1979,3.224,3.2488,3.2698,3.2993,0.0,0.0,0.0,0.0,0.0,0.0,0.4096,0.4798,0.5378,0.5559,0.6238,0.6793,0.6979,0.7245,0.7503,0.0,0.0,0.0,0.0,0.0,0.0,0.0,0.0,0.0,0.0,0.0,1.1678,1.1877,1.1977,0.0,0.0,0.0,0.0,0.0,0.0,1.3389,1.36,0.0,0.0,0.0,0.0,0.0,0.0,0.0,0.0,0.0,0.0,0.0,0.0,0.0,0.0,0.0,2.0929,2.1763,0.0,0.0,2.4453,2.4958,2.5176,2.5463,2.5635,2.5314,2.5233,2.5107,2.4602,0.0,2.4503,2.4609,2.4718,2.4861,2.5111,2.5409,0.0,0.0,0.0,0.0,2.8679,0.0,0.0,3.0374,3.1156,0.0,0.0,3.1661,3.1661,3.1661,3.1661,3.1661,3.1661,3.1661,3.1661,3.1661,3.1661,3.1661,3.1661,3.1661,3.1661,3.1661,3.1661,3.1661,3.1661,3.1661,3.1661,3.1661,3.1661,3.1661,3.1661,3.1661,3.1749,3.1849,3.195,3.2201,3.255,3.2636,3.2896,3.3081,0.0,0.0,0.0,0.0,0.0,0.4046,0.4151,0.4807,0.5363,0.5591,0.6247,0.6751,0.6907,0.7202,0.7461,0.7587,0.0,0.0,0.0,0.0,0.0,0.0,0.0,0.0,0.0,0.0,0.0,1.1778,1.1877,1.1977,0.0,0.0,1.2431,1.2627,0.0,0.0,0.0,0.0,0.0,0.0,0.0,0.0,0.0,0.0,0.0,0.0,0.0,0.0,0.0,0.0,0.0,0.0,0.0,0.0,0.0,0.0,2.3821,2.4476,2.4476,2.4866,2.5176,2.4797,2.4694,2.4568,0.0,0.0,2.3996,2.4072,2.4307,2.4614,2.4826,2.5075,2.5612,2.6538,0.0,2.7248,2.815,2.9316,3.0086,0.0,0.0,3.1661,3.1661,3.1661,3.1661,3.1661,3.1661,3.1661,3.1661,3.1661,3.1661,3.1661,3.1661,3.1661,3.1661,3.1661,3.1661,3.1661,3.1661,3.1661,3.1661,3.1661,3.1661,3.1661,3.1661,3.1661,3.1661,3.1661,3.1849,3.2038,3.2125,3.2376,3.2711,3.281,3.2896,3.3081,0.0,0.0,0.0,0.0,0.0,0.0,0.0,0.4875,0.5389,0.5676,0.6282,0.6715,0.6715,0.7125,0.7419,0.7419,0.0,0.0,0.0,0.0,0.0,0.0,0.0,0.0,0.0,0.0,0.0,1.1528,1.1778,1.1877,1.1927,1.2175,1.2372,1.2529,0.0,0.0,0.0,0.0,0.0,0.0,0.0,0.0,0.0,0.0,0.0,0.0,0.0,0.0,0.0,0.0,0.0,0.0,0.0,0.0,0.0,0.0,2.3052,2.3395,2.3395,2.3833,2.4212,2.42,2.42,2.4074,0.0,0.0,2.3316,2.3084,2.3569,2.406,2.4279,2.4823,2.548,2.6021,2.6562,0.0,2.7657,2.9088,0.0,0.0,0.0,3.1661,3.1661,3.1661,3.1661,3.1661,3.1661,3.1661,3.1661,3.1661,3.1661,3.1661,3.1661,3.1661,3.1661,3.1661,3.1661,3.1661,3.1661,3.1661,3.1661,3.1661,3.1661,3.1661,3.1661,3.1661,3.1661,3.1661,3.1849,3.2038,3.23,3.2562,3.2723,3.2995,3.3081,3.3081,0.0,0.0,0.0,0.0,0.0,0.0,0.0,0.4875,0.5389,0.5676,0.6282,0.6715,0.6715,0.7047,0.7293,0.737,0.0,0.0,0.0,0.0,0.0,0.0,0.0,0.0,0.0,0.0,0.0,0.0,0.0,1.1819,1.1877,1.2076,1.2224,1.2382,1.248,1.2627,0.0,0.0,0.0,0.0,0.0,0.0,0.0,0.0,0.0,0.0,0.0,0.0,0.0,0.0,0.0,0.0,0.0,0.0,0.0,0.0,0.0,0.0,2.2926,2.3041,2.3155,2.3155,2.3155,2.3121,2.296,0.0,2.288,2.2776,2.334,2.3839,2.4048,2.4683,2.535,2.6009,2.6562,2.7115,0.0,0.0,0.0,3.0086,3.1023,3.1661,3.1661,3.1661,3.1661,3.1661,3.1661,3.1661,3.1661,3.1661,3.1661,3.1661,3.1661,3.1661,3.1661,3.1661,3.1661,3.1661,3.1661,3.1661,3.1661,3.1661,3.1661,3.1661,3.1661,3.1661,3.1661,3.1661,3.1937,3.23,3.2388,3.2649,3.2982,3.3068,3.3081,3.3081,0.0,0.0,0.0,0.0,0.0,0.0,0.0,0.4935,0.5423,0.5774,0.6301,0.6666,0.6715,0.6956,0.7202,0.7377,0.0,0.0,0.0,0.0,0.0,0.0,0.0,0.0,0.0,0.0,0.0,0.0,0.0,0.0,0.0,1.1977,1.2126,1.2274,1.2382,0.0,0.0,0.0,0.0,0.0,0.0,0.0,1.3652,0.0,0.0,0.0,0.0,0.0,0.0,0.0,0.0,0.0,0.0,0.0,0.0,0.0,2.0876,2.1838,0.0,2.2536,2.2685,2.2685,2.2685,0.0,0.0,0.0,2.234,2.2145,2.2865,2.3478,2.3696,2.4495,2.529,2.6009,2.6562,2.7115,0.0,0.0,0.0,3.0639,3.1264,3.1661,3.1661,3.1661,3.1661,3.1661,3.1661,3.1661,3.1661,3.1661,3.1661,3.1661,3.1661,3.1661,3.1661,3.1661,3.1661,3.1661,3.1661,3.1661,3.1661,3.1661,3.1661,3.1661,3.1661,3.1661,0.0,3.1761,3.2038,3.2388,3.2475,3.2736,3.3081,3.3081,3.3081,3.3081,0.0,0.0,0.0,0.0,0.0,0.0,0.0,0.0,0.5448,0.5956,0.627,0.6532,0.6666,0.6865,0.7112,0.737,0.0,0.0,0.0,0.0,0.0,0.0,0.0,0.0,0.0,0.0,0.0,1.1124,1.1377,1.1578,1.1678,0.0,1.2026,1.2274,1.2274,0.0,0.0,0.0,0.0,0.0,0.0,0.0,0.0,0.0,0.0,0.0,0.0,0.0,0.0,0.0,0.0,0.0,0.0,0.0,0.0,0.0,0.0,0.0,0.0,2.2191,0.0,0.0,0.0,0.0,0.0,0.0,0.0,0.0,2.2205,2.3036,2.3285,2.4305,2.529,2.5937,2.6574,2.7115,0.0,2.9088,0.0,0.0,3.1661,3.1661,3.1661,3.1661,3.1661,3.1661,3.1661,3.1661,3.1661,3.1661,3.1661,3.1661,3.1661,3.1661,3.1661,3.1661,3.1661,3.1661,3.1661,3.1661,3.1661,3.1661,3.1661,3.1661,3.1661,3.1661,3.1749,3.195,3.2125,3.2388,3.2636,3.2896,3.3081,3.3081,3.3081,3.3081,0.0,0.0,0.0,0.0,0.0,0.0,0.0,0.0,0.0,0.0,0.6239,0.6496,0.6672,0.6836,0.6999,0.0,0.0,0.0,0.0,0.0,0.0,0.0,0.0,0.0,0.0,0.0,0.0,1.1124,1.1377,1.1528,1.1569,1.1778,0.0,0.0,0.0,0.0,0.0,0.0,0.0,0.0,0.0,0.0,0.0,0.0,0.0,0.0,1.4514,1.4928,0.0,0.0,0.0,0.0,0.0,0.0,0.0,0.0,1.8996,1.9614,2.0398,0.0,2.1578,2.1578,2.1578,2.1555,0.0,0.0,0.0,0.0,0.0,2.2936,2.3513,2.4272,2.5098,2.5742,2.6426,2.7115,2.7645,0.0,0.0,3.1541,3.1661,3.1661,3.1661,3.1661,3.1661,3.1661,3.1661,3.1661,3.1661,3.1661,3.1661,3.1661,3.1661,3.1661,3.1661,3.1661,3.1661,3.1661,3.1661,3.1661,3.1661,3.1661,3.1661,3.1661,3.1661,3.1661,3.1749,3.195,3.2125,3.2388,3.2636,3.2896,3.3081,3.3081,3.3081,3.3081,0.0,0.0,0.0,0.0,0.0,0.0,0.0,0.0,0.0,0.0,0.0,0.0,0.0,0.0,0.0,0.0,0.0,0.0,0.0,0.0,0.0,0.0,0.0,0.0,0.0,0.0,0.0,0.0,0.0,1.1377,0.0,0.0,0.0,0.0,0.0,0.0,0.0,0.0,0.0,0.0,1.318,0.0,0.0,0.0,0.0,0.0,1.4142,1.4509,0.0,1.525,1.5763,1.6241,0.0,0.0,0.0,0.0,1.8455,1.894,1.995,2.0534,2.0871,2.1164,2.1221,2.1221,0.0,0.0,0.0,0.0,0.0,0.0,2.3595,2.4272,2.5109,2.6,2.6593,0.0,0.0,0.0,3.0482,3.1541,3.1661,3.1661,3.1661,3.1661,3.1661,3.1661,3.1661,3.1661,3.1661,3.1661,3.1661,3.1661,3.1661,3.1661,3.1661,3.1661,3.1661,3.1661,3.1661,3.1661,3.1661,3.1661,3.1661,3.1661,3.1661,3.1661,3.1749,3.195,3.2125,3.2388,3.2636,3.2896,3.3081,3.3081,3.3081,3.3081,0.0,0.0,0.0,0.0,0.0,0.0,0.0,0.0,0.0,0.0,0.0,0.0,0.0,0.0,0.0,0.0,0.0,0.0,0.0,0.0,0.0,0.0,0.0,0.0,0.0,0.0,0.0,0.0,0.0,0.0,0.0,0.0,1.1628,0.0,0.0,0.0,0.0,0.0,0.0,0.0,1.3142,0.0,0.0,0.0,0.0,0.0,0.0,0.0,0.0,1.4731,1.5163,1.5753,1.6221,0.0,0.0,0.0,0.0,0.0,1.9708,2.0163,2.0373,2.102,2.1221,2.1221,0.0,0.0,0.0,0.0,0.0,0.0,0.0,0.0,0.0,0.0,0.0,0.0,2.9809,3.0086,3.0482,3.1541,3.1661,3.1661,3.1661,3.1661,3.1661,3.1661,3.1661,3.1661,3.1661,3.1661,3.1661,3.1661,3.1661,3.1661,3.1661,3.1661,3.1661,3.1661,3.1661,3.1661,3.1661,3.1661,3.1661,3.1661,3.1661,3.1661,3.1749,3.195,3.2125,3.2388,3.2636,3.2896,3.3081,3.3081,3.3081,3.3081,0.0,0.0,0.0,0.0,0.0,0.0,0.0,0.0,0.0,0.0,0.0,0.0,0.0,0.0,0.0,0.0,0.0,0.0,0.0,0.0,0.0,0.0,0.0,0.0,0.0,0.0,0.0,0.0,0.0,0.0,1.1175,1.1368,1.1628,1.1927,0.0,0.0,0.0,0.0,0.0,0.0,1.3075,0.0,0.0,0.0,0.0,0.0,0.0,0.0,0.0,1.4236,1.4655,1.5142,1.5731,0.0,0.0,0.0,0.0,0.0,1.9033,1.9471,1.9806,2.0928,2.1221,2.1221,0.0,0.0,0.0,0.0,0.0,0.0,0.0,2.4865,2.5636,0.0,0.0,2.8691,2.9917,3.0086,3.0482,3.1541,3.1661,3.1661,3.1661,3.1661,3.1661,3.1661,3.1661,3.1661,3.1661,3.1661,3.1661,3.1661,3.1661,3.1661,3.1661,3.1661,3.1661,3.1661,3.1661,3.1661,3.1661,3.1661,3.1661,3.1661,3.1661,3.1661,3.1749,3.195,3.2125,3.2388,3.2636,3.2896,3.3081,3.3081,3.3081,3.3081,0.0,0.0,0.0,0.0,0.0,0.0,0.0,0.0,0.0,0.0,0.0,0.0,0.0,0.0,0.0,0.0,0.0,0.0,0.0,0.0,0.0,0.0,0.0,0.0,0.0,0.0,0.0,0.0,0.0,1.1023,1.1124,1.1427,1.1669,1.1778,0.0,0.0,0.0,0.0,0.0,0.0,0.0,0.0,0.0,0.0,0.0,0.0,0.0,0.0,0.0,0.0,1.429,1.4644,1.523,0.0,0.0,0.0,0.0,0.0,1.8792,1.9179,1.9595,2.0717,2.1094,0.0,0.0,0.0,0.0,0.0,0.0,0.0,0.0,0.0,2.5899,2.6907,0.0,2.9208,2.9977,3.0338,3.0795,3.1577,3.1661,3.1661,3.1661,3.1661,3.1661,3.1661,3.1661,3.1661,3.1661,3.1661,3.1661,3.1661,3.1661,3.1661,3.1661,3.1661,3.1661,3.1661,3.1661,3.1661,3.1661,3.1661,3.1661,3.1661,3.1661,3.1661,3.1673,3.1761,3.1937,3.2213,3.2475,3.2636,3.2896,3.3081,3.3081,3.3081,0.0,0.0,0.0,0.0,0.0,0.0,0.0,0.0,0.0,0.0,0.0,0.0,0.0,0.0,0.0,0.0,0.0,0.0,0.0,0.0,0.8673,0.9153,0.9519,0.0,0.0,0.0,1.0419,1.0667,1.0769,1.0922,1.1124,1.1477,1.1678,1.1719,0.0,0.0,0.0,0.0,0.0,0.0,0.0,0.0,0.0,0.0,0.0,0.0,0.0,0.0,0.0,0.0,0.0,0.0,0.0,0.0,0.0,1.6383,1.6874,1.7542,1.8674,1.9119,1.9486,2.059,0.0,0.0,0.0,0.0,0.0,0.0,0.0,0.0,0.0,2.5506,0.0,2.7675,2.8691,2.9484,3.0013,3.0543,3.1072,3.1601,3.1661,3.1661,3.1661,3.1661,3.1661,3.1661,3.1661,3.1661,3.1661,3.1661,3.1661,3.1661,3.1661,3.1661,3.1661,3.1661,3.1661,3.1661,3.1661,3.1661,3.1661,3.1661,3.1661,3.1661,3.1661,3.1661,3.1661,3.1661,3.1849,3.2038,3.2213,3.2475,3.2723,3.2982,3.3081,3.3081,0.0,0.0,0.0,0.0,0.0,0.0,0.0,0.0,0.0,0.0,0.0,0.0,0.0,0.0,0.0,0.0,0.0,0.0,0.0,0.0,0.8523,0.899,0.9402,0.0,0.0,1.0213,1.0368,1.0522,1.0675,1.0871,1.1124,1.1377,1.1578,1.1728,0.0,0.0,0.0,0.0,0.0,0.0,0.0,0.0,0.0,0.0,0.0,0.0,0.0,0.0,0.0,0.0,0.0,0.0,0.0,0.0,1.5872,1.6383,1.6874,1.7542,1.8674,1.9119,1.9486,2.059,0.0,0.0,0.0,0.0,0.0,0.0,0.0,0.0,0.0,2.6077,2.7297,2.8275,2.8931,2.9484,3.0013,3.0543,3.1072,3.1601,3.1661,3.1661,3.1661,3.1661,3.1661,3.1661,3.1661,3.1661,3.1661,3.1661,3.1661,3.1661,3.1661,3.1661,3.1661,3.1661,3.1661,3.1661,3.1661,3.1661,3.1661,3.1661,3.1661,3.1661,3.1661,3.1661,3.1661,3.1661,3.1849,3.2038,3.2038,3.2288,3.2723,3.2982,3.3081,3.3081,0.0,0.0,0.0,0.0,0.0,0.0,0.0,0.0,0.0,0.0,0.0,0.0,0.0,0.0,0.0,0.0,0.0,0.0,0.0,0.0,0.824,0.8688,0.9111,0.954,0.9895,1.0058,1.0265,1.0522,1.0718,1.0922,1.1124,1.1368,0.0,0.0,0.0,0.0,0.0,0.0,0.0,0.0,0.0,0.0,0.0,0.0,0.0,0.0,0.0,0.0,0.0,0.0,1.3868,1.4052,1.4355,1.5094,1.5818,1.5992,1.6656,1.7542,1.8555,1.8999,1.9493,2.0834,0.0,0.0,0.0,0.0,0.0,0.0,0.0,0.0,0.0,0.0,2.79,2.8826,2.9448,2.9977,3.0506,3.1036,3.1444,3.1637,3.1661,3.1661,3.1661,3.1661,3.1661,3.1661,3.1661,3.1661,3.1661,3.1661,3.1661,3.1661,3.1661,3.1661,3.1484,3.1484,3.1407,3.1241,3.1584,3.1661,3.1661,3.1661,3.1661,3.1661,3.1661,3.1661,3.1661,3.1661,3.1749,3.1849,3.1937,3.2288,3.2711,3.2797,3.2982,3.3081,0.0,0.0,0.0,0.0,0.0,0.0,0.0,0.0,0.0,0.0,0.0,0.0,0.0,0.0,0.0,0.0,0.0,0.0,0.0,0.0,0.8063,0.8414,0.8943,0.9372,0.9792,0.9947,1.0154,1.0419,1.0777,1.0972,1.1023,0.0,0.0,0.0,0.0,0.0,0.0,0.0,0.0,0.0,1.2774,1.2978,0.0,0.0,0.0,0.0,0.0,0.0,0.0,0.0,1.3868,1.402,1.4093,1.4796,1.5589,1.5742,1.6404,1.7278,1.8381,1.8939,1.9537,0.0,0.0,0.0,0.0,0.0,0.0,0.0,2.5176,0.0,0.0,0.0,0.0,2.9138,2.9737,3.0266,3.0807,3.1336,3.1661,3.1661,3.1661,3.1661,3.1661,3.1661,3.1661,3.1661,3.1661,3.1661,3.1661,3.1661,3.1661,3.1572,3.1416,3.1245,3.0968,3.0802,3.0643,3.0479,3.0818,3.1161,3.1496,3.1572,3.1572,3.1572,3.1661,3.1661,3.1661,3.1661,3.1661,3.1749,3.1937,3.2201,3.2463,3.2636,3.281,3.2995,0.0,0.0,0.0,0.0,0.0,0.0,0.0,0.0,0.0,0.0,0.0,0.0,0.0,0.0,0.0,0.0,0.0,0.0,0.0,0.757,0.8018,0.8273,0.0,0.9364,0.9784,0.9947,1.011,1.0316,1.0718,1.0922,1.0922,1.1175,0.0,0.0,0.0,0.0,0.0,0.0,0.0,0.0,1.2774,1.2978,1.3133,0.0,0.0,0.0,0.0,0.0,0.0,0.0,1.3773,1.402,1.402,1.4531,1.5203,1.5644,1.6153,1.683,1.8294,1.8939,1.9549,0.0,0.0,0.0,0.0,0.0,0.0,0.0,0.0,2.6782,2.7718,2.7893,2.8219,2.9138,2.9749,3.0278,3.0807,3.1336,3.1661,3.1661,3.1661,3.1661,3.1661,3.1661,3.1661,3.1661,3.1661,3.1661,3.1661,3.1661,3.156,3.1282,3.0807,3.0458,3.0149,2.9644,2.9397,2.9385,2.9385,2.9938,3.096,3.1205,3.1282,3.1294,3.156,3.1661,3.1661,3.1661,3.1661,3.1749,3.1937,3.2038,3.2038,3.2537,3.2711,3.2723,0.0,0.0,0.0,0.0,0.0,0.0,0.0,0.0,0.0,0.0,0.0,0.0,0.0,0.0,0.0,0.0,0.0,0.0,0.0,0.0,0.7694,0.8003,0.0,0.0,0.0,0.9783,1.0154,1.0419,1.0777,1.0922,0.0,0.0,0.0,1.1728,0.0,0.0,0.0,0.0,0.0,0.0,1.2774,1.2929,1.2978,0.0,0.0,0.0,0.0,0.0,0.0,0.0,0.0,0.0,1.402,1.4531,1.5203,1.5644,1.6153,1.683,1.8294,1.8939,0.0,0.0,0.0,0.0,0.0,0.0,0.0,0.0,2.6531,2.7209,2.7777,2.7893,2.8338,2.963,2.9989,3.0398,3.13,3.1565,3.1661,3.1661,3.1661,3.1661,3.1661,3.1661,3.1661,3.1661,3.1661,3.1504,3.1132,3.1033,3.0703,3.0248,2.9898,2.9632,2.9386,2.9234,2.9067,2.8872,2.8872,2.9207,2.9867,2.9942,2.9942,2.9966,3.0418,3.0759,3.0981,3.1517,3.1661,3.1673,3.1761,3.1849,3.2038,3.2125,3.2463,3.2711,0.0,0.0,0.0,0.0,0.0,0.0,0.0,0.0,0.0,0.0,0.0,0.0,0.0,0.0,0.0,0.0,0.0,0.0,0.0,0.0,0.7553,0.787,0.8294,0.8754,0.9358,0.9703,1.0117,1.0573,1.0769,0.0,0.0,0.0,0.0,1.1728,0.0,1.1828,0.0,0.0,1.248,1.2529,1.2774,1.2929,1.2978,0.0,0.0,0.0,0.0,0.0,0.0,0.0,0.0,0.0,1.402,0.0,1.4952,1.5589,1.5981,1.6601,1.8239,0.0,0.0,0.0,0.0,0.0,0.0,0.0,0.0,0.0,2.7094,2.7464,2.7812,2.7962,2.8395,2.9558,2.9953,3.0386,3.1228,3.1529,3.1661,3.1661,3.1661,3.1589,3.1372,3.1348,3.1264,3.106,3.1036,3.0903,3.0505,3.0334,3.0019,2.9529,2.9124,2.8838,2.8692,2.8411,2.8307,2.8115,2.8115,2.8283,2.8547,2.9051,2.9324,2.9335,2.9726,3.0072,3.0482,3.0954,3.1292,3.1572,3.1572,3.1661,3.1849,3.195,3.2201,3.2463,0.0,0.0,0.0,0.0,0.0,0.0,0.0,0.0,0.0,0.0,0.0,0.0,0.0,0.0,0.0,0.0,0.0,0.0,0.0,0.0,0.7546,0.7828,0.8091,0.8624,0.9542,0.963,0.999,1.0669,1.0804,0.0,0.0,0.0,1.1469,1.1728,0.0,1.1877,1.2126,1.2372,1.2529,1.2529,1.2783,1.2978,1.3133,1.318,0.0,0.0,0.0,0.0,0.0,0.0,0.0,0.0,1.402,1.4197,1.457,1.5502,1.5785,1.6199,1.8174,0.0,0.0,0.0,0.0,0.0,2.5268,2.5716,2.6003,2.7024,0.0,2.7603,2.7881,2.803,2.8426,2.9208,2.9701,3.0194,3.0723,3.1216,3.1517,3.1517,3.1517,3.1336,3.0855,3.0807,3.0603,3.0122,3.0086,2.999,2.9713,2.9713,2.9423,2.8951,2.8463,2.8136,2.792,2.7461,2.7231,2.7231,2.7231,2.7231,2.7265,2.8437,2.8974,2.9021,2.9242,2.9609,3.0102,3.0138,3.0619,3.1235,3.1282,3.1395,3.1661,3.1849,3.195,3.2025,0.0,0.0,0.0,0.0,0.0,0.0,0.0,0.0,0.0,0.0,0.0,0.0,0.0,0.0,0.0,0.0,0.0,0.0,0.0,0.0,0.7447,0.7511,0.8063,0.8603,0.9142,0.9499,0.9864,1.0238,1.0672,0.0,0.0,0.0,0.0,1.1728,0.0,1.2026,1.2283,1.2421,1.2578,1.2676,1.2832,1.2978,1.3133,1.318,1.3266,0.0,0.0,0.0,0.0,0.0,0.0,0.0,1.402,1.4197,1.457,1.5502,1.5785,1.6199,0.0,1.8939,0.0,0.0,0.0,0.0,2.5429,2.5716,2.6003,2.7024,2.7371,2.7603,2.7881,2.803,2.8426,2.9208,2.94,2.9653,3.0182,3.035,3.0422,3.0422,3.0422,3.0386,3.0266,3.0254,3.0206,3.0098,2.9929,2.9666,2.9154,2.8798,2.8349,2.7871,2.7602,2.7392,2.7392,2.7288,2.7231,2.7231,2.7231,2.7231,2.7242,2.7449,2.7854,2.8234,2.8452,2.8827,2.9363,2.9921,3.0319,3.0461,3.0897,3.1229,3.1395,3.1395,3.1673,3.2038,0.0,0.0,0.0,0.0,0.0,0.0,0.0,0.0,0.0,0.0,0.0,0.0,0.0,0.0,0.0,0.0,0.0,0.0,0.0,0.0,0.0,0.0,0.795,0.8412,0.8791,0.9159,0.9596,0.0,0.0,0.0,0.0,0.0,0.0,1.1728,0.0,1.2026,1.2332,1.2431,1.2578,1.2725,1.2929,1.3065,1.3152,1.3276,1.3362,1.3515,1.3563,0.0,0.0,0.0,0.0,0.0,0.0,0.0,1.457,1.5502,1.5785,1.6208,0.0,0.0,0.0,0.0,0.0,0.0,2.5107,2.5532,2.5934,2.6863,2.7371,2.7777,2.803,2.8191,2.8435,2.8871,2.9136,2.94,2.9677,2.9929,3.0086,3.0086,3.0086,2.9989,2.9737,2.9713,2.9605,2.9188,2.9094,2.8798,2.8339,2.8081,2.7719,2.7383,2.7219,2.7231,2.7231,2.7231,2.7149,2.7067,2.7067,2.6985,2.6891,2.7149,2.7369,2.7621,2.7693,2.8064,2.8572,2.8986,2.9467,3.0021,3.0302,3.0737,3.1139,3.1139,3.1407,3.1673,0.0,0.0,0.0,0.0,0.0,0.0,0.0,0.0,0.0,0.0,0.0,0.0,0.0,0.0,0.0,0.0,0.0,0.0,0.0,0.0,0.0,0.0,0.7904,0.8158,0.8535,0.8779,0.931,0.0,0.0,0.0,0.0,0.0,0.0,1.1728,0.0,1.2126,1.2323,1.248,1.2627,1.2783,1.2978,1.3152,1.3208,1.3372,1.3467,1.3621,1.3621,1.3621,1.3621,1.3763,0.0,0.0,0.0,0.0,1.457,1.5502,1.5785,1.6153,0.0,0.0,0.0,0.0,2.3064,0.0,2.4682,2.5256,2.5827,2.6662,2.7437,2.7962,2.8179,2.8339,2.851,2.851,2.8883,2.916,2.916,2.9532,2.9809,2.9809,2.9809,2.9641,2.9208,2.916,2.8898,2.8283,2.8087,2.7926,2.7522,2.7441,2.7371,2.7231,2.7231,2.7149,2.7149,2.7149,2.7067,2.6809,2.6809,2.6727,2.6644,2.6974,2.7067,2.7067,2.7067,2.7378,2.7767,2.7859,2.8545,2.948,2.9665,3.0178,3.0765,3.0937,3.105,3.1217,0.0,0.0,0.0,0.0,0.0,0.0,0.0,0.0,0.0,0.0,0.0,0.0,0.0,0.0,0.0,0.0,0.0,0.0,0.7174,0.0,0.0,0.7878,0.7946,0.8093,0.8237,0.8789,0.9207,0.0,0.0,0.0,0.0,0.0,0.0,1.1877,0.0,0.0,1.248,1.2627,1.2725,1.2881,1.3036,1.3152,1.3208,1.3372,1.3467,0.0,0.0,1.3621,1.3621,1.3763,1.3868,0.0,0.0,0.0,1.457,1.5502,1.5785,1.6153,0.0,0.0,0.0,0.0,2.3064,2.3624,0.0,0.0,2.5605,2.6792,2.7517,2.7962,2.8179,2.8339,2.851,2.851,2.857,2.8619,2.8619,2.8679,2.8727,2.8727,2.8727,2.8691,2.8619,2.8447,2.8331,2.8179,2.7846,2.7603,2.7522,2.729,2.7231,2.7231,2.7231,2.7149,2.6974,2.6974,2.6809,2.6644,2.6644,2.6644,2.6644,2.6644,2.6644,2.6644,2.6644,2.6678,2.6862,2.7436,2.777,2.7975,2.9137,2.9704,2.9973,3.0504,3.0781,3.1062,0.0,0.0,0.0,0.0,0.0,0.0,0.0,0.0,0.0,0.0,0.0,0.0,0.0,0.0,0.0,0.6878,0.7041,0.7202,0.7363,0.7572,0.7787,0.7912,0.8036,0.816,0.8291,0.8607,0.0,0.0,0.0,0.0,0.0,1.155,1.1828,0.0,0.0,0.0,0.0,0.0,1.2832,1.3027,1.3104,1.3228,1.3314,0.0,0.0,0.0,0.0,0.0,0.0,1.3868,1.401,1.414,1.428,0.0,0.0,0.0,1.5658,0.0,1.8304,0.0,0.0,0.0,2.2639,2.3201,2.4057,2.473,2.5424,2.6193,2.6789,2.7411,2.8231,2.8431,2.851,2.851,2.851,2.851,2.851,2.851,2.851,2.851,2.851,2.8431,2.8339,2.8259,2.8099,2.7846,2.7603,2.7441,2.7371,2.7219,2.7231,2.7231,2.7056,2.6974,2.6891,2.6809,2.6644,2.6396,2.6229,2.6229,2.6229,2.6229,2.6313,2.6644,2.6644,2.6644,2.6655,2.6952,2.72,2.7505,2.8042,2.8726,2.9504,2.9722,3.0256,3.0769,0.0,0.0,0.0,0.0,0.0,0.0,0.0,0.0,0.0,0.0,0.0,0.0,0.0,0.0,0.0,0.0,0.7132,0.7286,0.7482,0.7746,0.7912,0.7912,0.8085,0.825,0.8414,0.8521,0.0,0.0,0.0,0.0,1.1006,1.1544,1.1886,0.0,1.2234,0.0,0.0,0.0,0.0,0.0,0.0,1.3314,0.0,0.0,0.0,0.0,0.0,0.0,0.0,0.0,0.0,1.4222,1.4373,1.4373,0.0,0.0,0.0,0.0,0.0,0.0,2.0021,2.1388,2.2111,2.2718,0.0,0.0,2.5055,2.5704,2.6146,2.6769,2.7855,2.8222,2.8318,2.8318,2.8426,2.851,2.851,2.851,2.851,2.851,2.851,2.8431,2.8259,2.8179,2.7938,2.7522,2.7313,2.7175,2.7036,2.6909,2.676,2.676,2.6712,2.6617,2.6546,2.6494,2.6313,2.6146,2.5906,2.5812,2.5812,2.5728,2.5895,2.6218,2.6396,2.6396,2.6396,2.6479,2.6691,2.7048,2.7256,2.7914,2.8956,2.9092,2.9623,3.0408,0.0,0.0,0.0,0.0,0.0,0.0,0.0,0.0,0.0,0.0,0.0,0.0,0.0,0.6793,0.6956,0.7174,0.7216,0.7286,0.7482,0.7746,0.7912,0.7979,0.8118,0.0,0.848,0.0,0.0,0.0,0.0,0.0,1.0714,1.1278,1.1766,1.2283,1.2431,1.2578,1.2735,0.0,0.0,0.0,0.0,0.0,0.0,0.0,0.0,0.0,0.0,0.0,0.0,0.0,0.0,0.0,0.0,0.0,1.4471,0.0,0.0,0.0,0.0,1.9205,0.0,2.1014,2.1583,0.0,0.0,2.3874,2.4413,2.555,2.5983,2.6322,2.6911,2.7428,2.7765,2.7765,2.8186,2.851,2.851,2.851,2.851,2.851,2.851,2.8431,2.8259,2.803,2.7788,2.7522,2.6921,2.6587,2.6508,2.6048,2.5718,2.5474,2.5916,2.5994,2.5625,2.5832,2.5895,2.5895,2.5738,2.5654,2.5644,2.538,2.5285,2.5285,2.5717,2.5895,2.5979,2.6157,2.6252,2.6318,2.7037,2.7615,2.8107,2.86,2.9274,2.9977,0.0,0.0,0.0,0.0,0.0,0.0,0.0,0.0,0.0,0.0,0.0,0.0,0.0,0.7019,0.7034,0.7167,0.7328,0.7489,0.7739,0.7904,0.8028,0.8118,0.8283,0.848,0.8643,0.0,0.0,0.0,0.0,1.0256,1.0821,1.138,1.1939,1.2578,1.2627,1.2676,1.2832,1.3027,0.0,0.0,0.0,0.0,0.0,0.0,0.0,0.0,0.0,0.0,0.0,0.0,0.0,0.0,0.0,0.0,0.0,0.0,0.0,0.0,0.0,0.0,0.0,2.0423,2.1118,2.18,2.2706,2.3329,2.389,2.4811,2.5025,2.5252,2.5793,2.6622,2.7224,2.7224,2.738,2.75,2.75,2.75,2.75,2.75,2.7334,2.718,2.7014,2.678,2.6624,2.6401,2.6083,2.598,2.598,2.5652,2.5472,2.5394,2.5318,2.5247,2.5337,2.5245,2.533,2.5728,2.5464,2.538,2.538,2.52,2.52,2.52,2.538,2.5464,2.5464,2.5538,2.5633,2.5833,2.6092,2.6697,2.7442,2.7943,2.8533,2.9274,0.0,0.0,0.0,0.0,0.0,0.0,0.0,0.0,0.0,0.0,0.0,0.0,0.0,0.0,0.746,0.7642,0.7752,0.7858,0.8042,0.8055,0.8118,0.8258,0.8406,0.8602,0.8805,0.0,0.0,0.0,0.0,0.0,0.0,1.1313,1.1921,1.2522,1.2764,1.2881,0.0,0.0,0.0,1.4114,0.0,0.0,1.5091,0.0,0.0,0.0,0.0,0.0,0.0,0.0,0.0,0.0,0.0,0.0,0.0,0.0,0.0,0.0,1.8359,0.0,0.0,0.0,2.0584,2.1346,2.215,2.2799,2.3442,2.409,2.4266,2.4374,2.4723,2.5384,2.6045,2.6562,2.6815,2.6935,2.6935,2.6935,2.6935,2.6935,2.6697,2.6534,2.6306,2.6142,2.5912,2.5716,2.5543,2.5451,2.5375,2.5062,2.4898,2.4902,2.4515,2.4511,2.4843,2.4578,2.4744,2.5228,2.4977,2.4967,2.5115,2.5041,2.4956,2.4956,2.4956,2.5031,2.52,2.52,2.5285,2.5475,2.5475,2.5925,2.6671,2.7239,2.7899,2.8667,0.0,0.0,0.0,0.0,0.0,0.0,0.0,0.0,0.0,0.0,0.0,0.0,0.0,0.0,0.0,0.8475,0.8475,0.843,0.843,0.8292,0.8273,0.843,0.8488,0.8683,0.8975,0.0,0.0,0.0,0.0,0.0,0.0,0.0,1.1708,0.0,1.2829,1.3133,1.3173,0.0,1.4103,1.4205,0.0,1.5123,1.5269,0.0,0.0,0.0,1.5601,1.5653,0.0,1.5818,0.0,0.0,0.0,0.0,0.0,0.0,0.0,0.0,0.0,0.0,0.0,0.0,0.0,2.0871,2.1696,2.2293,2.2881,2.3616,2.3737,2.3749,2.3773,2.3773,2.4266,2.5781,2.6502,2.6788,2.6887,2.6887,2.6887,2.6887,2.6649,2.6498,2.6259,2.6095,2.5877,2.567,2.5187,2.4826,2.4687,2.4158,2.3891,2.393,2.3557,2.363,2.4183,2.3924,2.4009,2.4487,2.4272,2.4441,2.4861,2.4615,2.4454,2.4454,2.4454,2.47,2.52,2.52,2.52,2.52,2.52,2.5477,2.5945,2.6678,2.742,2.816,0.0,0.0,0.0,0.0,0.0,0.0,0.0,0.0,0.0,0.0,0.0,0.0,0.0,0.0,0.8616,0.8771,0.8875,0.8997,0.918,0.8909,0.8797,0.9054,0.8915,0.8895,0.8975,0.0,0.0,0.0,0.0,0.0,0.0,0.0,0.0,0.0,1.3037,1.3516,1.3831,1.4002,0.0,0.0,1.5447,1.5942,0.0,0.0,0.0,0.0,0.0,1.6819,1.6819,0.0,1.6698,1.6453,0.0,0.0,0.0,0.0,0.0,0.0,1.805,0.0,0.0,0.0,0.0,0.0,2.0594,2.1248,2.1932,2.2522,2.2931,2.3316,2.3701,2.3773,2.3905,2.435,2.4855,2.5324,2.5709,2.5757,2.5697,2.5625,2.5431,2.5213,2.5055,2.4835,2.4676,2.4613,2.4328,2.4175,2.4101,2.3671,2.3364,2.3047,2.2983,2.3058,2.3374,2.3218,2.3471,2.4272,2.3857,2.3937,2.4368,2.411,2.4013,2.4013,2.4013,2.41,2.4176,2.4529,2.4786,2.4946,2.4946,2.5105,2.5455,2.6011,2.6657,2.7399,0.0,0.0,0.0,0.0,0.0,0.0,0.0,0.0,0.0,0.0,0.0,0.0,0.0,0.0,0.0,0.9324,0.9389,0.9486,0.9675,0.9402,0.9387,0.9644,0.941,0.933,0.0,0.0,0.0,0.0,0.0,0.0,0.0,0.0,0.0,0.0,0.0,0.0,0.0,0.0,0.0,0.0,1.6037,0.0,0.0,1.7323,1.7499,0.0,0.0,0.0,1.795,1.7752,1.7468,0.0,0.0,0.0,0.0,0.0,0.0,0.0,0.0,0.0,0.0,0.0,0.0,0.0,1.9996,2.0613,2.1163,2.1476,2.1957,2.2426,2.2727,2.2967,2.3183,2.3412,2.3688,2.4061,2.459,2.4662,2.4606,2.4467,2.4259,2.4143,2.4141,2.395,2.3899,2.4032,2.397,2.3824,2.3677,2.3298,2.2927,2.2703,2.2553,2.253,2.2664,2.2433,2.2652,2.3389,2.3155,2.3314,2.376,2.376,2.3841,2.3841,2.3841,2.3841,2.3841,2.41,2.4272,2.4433,2.4433,2.4605,2.4838,2.5385,2.6112,2.6768,0.0,0.0,0.0,0.0,0.0,0.0,0.0,0.0,0.0,0.0,0.0,0.0,0.0,0.0,0.0,0.0,1.0097,1.0041,1.009,0.9976,0.9985,1.0269,0.9926,0.9847,0.0,0.0,0.0,0.0,0.0,0.0,0.0,0.0,0.0,0.0,0.0,0.0,0.0,0.0,0.0,1.6048,1.6701,1.7263,0.0,0.0,1.8267,1.8747,1.8747,1.8879,1.8933,1.8489,1.808,0.0,0.0,0.0,0.0,0.0,1.8084,0.0,0.0,0.0,0.0,0.0,1.9076,0.0,1.9696,2.0117,2.0526,2.0526,2.0947,2.1308,2.132,2.1704,2.2173,2.2642,2.2714,2.2967,2.3664,2.3773,2.3706,2.3482,2.3282,2.3311,2.3561,2.3421,2.3475,2.3693,2.3784,2.3588,2.3147,2.2905,2.2703,2.2628,2.2252,2.2035,2.2025,2.1655,2.1737,2.2196,2.2342,2.2631,2.3123,2.3503,2.3617,2.3667,2.3667,2.3667,2.3667,2.3667,2.3754,2.3841,2.3841,2.3937,2.4247,2.48,2.5508,2.6246,0.718,0.0,0.0,0.0,0.0,0.0,0.0,0.0,0.0,0.0,0.0,0.0,0.0,0.0,0.0,0.0,1.1032,1.1052,1.1253,1.0788,1.0617,1.0759,1.0596,1.0561,1.0746,0.0,0.0,0.0,0.0,0.0,0.0,0.0,0.0,0.0,0.0,0.0,0.0,0.0,0.0,1.6802,1.7352,0.0,1.7984,1.8354,1.8671,1.8928,1.8928,1.9059,1.9168,1.9174,1.8883,1.8544,0.0,0.0,0.0,1.8084,0.0,0.0,0.0,0.0,0.0,0.0,1.8923,0.0,1.9143,1.9552,1.9937,1.9937,2.0358,2.0742,2.0767,2.0851,2.0959,2.1055,2.1079,2.1704,2.352,2.3773,2.3694,2.3282,2.3203,2.3115,2.288,2.2891,2.28,2.2684,2.2775,2.27,2.2266,2.2561,2.2553,2.2262,2.1959,2.1807,2.1655,2.1359,2.1504,2.1958,2.179,2.2004,2.2605,2.2522,2.2563,2.2696,2.2696,2.2696,2.2696,2.2696,2.3135,2.3841,2.3841,2.3841,2.3851,2.4018,2.4682,2.5487,0.7467,0.0,0.0,0.0,0.0,0.0,0.0,0.0,0.0,0.0,0.0,0.0,0.0,0.0,0.0,0.0,0.0,0.0,0.0,0.0,1.1427,1.1669,1.13,1.1177,1.1315,1.1029,0.0,0.0,0.0,0.0,0.0,0.0,0.0,0.0,0.0,0.0,0.0,0.0,1.6353,1.7628,1.7832,0.0,1.8581,1.8995,1.9448,1.9856,1.9856,1.9761,1.9742,1.9841,1.9581,0.0,1.9298,1.8942,1.8517,0.0,1.8389,1.8259,0.0,0.0,0.0,1.8798,1.8893,0.0,0.0,1.9191,1.9384,1.9384,1.9805,2.0177,2.0201,2.043,2.061,2.061,2.061,2.0983,2.2053,2.2351,2.2317,2.2115,2.221,2.2271,2.2283,2.2239,2.2218,2.2183,2.2011,2.1958,2.197,2.2071,2.2009,2.1949,2.1731,2.1578,2.1359,2.1128,2.1083,2.1223,2.1193,2.139,2.1851,2.1997,2.214,2.2441,2.2441,2.2441,2.2441,2.2441,2.2696,2.3135,2.3232,2.3319,2.3493,2.358,2.4122,2.4921,0.7811,0.0,0.0,0.0,0.0,0.0,0.0,0.0,0.0,0.0,0.0,0.0,0.0,0.0,0.0,0.0,0.0,0.0,0.0,0.0,0.0,1.2624,1.2104,1.1862,1.2006,1.1727,1.1635,0.0,0.0,0.0,0.0,0.0,0.0,0.0,0.0,0.0,0.0,0.0,0.0,1.822,0.0,1.8592,1.9248,1.9687,2.0247,2.0733,2.0797,2.0602,2.0387,2.0499,2.0228,1.9826,1.9826,1.947,0.0,0.0,0.0,0.0,0.0,0.0,0.0,0.0,1.8946,1.8987,0.0,0.0,0.0,1.8987,1.9324,1.9624,1.9624,1.9997,2.031,2.031,2.031,2.031,2.031,2.058,2.076,2.0723,2.0976,2.1209,2.1456,2.1399,2.1407,2.1539,2.1326,2.1334,2.1629,2.1449,2.1428,2.1587,2.1461,2.1282,2.1128,2.0896,2.0664,2.0498,2.0601,2.0824,2.0995,2.1419,2.1757,2.2054,2.2138,2.2176,2.2167,2.2176,2.2176,2.2264,2.2618,2.2794,2.2969,2.3242,2.3721,2.4365,0.8353,0.8416,0.0,0.0,0.0,0.0,0.0,0.0,0.0,0.0,0.0,0.0,0.0,0.0,0.0,0.0,0.0,0.0,1.3895,0.0,0.0,0.0,1.3044,1.2995,1.3106,1.2473,1.2184,0.0,0.0,0.0,0.0,0.0,0.0,0.0,1.4532,0.0,0.0,0.0,1.728,0.0,1.8814,1.9392,0.0,2.0389,2.0741,2.0903,2.1106,2.1135,2.1078,2.1078,2.0745,2.0331,2.0331,1.9998,1.9563,1.916,0.0,0.0,0.0,0.0,0.0,1.8946,1.8987,1.8987,1.8987,0.0,1.8987,1.8987,0.0,1.9083,1.9083,0.0,0.0,1.9179,1.9179,1.9179,1.9179,1.9361,1.9688,2.0147,2.0147,2.0039,1.9941,2.0036,2.0172,2.0303,2.0552,2.0561,2.027,2.0823,2.1071,2.09,2.0928,2.0896,2.0644,2.0498,2.0264,1.9942,1.9989,2.0155,2.0326,2.0727,2.0976,2.1044,2.1318,2.1383,2.1177,2.1383,2.1482,2.1571,2.2176,2.2441,2.253,2.2794,2.2998,2.3418,0.8767,0.0,0.0,0.0,0.0,0.0,0.0,0.0,0.0,0.0,0.0,0.0,0.0,0.0,0.0,0.0,0.0,1.4621,0.0,0.0,0.0,0.0,0.0,0.0,1.3404,1.3293,1.3122,1.2993,1.295,0.0,0.0,0.0,0.0,0.0,1.4742,0.0,1.5899,0.0,1.7601,0.0,0.0,1.9821,2.0671,2.076,2.1096,2.1441,2.1273,2.1353,2.156,2.1261,2.102,2.0848,2.0848,2.0577,2.0259,2.0087,0.0,0.0,0.0,0.0,1.8946,1.8987,1.8987,1.8987,1.8987,1.8987,1.8987,1.8987,0.0,0.0,0.0,0.0,0.0,0.0,1.8277,1.8022,1.796,1.7946,1.8354,1.9479,1.9715,1.9677,1.944,1.9638,1.9758,1.9586,1.9834,1.9952,1.9885,2.006,2.0277,2.0426,2.0401,2.0322,2.0411,2.0186,1.9863,1.9539,1.9539,1.9602,1.9688,2.0078,2.04,2.064,2.1025,2.1096,2.0997,2.1096,2.1195,2.1195,2.1445,2.1811,2.2264,2.2441,2.2618,2.2909,0.9532,0.0,0.0,0.0,0.0,0.0,0.0,0.0,0.0,0.0,0.0,0.0,1.4932,1.5198,0.0,0.0,1.5624,1.5764,0.0,0.0,1.5125,1.5319,1.4846,0.0,0.0,0.0,1.4002,1.3652,0.0,0.0,0.0,0.0,0.0,0.0,0.0,1.5714,1.6314,0.0,1.8137,1.9417,1.9613,2.0335,2.1376,2.1236,2.1476,2.1893,2.1663,2.1732,2.187,2.1502,2.1337,2.1221,2.1221,2.1105,2.0976,0.0,0.0,0.0,1.971,1.9449,1.9167,1.9035,1.8987,1.8987,1.8987,1.8987,1.8987,1.8987,1.8987,0.0,0.0,0.0,1.8157,1.8013,0.0,1.7351,1.7242,1.7057,1.744,1.8717,1.9056,1.9135,1.9025,1.9121,1.9142,1.891,1.9158,1.9299,1.9297,1.928,1.9424,1.9752,1.972,1.9774,1.9858,1.9806,1.9548,1.9152,1.9152,1.9146,1.9126,1.9516,1.9906,2.0218,2.0589,2.081,2.0817,2.0907,2.0907,2.0907,2.0997,2.1365,2.182,2.2087,2.2176,2.2377,1.083,1.0501,0.0,0.0,0.0,0.0,0.0,0.0,0.0,0.0,0.0,0.0,0.0,0.0,0.0,0.0,0.0,1.6932,1.7129,0.0,1.6307,1.6064,1.5812,1.5538,0.0,0.0,0.0,0.0,0.0,0.0,0.0,0.0,0.0,0.0,0.0,1.6314,1.7059,1.8159,1.8941,1.944,2.0121,2.0997,2.1904,2.1904,2.1916,2.1984,2.2467,2.2329,2.1927,2.1904,2.1689,2.1388,2.1388,2.1526,2.1581,2.1185,2.1068,2.0879,2.0001,1.9768,1.9624,1.9119,1.8987,1.8987,1.8987,1.8987,1.8987,1.8987,1.8987,1.8831,1.8326,1.8205,1.8037,0.0,1.7424,0.0,0.0,1.7057,1.7182,1.7589,1.7821,1.808,1.8395,1.822,1.8078,1.824,1.8333,1.8348,1.8175,1.8458,1.8652,1.8672,1.9058,1.9107,1.8733,1.9109,1.9152,1.87,1.87,1.87,1.8727,1.9108,1.9415,1.9539,1.9939,2.0225,2.0382,2.0564,2.0744,2.0744,2.0907,2.0988,2.1087,2.1553,2.1741,2.194,0.0,0.0,0.0,0.0,0.0,0.0,0.0,1.4913,0.0,0.0,0.0,0.0,0.0,1.742,1.7728,0.0,0.0,1.8059,1.8356,1.7852,0.0,0.0,0.0,1.6546,0.0,0.0,0.0,0.0,0.0,0.0,0.0,0.0,0.0,0.0,0.0,1.6856,0.0,0.0,0.0,0.0,2.0684,2.1499,2.2059,2.1927,2.2407,2.3086,2.2947,2.3061,2.322,2.2488,2.2215,2.2069,2.1729,2.1686,2.1839,2.1661,2.1486,2.126,2.0959,2.0334,1.9744,1.9552,1.9251,1.8987,1.8987,1.8987,1.8987,1.8987,1.8987,1.8831,1.8301,1.7917,1.7508,0.0,0.0,1.624,0.0,1.6102,1.6198,1.6333,1.6859,1.7198,1.7148,1.7595,1.775,1.7434,1.802,1.8199,1.7625,1.7978,1.8211,1.828,1.8405,1.86,1.8705,1.8804,1.8692,1.8201,1.8201,1.8129,1.7814,1.826,1.8549,1.8835,1.9213,1.9592,1.9853,1.9945,1.9945,1.9945,2.0027,2.011,2.0374,2.1006,2.1275,2.1383,1.2054,0.0,0.0,0.0,0.0,0.0,0.0,0.0,0.0,0.0,1.7338,0.0,1.8046,0.0,1.883,0.0,1.8995,1.9155,1.9309,1.8857,0.0,1.8482,1.8192,0.0,0.0,0.0,0.0,0.0,0.0,1.5672,0.0,0.0,0.0,0.0,0.0,1.7232,1.7577,1.8646,1.9332,0.0,2.0931,2.1882,2.2523,2.2391,2.2968,2.3816,2.3699,2.3804,2.3849,2.3015,2.268,2.2497,2.1914,2.1874,2.1999,2.1999,2.1822,2.1644,2.1452,2.0754,2.0033,1.9829,1.9384,1.8987,1.8987,1.8987,1.8987,1.8987,1.8987,1.877,1.8049,1.764,1.7135,0.0,0.0,1.5626,0.0,1.5441,1.5425,1.5389,1.6087,1.6539,1.6503,1.6926,1.7084,1.6798,1.7298,1.7536,1.7148,1.7349,1.756,1.7708,1.776,1.7877,1.8038,1.8205,1.8152,1.7797,1.7797,1.7635,1.74,1.7631,1.8087,1.8481,1.8721,1.9117,1.9587,1.9587,1.9587,1.9587,1.9587,1.9671,1.9845,2.0555,2.0993,2.1577,0.0,0.0,0.0,0.0,1.4325,0.0,0.0,0.0,1.7369,0.0,1.8438,1.9221,1.9615,2.0218,2.0541,2.0307,2.0315,2.0294,2.001,1.9802,0.0,0.0,1.906,1.8822,1.806,0.0,0.0,0.0,0.0,0.0,0.0,0.0,0.0,0.0,1.7217,0.0,1.8187,1.9264,1.9723,1.9909,2.0954,2.2145,2.3203,2.3203,2.3612,2.4154,2.4601,2.446,2.4001,2.3391,2.3018,2.265,2.2103,2.2061,2.2197,2.2197,2.2197,2.2089,2.1584,2.1055,2.0514,1.9961,1.942,1.9023,1.8999,1.8987,1.8987,1.8987,1.8987,1.8674,1.764,1.7436,1.7027,0.0,0.0,1.5582,1.5312,1.5062,1.488,1.4776,1.5437,1.6027,1.6404,1.6235,1.6132,1.6312,1.6296,1.6382,1.6646,1.6608,1.6689,1.689,1.7089,1.7049,1.6918,1.7287,1.7426,1.7392,1.7392,1.731,1.731,1.731,1.7705,1.8473,1.8473,1.8806,1.9496,1.9496,1.9496,1.9496,1.9496,1.9587,1.9679,2.0119,2.1041,2.2167,1.3979,1.4524,1.5096,0.0,1.5769,1.6146,0.0,0.0,0.0,0.0,1.9494,2.0048,2.0291,2.0634,2.0903,2.1186,2.1327,0.0,0.0,0.0,0.0,2.0545,2.0014,1.9593,1.92,1.8922,0.0,1.7561,0.0,0.0,1.6594,0.0,0.0,0.0,0.0,1.8176,1.8747,1.9413,2.0174,2.1039,2.1557,2.2415,2.3416,2.3561,2.419,2.4979,2.5004,2.5028,2.4835,2.3927,2.361,2.3334,2.2423,2.2135,2.2197,2.2197,2.2197,2.2161,2.2029,2.1596,2.1079,2.0538,1.9985,1.9468,1.9083,1.8987,1.8987,1.8987,1.8987,1.8782,1.8121,1.7577,1.7027,1.6325,1.5773,1.53,1.5051,1.4891,1.4765,1.4523,1.4591,1.4785,1.5132,1.5553,1.5732,1.5523,1.588,1.6127,1.6119,1.629,1.6428,1.6473,1.6499,1.6672,1.6918,1.6977,1.7029,1.6894,1.6894,1.6738,1.6417,1.6417,1.6783,1.7422,1.7422,1.7819,1.8465,1.8465,1.8465,1.8458,1.8658,1.9028,1.9379,1.9837,2.0678,2.1709,1.4599,0.0,0.0,1.739,0.0,0.0,1.8303,1.8602,0.0,1.9697,2.0251,0.0,2.0967,2.1466,2.175,2.1897,2.2212,0.0,2.21,0.0,0.0,2.1584,2.1092,2.0605,2.0068,1.9738,0.0,1.8611,0.0,0.0,1.7633,0.0,0.0,0.0,0.0,1.8632,1.8942,1.9818,2.0703,2.1561,2.2048,2.2822,0.0,2.4013,2.4602,2.5312,2.5182,2.5241,2.5155,2.4121,2.3773,2.358,2.2522,2.2197,2.2197,2.2197,2.2197,2.2197,2.2197,2.1813,2.1272,2.073,2.0177,1.9636,1.9107,1.8987,1.8987,1.8987,1.8987,1.8831,1.8199,1.7611,1.6895,1.6067,1.5475,1.5062,1.4903,1.48,1.4627,1.443,1.4186,1.4058,1.4188,1.4956,1.5301,1.5054,1.5478,1.5674,1.554,1.5687,1.582,1.58,1.5899,1.606,1.6302,1.6354,1.6397,1.6409,1.6409,1.6335,1.6087,1.6087,1.6377,1.6873,1.7011,1.7369,1.7873,1.8025,1.8087,1.8087,1.828,1.8558,1.8928,1.9288,2.0118,2.1239,1.5166,0.0,0.0,0.0,0.0,0.0,1.9462,1.9557,1.9874,2.0418,2.0985,2.1475,2.1783,2.2561,2.2969,2.2715,0.0,2.3082,2.2982,2.2824,2.2595,2.2292,2.2189,2.1668,2.0863,2.0445,2.0062,0.0,0.0,0.0,0.0,0.0,0.0,0.0,0.0,0.0,0.0,2.0354,2.1152,2.1808,2.2443,2.3161,2.3821,2.4326,2.4855,2.5312,2.5312,2.5312,2.5155,2.4121,2.3773,2.358,2.2522,2.2197,2.2197,2.2197,2.2197,2.2197,2.2197,2.1861,2.138,2.0815,2.0273,1.9744,1.9215,1.9035,1.8987,1.8987,1.8987,1.8802,1.8203,1.7559,1.6727,1.5568,1.5108,1.4903,1.4869,1.4708,0.0,1.4384,1.3999,0.0,1.3525,1.4296,1.4773,1.4723,1.4878,1.5034,1.5013,1.5023,1.5019,1.5061,1.5303,1.5422,1.5536,1.5543,1.5653,1.6004,1.6004,1.6004,1.5922,1.5922,1.6103,1.6443,1.6752,1.7085,1.7425,1.7757,1.7893,1.7994,1.7994,1.8187,1.8481,1.8698,1.9501,2.066,1.7149,0.0,0.0,0.0,0.0,2.0015,2.1019,2.0829,2.0905,2.1852,2.2261,2.2791,2.3597,2.3977,2.4134,2.3861,2.4283,0.0,0.0,0.0,0.0,2.3185,2.2757,2.2399,2.2001,2.1314,2.0676,0.0,0.0,0.0,0.0,0.0,0.0,0.0,0.0,0.0,2.0435,2.1175,2.1678,2.1922,2.2635,2.3292,2.3821,2.4326,2.4855,2.5312,2.5312,2.5312,2.5155,2.4121,2.3773,2.358,2.2522,2.2197,2.2197,2.2197,2.2197,2.2197,2.2197,2.2125,2.1921,2.1392,2.0863,2.0322,1.9768,1.9312,1.8987,1.8987,1.8893,1.8827,1.8679,1.7655,1.6613,1.5747,1.5244,1.4823,1.4662,1.4523,1.4337,1.4114,1.3821,1.3478,1.3152,1.3521,1.3903,1.4219,1.4147,1.4304,1.4666,1.4711,1.463,1.4522,1.467,1.4982,1.5466,1.5235,1.5329,1.5477,1.5477,1.5318,1.4992,1.4992,1.5163,1.5483,1.5796,1.6109,1.643,1.6736,1.7052,1.7426,1.7426,1.7707,1.8218,1.8494,1.9047,1.9779,0.0,0.0,0.0,0.0,0.0,2.1274,2.2026,2.2126,2.229,2.2778,2.3195,2.3648,2.4229,2.4526,2.4723,2.4877,2.4923,2.4872,2.4753,2.4462,2.4328,2.4169,2.3535,2.3079,2.2831,2.2165,2.1642,2.105,2.0749,2.0353,1.9912,1.9744,1.9688,1.9711,0.0,2.0465,2.1063,2.1518,2.1914,2.2377,2.3107,2.3701,2.4218,2.4735,2.5083,2.5312,2.5312,2.5312,2.5155,2.4121,2.3773,2.358,2.2522,2.2197,2.2197,2.2197,2.2197,2.2197,2.2197,2.2197,2.2065,2.1536,2.1007,2.0466,1.9913,1.9329,1.8893,1.8893,1.8786,1.8596,1.8231,1.7566,1.6711,1.5822,1.5387,1.4951,1.4556,1.4373,1.4186,1.3821,1.3621,1.3334,1.2968,1.3051,1.3266,1.3619,1.37,1.3839,1.3996,1.414,1.4139,1.399,1.4222,1.4533,1.4917,1.4769,1.4852,1.5068,1.5068,1.4901,1.4734,1.4734,1.4909,1.5217,1.5532,1.584,1.6148,1.6462,1.677,1.6958,1.6958,1.7239,1.7744,1.808,1.861,1.9411,0.0,1.9512,0.0,0.0,2.1681,2.2298,2.2767,2.3241,2.3523,2.3523,2.3908,2.4413,2.48,2.4987,2.5328,2.5706,2.547,2.543,2.5662,2.5147,2.4898,2.4908,2.4353,2.3908,2.3475,2.305,2.2585,2.2003,2.1547,2.1099,2.0722,2.0343,2.0113,2.0021,2.04,2.0973,2.1626,2.1788,2.2285,2.2989,2.3646,2.4169,2.4578,2.5107,2.5312,2.5312,2.5312,2.5312,2.5155,2.4109,2.3761,2.358,2.2459,2.2123,2.2123,2.2073,2.2073,2.2073,2.2073,2.2073,2.1966,2.1559,2.1045,2.0519,1.9957,1.9388,1.8875,1.8768,1.8625,1.8389,1.778,1.742,1.6933,1.609,1.5541,1.5081,1.4591,1.424,1.3941,1.3658,1.342,1.319,1.2832,1.2757,1.2846,1.3023,1.3298,1.3401,1.3373,1.359,1.3667,1.3341,1.3792,1.4089,1.4287,1.4216,1.4292,1.4573,1.4489,1.4482,1.4398,1.4398,1.4569,1.4957,1.526,1.5604,1.5869,1.6202,1.6305,1.6393,1.6393,1.677,1.7189,1.758,1.8274,1.9056,0.0,0.0,2.1137,2.164,2.196,2.2491,2.335,2.3886,2.4173,2.4173,2.4441,2.4956,2.5836,2.6174,2.631,2.6196,2.6588,2.6567,2.5879,2.6012,2.5838,2.5207,2.5249,2.4924,2.3908,2.3857,2.3485,2.2942,2.2651,2.2283,2.1789,2.1743,2.1468,2.1095,2.1141,2.158,2.2392,2.2403,2.2894,2.3737,2.4242,2.447,2.4578,2.5107,2.5312,2.5312,2.5312,2.5312,2.5143,2.3907,2.3628,2.358,2.2321,2.1925,2.1874,2.1761,2.1761,2.1761,2.1761,2.1761,2.1749,2.1702,2.1278,2.0735,2.0217,1.9641,1.9136,1.872,1.8518,1.829,1.795,1.7489,1.7119,1.6766,1.5785,1.5045,1.4882,1.4169,1.3658,1.3621,1.32,1.2822,1.2578,1.2605,1.2582,1.2474,1.2797,1.3008,1.3025,1.3421,1.3341,1.2586,1.3226,1.365,1.3888,1.366,1.381,1.4166,1.3906,1.373,1.3561,1.3561,1.363,1.3911,1.4187,1.4628,1.5235,1.5261,1.5458,1.5825,1.5825,1.6204,1.6753,1.7337,1.7874,1.8493,2.066,2.1037,2.1578,2.225,2.2726,2.3224,2.3975,2.4393,2.4695,2.4889,2.5257,2.571,2.6284,2.6602,2.6819,2.7003,2.7024,2.6985,2.6954,2.6594,2.627,2.6206,2.5727,2.538,2.5296,2.4672,2.4175,2.3746,2.3315,2.288,2.2375,2.2375,2.2271,2.2076,2.2076,2.2313,2.2776,2.2776,2.3203,2.397,2.4103,2.4376,2.4696,2.4909,2.4981,2.4981,2.4981,2.4981,2.4826,2.3703,2.3416,2.3382,2.2143,2.1749,2.1761,2.1698,2.1698,2.1698,2.1698,2.1698,2.1698,2.1698,2.1287,2.0746,2.0229,1.9609,1.9039,1.8569,1.8302,1.8073,1.7909,1.7641,1.72,1.6697,1.6166,1.5612,1.5016,1.4424,1.3877,1.3591,1.3292,1.2941,1.2596,1.2753,1.2793,1.2609,1.258,1.2654,1.272,1.2894,1.2796,1.2526,1.2792,1.3126,1.343,1.3279,1.3332,1.3652,1.3568,1.3398,1.3222,1.3222,1.346,1.39,1.4345,1.4772,1.5083,1.5083,1.5178,1.5363,1.5363,1.5642,1.6184,1.6888,1.7406,1.7996,2.0974,2.1576,2.2257,2.2849,2.3269,2.3746,2.4529,2.4735,2.503,2.5518,2.5907,2.6304,2.6496,2.6699,2.7092,2.7547,2.7431,2.7374,2.7683,2.7147,2.6813,2.6937,2.6368,2.6032,2.6109,2.5517,2.5066,2.4648,2.4131,2.3615,2.3121,2.2823,2.2685,2.2685,2.2685,2.289,2.3154,2.3154,2.3594,2.4214,2.4214,2.4449,2.479,2.479,2.479,2.479,2.479,2.479,2.4648,2.3675,2.3332,2.3171,2.2004,2.1624,2.1624,2.1561,2.1561,2.1561,2.1561,2.1561,2.1561,2.1561,2.128,2.086,2.0345,1.9727,1.9067,1.8386,1.8073,1.7909,1.7799,1.759,1.7258,1.6732,1.6353,1.5891,1.5299,1.4645,1.4093,1.3743,1.3361,1.3047,1.2697,1.2867,1.2896,1.2497,1.2352,1.239,1.25,1.2482,1.2427,1.2308,1.2476,1.2674,1.2883,1.2724,1.2763,1.3137,1.3058,1.2887,1.2808,1.2966,1.3276,1.3726,1.4105,1.4406,1.4604,1.47,1.479,1.4885,1.4987,1.5267,1.5714,1.6401,1.6914,1.7496,2.1709,2.2426,2.3046,2.3338,2.3646,2.4044,2.4735,2.4932,2.5226,2.6004,2.6304,2.6496,2.6496,2.6699,2.7092,2.7547,2.7809,2.7889,2.7705,2.7854,2.7688,2.6971,2.7108,2.6903,2.612,2.6359,2.6198,2.5693,2.5153,2.4648,2.4154,2.3155,2.2685,2.2685,2.2685,2.3086,2.3677,2.3677,2.4143,2.479,2.479,2.479,2.479,2.479,2.479,2.479,2.479,2.479,2.4707,2.3933,2.3351,2.2849,2.1725,2.1388,2.1388,2.1221,2.1233,2.1233,2.1233,2.1233,2.1233,2.1233,2.1221,2.1083,2.0515,2.0033,1.9332,1.8168,1.7897,1.7799,1.7523,1.7379,1.7211,1.7011,1.6293,1.568,1.568,1.4784,1.4121,1.4077,1.3584,1.3104,1.2822,1.2845,1.2664,1.2078,1.205,1.2132,1.2201,1.2402,1.2322,1.1844,1.2144,1.2283,1.2234,1.2,1.2104,1.2448,1.2118,1.2043,1.206,1.2546,1.2905,1.3151,1.3425,1.3539,1.3539,1.3835,1.4118,1.4298,1.4592,1.4885,1.5249,1.6011,1.652,1.6901,2.1725,2.2434,2.3046,2.3347,2.3646,2.4044,2.4833,2.4932,2.5226,2.5994,2.6294,2.6602,2.6794,2.7167,2.7536,2.7809,2.8102,2.8319,2.8446,2.8313,2.8254,2.8121,2.7723,2.747,2.7412,2.6818,2.6393,2.6221,2.5716,2.5187,2.4671,2.4016,2.3707,2.3707,2.3707,2.387,2.4019,2.4019,2.4195,2.4418,2.4418,2.4418,2.4418,2.4418,2.4418,2.4418,2.4418,2.4418,2.4264,2.3674,2.3398,2.3087,2.2062,2.1498,2.1285,2.1221,2.1221,2.1221,2.1221,2.1221,2.1221,2.1221,2.1221,2.1095,2.0527,1.9698,1.8805,1.7957,1.7689,1.7579,1.7379,1.72,1.6965,1.6648,1.6363,1.6043,1.5558,1.4966,1.4405,1.4016,1.3577,1.3191,1.2889,1.2772,1.2506,1.2081,1.2077,1.2055,1.2093,1.1868,1.1764,1.1779,1.1751,1.1797,1.2,1.177,1.1778,1.1935,1.1849,1.1684,1.1508,1.1722,1.2085,1.2609,1.2951,1.3249,1.3539,1.3545,1.3636,1.3823,1.4022,1.4419,1.4906,1.5563,1.6024,1.6549,2.1725,2.2434,2.3247,2.3347,2.3755,2.4152,2.4833,2.4932,2.5226,2.61,2.64,2.6592,2.6986,2.7452,2.782,2.7998,2.829,2.8477,2.8757,2.8738,2.8676,2.8668,2.8327,2.8089,2.7989,2.7357,2.6944,2.6749,2.6244,2.5727,2.5199,2.4694,2.4464,2.4453,2.4281,2.42,2.42,2.42,2.42,2.42,2.42,2.42,2.42,2.42,2.42,2.42,2.42,2.42,2.4154,2.3833,2.3603,2.3269,2.2628,2.2019,2.141,2.1279,2.1221,2.1221,2.1221,2.1221,2.1221,2.1221,2.1158,2.0905,2.0341,1.9553,1.8712,1.8036,1.7668,1.7368,1.7211,1.6976,1.6694,1.6431,1.6202,1.5894,1.5468,1.5013,1.4563,1.416,1.3705,1.3295,1.3,1.2668,1.236,1.2107,1.1854,1.1744,1.1836,1.1552,1.1435,1.1505,1.145,1.1419,1.1439,1.1353,1.1348,1.1332,1.1424,1.142,1.1292,1.1333,1.1749,1.2262,1.241,1.2662,1.2953,1.3152,1.3249,1.3249,1.3636,1.3986,1.4529,1.5093,1.5673,1.6154,2.1766,2.2679,2.3382,2.3356,2.3854,2.435,2.4833,2.4932,2.5323,2.64,2.6496,2.6688,2.7262,2.7715,2.7998,2.7998,2.829,2.8488,2.8757,2.9035,2.902,2.8735,2.9037,2.8847,2.8103,2.8023,2.7736,2.7231,2.6714,2.6221,2.575,2.5222,2.4969,2.4946,2.4464,2.4246,2.4246,2.4212,2.42,2.42,2.42,2.42,2.42,2.42,2.42,2.42,2.42,2.42,2.42,2.42,2.389,2.3418,2.3383,2.2731,2.1927,2.1376,2.1256,2.1221,2.1221,2.1158,2.1158,2.1158,2.1031,2.0715,2.0042,1.9582,1.903,1.832,1.7742,1.7255,1.7022,1.6637,1.6374,1.6316,1.5836,1.541,1.5352,1.4824,1.4469,1.441,1.3872,1.3346,1.3014,1.2583,1.2226,1.1978,1.1497,1.1283,1.1469,1.1449,1.1301,1.1055,1.1106,1.0976,1.0573,1.0803,1.0773,1.0641,1.079,1.101,1.1221,1.1358,1.1677,1.1975,1.1975,1.198,1.2078,1.257,1.2759,1.2764,1.3249,1.3601,1.3968,1.4708,1.5288,1.5559,2.2212,2.3074,2.3701,2.34,2.3854,2.435,2.4833,2.4932,2.5323,2.64,2.6496,2.6688,2.7262,2.7715,2.7998,2.7998,2.8466,2.8757,2.8757,2.9209,2.9349,2.9317,2.942,2.9289,2.9148,2.8379,2.7736,2.7231,2.6714,2.6404,2.6278,2.5761,2.552,2.5497,2.4981,2.474,2.4717,2.4349,2.42,2.42,2.42,2.42,2.42,2.42,2.42,2.42,2.42,2.42,2.42,2.42,2.412,2.3948,2.3569,2.3212,2.2846,2.2007,2.1468,2.1221,2.1221,2.1094,2.0967,2.0967,2.085,2.0598,1.9916,1.9643,1.9249,1.8104,1.7785,1.7427,1.6665,1.6488,1.6249,1.571,1.5468,1.5235,1.4765,1.4588,1.4291,1.3812,1.3398,1.3087,1.2988,1.2439,1.205,1.1903,1.1592,1.1288,1.0929,1.0619,1.0617,1.0881,1.0824,1.0665,1.0564,1.0709,1.059,1.0125,0.999,0.9926,1.0116,1.0324,1.0812,1.1389,1.1389,1.1585,1.198,1.2175,1.2175,1.2273,1.2764,1.3221,1.3705,1.4265,1.4885,1.5606,2.2361,2.3117,2.3613,2.3418,2.3755,2.4251,2.4833,2.4932,2.5323,2.64,2.6496,2.6688,2.7262,2.7715,2.7998,2.7998,2.8466,2.8757,2.8757,2.9209,2.9485,2.9485,2.9693,2.9722,2.9504,2.8712,2.7954,2.7231,2.6944,2.6818,2.6806,2.6301,2.606,2.6037,2.5509,2.5142,2.49,2.4636,2.4395,2.42,2.42,2.42,2.42,2.42,2.42,2.42,2.42,2.42,2.42,2.4116,2.4043,2.3998,2.358,2.3341,2.3047,2.2502,2.19,2.1339,2.1047,2.0914,2.0786,2.0722,2.0593,2.0409,1.9929,1.9646,1.9225,1.8437,1.7988,1.7522,1.6825,1.644,1.6066,1.5508,1.5177,1.4949,1.4786,1.4511,1.4206,1.3882,1.3545,1.3172,1.2899,1.2321,1.1917,1.1874,1.1417,1.0984,1.0601,1.0332,1.0302,1.0512,1.0263,1.0167,1.0144,1.0105,1.0003,0.9748,0.9677,0.9784,0.9978,1.0171,1.0414,1.0801,1.0801,1.0998,1.1292,1.1492,1.1585,1.1697,1.2294,1.2751,1.3178,1.3795,1.4389,1.4934,2.2443,2.2944,2.3502,2.3418,2.3646,2.4044,2.4833,2.4932,2.5226,2.6304,2.6496,2.6688,2.7167,2.7631,2.7998,2.7998,2.8466,2.8757,2.8757,2.9209,2.9485,2.9485,2.9943,2.993,2.9607,2.901,2.8253,2.7346,2.7265,2.7231,2.7219,2.6783,2.6588,2.6554,2.6048,2.5578,2.513,2.4981,2.4682,2.4303,2.4223,2.4116,2.4116,2.4116,2.4116,2.4116,2.4116,2.4116,2.4043,2.3897,2.3824,2.3824,2.3666,2.3313,2.2883,2.2816,2.2351,2.171,2.1003,2.0725,2.0604,2.041,2.0346,2.027,1.9933,1.9576,1.92,1.885,1.8281,1.7626,1.7052,1.6537,1.6045,1.5555,1.5012,1.4781,1.5014,1.4495,1.417,1.4222,1.3741,1.3289,1.272,1.2244,1.1812,1.1761,1.1068,1.0607,1.0489,1.0169,1.0084,1.0074,0.9766,0.9557,0.9521,0.9291,0.93,0.9375,0.9498,0.9682,0.9848,1.0032,1.0216,1.0216,1.0216,1.0314,1.0413,1.09,1.1096,1.1119,1.1934,1.2354,1.257,1.3414,1.3859,1.4277,2.2823,2.3131,2.3502,2.3418,2.3646,2.4044,2.4833,2.4932,2.5226,2.61,2.64,2.6602,2.69,2.7357,2.7726,2.7987,2.829,2.8581,2.8757,2.9035,2.922,2.9485,2.9783,3.0023,3.0101,2.9183,2.8425,2.7862,2.7438,2.7231,2.7231,2.7151,2.7116,2.7093,2.6577,2.6301,2.6163,2.5279,2.4803,2.4562,2.4141,2.3824,2.3677,2.3677,2.3677,2.3677,2.3677,2.3677,2.3677,2.3677,2.3677,2.3666,2.3593,2.3548,2.3329,2.2833,2.2528,2.2299,2.1476,2.0863,2.041,2.0216,2.0074,1.9933,1.9933,1.9683,1.9327,1.8593,1.8394,1.7953,1.6961,1.6694,1.6413,1.5769,1.556,1.5332,1.4759,1.4433,1.4131,1.3733,1.3199,1.2833,1.269,1.2143,1.1696,1.147,1.0902,1.0425,1.029,0.9556,0.9346,0.9707,0.9661,0.9441,0.9039,0.8957,0.8796,0.8556,0.869,0.8756,0.879,0.8951,0.9126,0.943,0.9628,0.9826,1.0117,1.0413,1.0511,1.0627,1.1334,1.1744,1.2053,1.289,1.3539,1.4169,2.2798,2.2963,2.31,2.3217,2.3456,2.3746,2.4341,2.4735,2.5128,2.58,2.6197,2.6602,2.69,2.7357,2.7631,2.7809,2.8196,2.8488,2.8581,2.8943,2.9128,2.9312,2.9691,2.9852,2.9837,2.9366,2.8758,2.7977,2.7748,2.7495,2.7231,2.7056,2.7067,2.7056,2.6735,2.6392,2.612,2.5565,2.5057,2.4472,2.4247,2.3913,2.3593,2.3593,2.3593,2.3593,2.3593,2.3593,2.3593,2.3446,2.3446,2.3446,2.3298,2.3298,2.3254,2.2875,2.2259,2.1625,2.1262,2.0643,2.014,2.0009,1.9868,1.9736,1.9605,1.9473,1.9212,1.873,1.836,1.7965,1.7223,1.6756,1.6281,1.579,1.5366,1.5055,1.4932,1.4479,1.4078,1.3932,1.3467,1.2955,1.2525,1.2025,1.1567,1.1248,1.0644,1.0164,0.988,0.956,0.9197,0.8874,0.8978,0.8818,0.838,0.8376,0.8417,0.8325,0.8475,0.8635,0.8721,0.8791,0.8825,0.9031,0.9126,0.9225,0.9422,0.9821,1.0078,1.0184,1.0985,1.1394,1.1705,1.2433,1.2891,1.3305,2.2568,2.262,2.2578,2.2898,2.3147,2.3546,2.4035,2.4529,2.503,2.5509,2.6004,2.64,2.6794,2.7167,2.7452,2.7641,2.8019,2.8301,2.8395,2.8768,2.8943,2.9128,2.9508,2.9704,2.9486,2.9372,2.887,2.798,2.7866,2.7558,2.7067,2.6891,2.6809,2.6809,2.6644,2.6349,2.599,2.5878,2.5306,2.4602,2.4403,2.4058,2.3624,2.3624,2.3546,2.3446,2.3446,2.3446,2.3446,2.3298,2.3224,2.3224,2.3075,2.3001,2.2927,2.2927,2.2067,2.1076,2.0847,2.0387,1.9942,1.9834,1.9671,1.9407,1.9274,1.9075,1.8875,1.8674,1.8279,1.7842,1.7388,1.6796,1.6282,1.583,1.5256,1.4892,1.5026,1.4514,1.405,1.3962,1.3484,1.2973,1.2224,1.1845,1.1433,1.0906,1.0384,0.9989,0.9637,0.9386,0.89,0.8002,0.8305,0.822,0.7731,0.7894,0.7962,0.8019,0.8183,0.8318,0.8428,0.8428,0.8428,0.8428,0.8528,0.8627,0.8627,0.9229,0.953,0.9803,1.0501,1.0901,1.1202,1.1932,1.2332,1.255,2.199,2.2022,2.2257,2.2535,2.3038,2.3546,2.4035,2.4332,2.4735,2.5235,2.5606,2.5994,2.6496,2.6794,2.7081,2.7547,2.7641,2.782,2.8395,2.8395,2.8675,2.9128,2.9405,2.9566,2.9521,2.8981,2.8488,2.8038,2.7514,2.7139,2.6644,2.6644,2.6644,2.6644,2.6644,2.6622,2.6472,2.6013,2.5616,2.5344,2.4869,2.4238,2.3678,2.3678,2.3394,2.3075,2.3075,2.3075,2.3075,2.3001,2.3001,2.3001,2.3001,2.2852,2.2703,2.2703,2.2241,2.1474,2.0552,2.0296,2.0158,1.9722,1.9407,1.9131,1.9142,1.8808,1.8482,1.8144,1.8008,1.7794,1.7079,1.6862,1.6645,1.593,1.572,1.5438,1.4736,1.4307,1.3962,1.3564,1.2893,1.2231,1.1781,1.1575,1.1188,1.0339,1.0077,0.9809,0.9587,0.878,0.7932,0.7207,0.7669,0.7749,0.735,0.7502,0.737,0.713,0.726,0.7329,0.7338,0.7338,0.7338,0.7335,0.7839,0.8038,0.8137,0.863,0.9026,0.9195,0.9987,1.0371,1.0543,1.1385,1.2005,1.2441,2.1909,2.1878,2.1928,2.2232,2.2736,2.3247,2.3646,2.4035,2.4332,2.4735,2.5314,2.579,2.5994,2.6496,2.6996,2.7177,2.7452,2.7736,2.7925,2.8102,2.8477,2.9035,2.922,2.9312,2.9485,2.9306,2.897,2.8466,2.7973,2.7491,2.701,2.654,2.6313,2.6313,2.6229,2.6146,2.6135,2.5948,2.5612,2.5315,2.5117,2.4686,2.417,2.3853,2.3613,2.3416,2.311,2.2927,2.2777,2.2777,2.2703,2.2628,2.2628,2.2553,2.2478,2.2327,2.2125,2.1776,2.0845,2.0344,2.007,1.9823,1.9349,1.8875,1.8741,1.8482,1.8144,1.8008,1.7666,1.7254,1.6978,1.656,1.6149,1.5876,1.5363,1.4927,1.4489,1.3992,1.3558,1.3234,1.2736,1.2202,1.1834,1.1394,1.0897,1.0258,0.9901,0.9475,0.8958,0.8041,0.739,0.7188,0.7101,0.7037,0.691,0.7045,0.7093,0.7049,0.7177,0.7238,0.7238,0.7238,0.7238,0.7238,0.7437,0.7537,0.7543,0.8234,0.8565,0.8827,0.9512,1.0003,1.0381,1.0887,1.124,1.1673,2.1523,2.1599,2.1623,2.1928,2.2434,2.2946,2.3247,2.3646,2.4134,2.4332,2.4922,2.5401,2.5693,2.6197,2.6592,2.6794,2.7177,2.7452,2.7547,2.782,2.8279,2.885,2.8943,2.9128,2.9301,2.9301,2.8976,2.8488,2.7988,2.75,2.7045,2.6378,2.6074,2.6074,2.599,2.5895,2.5895,2.5812,2.5626,2.5322,2.5228,2.4957,2.4432,2.4086,2.3859,2.3675,2.3351,2.3155,2.3058,2.2907,2.2702,2.2594,2.2445,2.2327,2.2252,2.1949,2.1883,2.1735,2.1124,2.0565,2.0091,1.9877,1.928,1.8809,1.8546,1.8232,1.7862,1.7666,1.7254,1.6839,1.663,1.6149,1.5769,1.5593,1.5097,1.4621,1.4362,1.3859,1.3339,1.309,1.2583,1.2114,1.1742,1.1184,1.0658,1.009,0.9709,0.9055,0.8103,0.7432,0.7032,0.6904,0.6584,0.6348,0.6298,0.6568,0.6677,0.6519,0.6697,0.6736,0.6736,0.6736,0.6736,0.6839,0.6936,0.7062,0.7211,0.7808,0.8166,0.8348,0.8983,0.9446,0.9919,1.0253,1.0692,1.1017,2.0885,2.1121,2.142,2.1623,2.2123,2.2636,2.2946,2.3447,2.3845,2.4035,2.4332,2.4824,2.5596,2.5693,2.5897,2.64,2.6699,2.6996,2.7262,2.7715,2.8092,2.8395,2.8664,2.8757,2.8757,2.8757,2.8517,2.7956,2.7555,2.7086,2.6627,2.6136,2.5906,2.5895,2.5895,2.5895,2.5895,2.5654,2.5559,2.5559,2.5295,2.4934,2.4541,2.453,2.4243,2.3828,2.3828,2.3828,2.3753,2.3275,2.3115,2.303,2.2562,2.2252,2.2035,2.1655,2.1502,2.1425,2.1282,2.0883,2.0356,1.9915,1.9312,1.8844,1.8643,1.8162,1.752,1.7047,1.6917,1.6709,1.5947,1.5814,1.564,1.5192,1.4942,1.4683,1.4406,1.381,1.3338,1.3213,1.2412,1.1686,1.1284,1.1007,1.0564,0.9649,0.9411,0.864,0.7139,0.7054,0.6764,0.5901,0.593,0.5857,0.5489,0.5976,0.6028,0.5636,0.5636,0.5636,0.5636,0.5636,0.5737,0.6042,0.6239,0.6611,0.7038,0.7241,0.7602,0.784,0.8494,0.8798,0.8923,0.9592,1.0143,1.0692,2.064,2.1027,2.1326,2.1428,2.1827,2.2333,2.2636,2.2937,2.3447,2.3845,2.4035,2.443,2.4824,2.5401,2.579,2.5897,2.64,2.6699,2.6986,2.7357,2.7631,2.7831,2.8102,2.8279,2.8279,2.8279,2.8111,2.7971,2.7511,2.705,2.6579,2.6097,2.5701,2.538,2.538,2.538,2.5369,2.5369,2.5295,2.5285,2.52,2.5115,2.4966,2.4658,2.4445,2.4275,2.3945,2.3748,2.3566,2.3429,2.3297,2.3054,2.2439,2.1989,2.1655,2.1359,2.1282,2.1282,2.1051,2.0797,2.0426,1.9984,1.9468,1.901,1.8739,1.8281,1.797,1.7761,1.7322,1.6798,1.6584,1.6063,1.5646,1.5447,1.4927,1.4418,1.4045,1.3588,1.3114,1.2588,1.2034,1.1603,1.127,1.067,1.0029,0.9434,0.8345,0.758,0.7139,0.6523,0.6179,0.5933,0.5767,0.5489,0.4995,0.5492,0.5705,0.5636,0.5636,0.5636,0.5636,0.5636,0.5636,0.5741,0.5918,0.6075,0.622,0.6806,0.7133,0.7314,0.795,0.8446,0.8923,0.9144,0.9588,1.0147,2.03,2.0712,2.1019,2.1121,2.1522,2.1928,2.2325,2.2636,2.2946,2.3447,2.3746,2.4035,2.4332,2.4922,2.5314,2.5411,2.5897,2.6304,2.6699,2.689,2.7071,2.7156,2.7347,2.762,2.7998,2.7998,2.7998,2.7998,2.7551,2.7083,2.6604,2.6136,2.5658,2.52,2.52,2.52,2.52,2.5115,2.5115,2.5031,2.4956,2.4956,2.4925,2.4577,2.4472,2.443,2.4147,2.397,2.3856,2.3587,2.3247,2.2889,2.2452,2.1977,2.1612,2.1389,2.1181,2.0896,2.0741,2.0498,2.0187,1.9774,1.9468,1.9161,1.8807,1.8387,1.7979,1.7671,1.722,1.6767,1.6463,1.5928,1.5513,1.5334,1.4798,1.4207,1.3932,1.3378,1.2871,1.2362,1.1792,1.1341,1.0966,1.0381,0.9602,0.8732,0.7731,0.7052,0.6601,0.6184,0.5842,0.5674,0.5356,0.5044,0.4636,0.4834,0.4935,0.4935,0.4935,0.4935,0.4935,0.4972,0.509,0.5401,0.5503,0.5673,0.5932,0.6493,0.6686,0.6733,0.7462,0.7931,0.826,0.8481,0.8927,0.9478,1.9983,2.03,2.0514,2.0822,2.1121,2.142,2.192,2.2224,2.2526,2.2946,2.3347,2.3746,2.4035,2.4332,2.4529,2.4833,2.5314,2.5897,2.64,2.64,2.64,2.6496,2.6496,2.6965,2.7809,2.7904,2.7904,2.7904,2.749,2.7056,2.6578,2.6101,2.5624,2.5179,2.5137,2.5115,2.5115,2.4946,2.4861,2.4775,2.454,2.4454,2.4454,2.4454,2.4454,2.4454,2.4454,2.4454,2.4307,2.3716,2.3122,2.2583,2.2501,2.22,2.175,2.1551,2.1017,2.0537,2.0352,2.002,1.9784,1.9381,1.9269,1.9163,1.877,1.841,1.7854,1.7173,1.6945,1.6631,1.587,1.563,1.542,1.5021,1.4483,1.4173,1.4048,1.3222,1.2619,1.2363,1.1671,1.0982,1.0294,0.9946,0.9257,0.7871,0.7382,0.6825,0.5918,0.5941,0.5671,0.509,0.4812,0.4561,0.4338,0.4034,0.3932,0.4033,0.4033,0.4036,0.4045,0.4114,0.4357,0.4886,0.4976,0.5382,0.6006,0.6016,0.6074,0.6274,0.6935,0.7154,0.7265,0.7712,0.8263,0.8813,1.9783,1.9983,2.0292,2.0514,2.0822,2.1121,2.142,2.1725,2.203,2.2526,2.2736,2.2937,2.3546,2.3935,2.4233,2.4233,2.4726,2.5314,2.58,2.5887,2.6091,2.6496,2.6496,2.6592,2.6784,2.7071,2.7262,2.7441,2.7348,2.7066,2.6597,2.6128,2.568,2.5145,2.4781,2.4615,2.4625,2.4454,2.4368,2.4368,2.41,2.3927,2.3927,2.3927,2.3927,2.3927,2.3927,2.3927,2.3917,2.3816,2.3408,2.3046,2.2888,2.233,2.1732,2.1147,2.0832,2.0528,2.0115,1.9696,1.9381,1.9301,1.8921,1.8638,1.8647,1.8338,1.7951,1.7792,1.7233,1.6669,1.6508,1.5932,1.5383,1.5141,1.4573,1.3917,1.3294,1.279,1.2186,1.1585,1.0895,1.0381,1.0125,0.8986,0.7993,0.7493,0.6618,0.6129,0.5946,0.5583,0.5169,0.4803,0.4577,0.4221,0.3736,0.3533,0.3632,0.4033,0.4033,0.4065,0.4123,0.4138,0.4179,0.4346,0.4423,0.4684,0.5138,0.5427,0.5691,0.5935,0.6383,0.6826,0.7265,0.7376,0.7709,0.8263,1.948,1.968,1.9983,2.0101,2.03,2.0609,2.1019,2.1224,2.1522,2.203,2.2224,2.2434,2.2937,2.3329,2.3728,2.4035,2.4332,2.4726,2.5314,2.5314,2.5411,2.5713,2.5713,2.5907,2.6091,2.6294,2.6486,2.688,2.688,2.6645,2.6196,2.5951,2.5492,2.4859,2.4625,2.44,2.4196,2.4024,2.4024,2.4024,2.3841,2.3841,2.3841,2.3841,2.3841,2.3841,2.3841,2.3754,2.3677,2.3677,2.3345,2.2985,2.2908,2.2349,2.1709,2.1396,2.0797,2.0205,1.999,1.9467,1.8993,1.8754,1.8434,1.8201,1.8362,1.8121,1.7789,1.7465,1.6976,1.6484,1.6147,1.5477,1.4985,1.4671,1.399,1.3392,1.296,1.2272,1.1671,1.1068,1.0463,0.9989,0.9469,0.8321,0.7403,0.7095,0.642,0.5821,0.5401,0.511,0.4767,0.4373,0.4016,0.3734,0.3433,0.3056,0.2965,0.3271,0.3271,0.3303,0.3362,0.3498,0.3743,0.3886,0.4065,0.4314,0.4645,0.4908,0.515,0.5375,0.571,0.6156,0.6599,0.6824,0.7268,0.7937,1.9279,1.948,1.968,1.968,1.9879,2.0189,2.0712,2.0814,2.1027,2.1522,2.1827,2.203,2.2325,2.2627,2.3129,2.3827,2.3935,2.4134,2.4637,2.4726,2.4735,2.4833,2.4833,2.502,2.5596,2.5596,2.5897,2.6496,2.6496,2.6305,2.5943,2.5862,2.544,2.4726,2.4575,2.4303,2.3951,2.3784,2.3754,2.3754,2.3667,2.3667,2.3667,2.3667,2.3667,2.3667,2.3667,2.3493,2.3319,2.3319,2.3057,2.2706,2.2706,2.2301,2.1834,2.1673,2.0912,2.0035,1.9889,1.9335,1.8628,1.8215,1.7921,1.7789,1.7789,1.7627,1.7375,1.6738,1.6394,1.6064,1.5394,1.4901,1.4489,1.3997,1.3392,1.2875,1.2528,1.1757,1.0977,1.0549,1.0067,0.9464,0.8667,0.777,0.7098,0.6771,0.6208,0.5591,0.4728,0.4698,0.4435,0.3831,0.3442,0.3144,0.3043,0.2685,0.2401,0.2408,0.2408,0.2427,0.2571,0.2826,0.3177,0.3405,0.3678,0.4035,0.4369,0.4369,0.4592,0.4817,0.515,0.5485,0.5822,0.6381,0.7049,0.7604,1.9279,1.9383,1.948,1.968,1.9783,1.9879,2.0189,2.0403,2.0617,2.0925,2.1224,2.1522,2.1827,2.2224,2.2728,2.3029,2.3338,2.3646,2.3836,2.3827,2.4035,2.4529,2.4529,2.4735,2.503,2.503,2.5518,2.6496,2.6496,2.6466,2.6406,2.6013,2.5762,2.5621,2.4857,2.4474,2.4394,2.375,2.3503,2.3503,2.3319,2.3232,2.3232,2.3232,2.3232,2.3135,2.2969,2.2794,2.253,2.253,2.253,2.2441,2.2441,2.2227,2.1947,2.1392,2.0957,2.0544,1.9956,1.923,1.8594,1.8511,1.7697,1.6894,1.6894,1.6812,1.673,1.6245,1.5824,1.5394,1.4901,1.4496,1.3913,1.3222,1.296,1.2443,1.1585,1.1068,1.0549,1.0125,0.9398,0.8584,0.7736,0.7189,0.6679,0.633,0.5382,0.4839,0.4814,0.4329,0.3833,0.3331,0.3282,0.3102,0.2583,0.2315,0.2139,0.2281,0.1955,0.2175,0.2617,0.2623,0.2758,0.2796,0.2803,0.3253,0.3699,0.3699,0.4033,0.4592,0.4592,0.4925,0.5485,0.6161,0.6715,0.7265,1.9071,1.9078,1.9175,1.948,1.948,1.9583,1.9879,1.999,2.0197,2.0403,2.0712,2.0917,2.1224,2.1725,2.2123,2.2426,2.2736,2.3038,2.3229,2.3438,2.3646,2.3845,2.3845,2.4035,2.4233,2.4233,2.4627,2.5411,2.5518,2.5616,2.5616,2.5421,2.5207,2.4964,2.4584,2.4147,2.367,2.3306,2.3094,2.2882,2.2794,2.2696,2.2696,2.2696,2.2696,2.2706,2.2618,2.253,2.2441,2.2441,2.2353,2.2176,2.2087,2.183,2.1615,2.1148,2.0668,2.0114,1.9861,1.9101,1.8387,1.814,1.754,1.6865,1.6347,1.6118,1.5899,1.5741,1.5235,1.4734,1.4412,1.3815,1.3222,1.2875,1.24,1.197,1.1356,1.0845,1.0291,0.9487,0.8647,0.7927,0.7515,0.6858,0.6236,0.5664,0.5077,0.4597,0.4133,0.3732,0.3347,0.3075,0.2789,0.2501,0.2316,0.2036,0.1845,0.1969,0.1877,0.1886,0.2108,0.233,0.234,0.2469,0.2581,0.2806,0.3141,0.3251,0.3586,0.4035,0.4147,0.4704,0.5483,0.571,0.6156,0.6715]}]]